[[{"header":{"parameterUnit":"m.s-1","parameterCategory":1,"la1":31.0,"la2":29.5877,"lo1":-88.7671,"lo2":-86.6584,"dy":0.0162,"dx":0.0185,"nx":115,"ny":88,"refTime":"2023-07-20T00:00:00:Z","depth":0,"parameterNumber":2,"parameterNumberName":"U-component_of_WINDS"},"data":[0.0,0.0,0.0,0.0,0.0,0.0,0.0,0.0,0.0,0.0,0.0,0.0,0.0,0.0,0.0,0.0,0.0,0.0,0.0,0.0,0.0,0.0,0.0,0.0,0.0,0.0,0.0,0.0,0.0,0.0,0.0,0.0,0.0,0.0,0.0,0.0,0.0,0.0,0.0,0.0,0.0,0.0,0.0,0.0,0.0,0.0,0.0,0.0,0.0,0.0,0.0,0.0,0.0,0.0,0.0,0.0,0.0,0.0,0.0,0.0,0.0,0.0,0.0,0.0,0.0,0.0,0.0,0.0,0.0,0.0,0.0,0.0,0.0,0.0,0.0,0.0,0.0,0.0,0.0,0.0,0.0,0.0,0.0,0.0,0.0,0.0,0.0,0.0,0.0,0.0,0.0,0.0,0.0,0.0,0.0,0.0,0.0,0.0,0.0,0.0,0.0,0.0,0.0,0.0,0.0,0.0,0.0,0.0,0.0,0.0,0.0,0.0,0.0,0.0,0.0,0.0,0.0,0.0,0.0,0.0,0.0,0.0,0.0,0.0,0.0,0.0,0.0,0.0,0.0,0.0,0.0,0.0,0.0,0.0,0.0,0.0,0.0,0.0,0.0,0.0,0.0,0.0,0.0,0.0,0.0,0.0,0.0,0.0,0.0,0.0,0.0,0.0,0.0,0.0,0.0,0.0,0.0,0.0,0.0,0.0,0.0,0.0,0.0,0.0,0.0,0.0,0.0,0.0,0.0,0.0,0.0,0.0,0.0,0.0,0.0,0.0,0.0,0.0,0.0,0.0,0.0,0.0,0.0,0.0,0.0,0.0,0.0,0.0,0.0,0.0,0.0,0.0,0.0,0.0,0.0,0.0,0.0,0.0,0.0,0.0,0.0,0.0,0.0,0.0,0.0,0.0,0.0,0.0,0.0,0.0,0.0,0.0,0.0,0.0,0.0,0.0,0.0,0.0,0.0,0.0,0.0,0.0,0.0,0.0,0.0,0.0,0.0,0.0,0.0,0.0,0.0,0.0,0.0,0.0,0.0,0.0,0.0,0.0,0.0,0.0,0.0,0.0,0.0,0.0,0.0,0.0,0.0,0.0,0.0,0.0,0.0,0.0,0.0,0.0,0.0,0.0,0.0,0.0,0.0,0.0,0.0,0.0,0.0,0.0,0.0,0.0,0.0,0.0,0.0,0.0,0.0,0.0,0.0,0.0,0.0,0.0,0.0,0.0,0.0,0.0,0.0,0.0,0.0,0.0,0.0,0.0,0.0,0.0,0.0,0.0,0.0,0.0,0.0,0.0,0.0,0.0,0.0,0.0,0.0,0.0,0.0,0.0,0.0,0.0,0.0,0.0,0.0,0.0,0.0,0.0,0.0,0.0,0.0,0.0,0.0,0.0,0.0,0.0,0.0,0.0,0.0,0.0,0.0,0.0,0.0,0.0,0.0,0.0,0.0,0.0,0.0,0.0,0.0,0.0,0.0,0.0,0.0,0.0,0.0,0.0,0.0,0.0,0.0,0.0,0.0,0.0,0.0,0.0,0.0,0.0,0.0,0.0,0.0,0.0,0.0,0.0,0.0,0.0,0.0,0.0,0.0,0.0,0.0,0.0,0.0,0.0,0.0,0.0,0.0,0.0,0.0,0.0,0.0,0.0,0.0,0.0,0.0,0.0,0.0,0.0,0.0,0.0,0.0,0.0,0.0,0.0,0.0,0.0,0.0,0.0,0.0,0.0,0.0,0.0,0.0,0.0,0.0,0.0,0.0,0.0,0.0,0.0,0.0,0.0,0.0,0.0,0.0,0.0,0.0,0.0,0.0,0.0,0.0,0.0,0.0,0.0,0.0,0.0,0.0,0.0,0.0,0.0,0.0,0.0,0.0,0.0,0.0,0.0,0.0,0.0,0.0,0.0,0.0,0.0,0.0,0.0,0.0,0.0,0.0,0.0,0.0,0.0,0.0,0.0,0.0,0.0,0.0,0.0,0.0,0.0,0.0,0.0,0.0,0.0,0.0,0.0,0.0,0.0,0.0,0.0,0.0,0.0,0.0,0.0,0.0,0.0,0.0,0.0,0.0,0.0,0.0,0.0,0.0,0.0,0.0,0.0,0.0,0.0,0.0,0.0,0.0,0.0,0.0,0.0,0.0,0.0,0.0,0.0,0.0,0.0,0.0,0.0,0.0,0.0,0.0,0.0,0.0,0.0,0.0,0.0,0.0,0.0,0.0,0.0,0.0,0.0,0.0,0.0,0.0,0.0,0.0,0.0,0.0,0.0,0.0,0.0,0.0,0.0,0.0,0.0,0.0,0.0,0.0,0.0,0.0,0.0,0.0,0.0,0.0,0.0,0.0,0.0,0.0,0.0,0.0,0.0,0.0,0.0,0.0,0.0,0.0,0.0,0.0,0.0,0.0,0.0,0.0,0.0,0.0,0.0,0.0,0.0,0.0,0.0,0.0,0.0,0.0,0.0,0.0,0.0,0.0,0.0,0.0,0.0,0.0,0.0,0.0,0.0,0.0,0.0,0.0,0.0,0.0,0.0,0.0,0.0,0.0,0.0,0.0,0.0,0.0,0.0,0.0,0.0,0.0,0.0,0.0,0.0,0.0,0.0,0.0,0.0,0.0,0.0,0.0,0.0,0.0,0.0,0.0,0.0,0.0,0.0,0.0,0.0,0.0,0.0,0.0,0.0,0.0,0.0,0.0,0.0,0.0,0.0,0.0,0.0,0.0,0.0,0.0,0.0,0.0,0.0,0.0,0.0,0.0,0.0,0.0,0.0,0.0,0.0,0.0,0.0,0.0,0.0,0.0,0.0,0.0,0.0,0.0,0.0,0.0,0.0,0.0,0.0,0.0,0.0,0.0,0.0,0.0,0.0,0.0,0.0,0.0,0.0,0.0,0.0,0.0,0.0,0.0,0.0,0.0,0.0,0.0,0.0,0.0,0.0,0.0,0.0,0.0,0.0,0.0,0.0,0.0,0.0,0.0,0.0,0.0,0.0,0.0,0.0,0.0,0.0,0.0,0.0,0.0,0.0,0.0,0.0,0.0,0.0,0.0,0.0,0.0,0.0,0.0,0.0,0.0,0.0,0.0,0.0,0.0,0.0,0.0,0.0,0.0,0.0,0.0,0.0,0.0,0.0,0.0,0.0,0.0,0.0,0.0,0.0,0.0,0.0,0.0,0.0,0.0,0.0,0.0,0.0,0.0,0.0,0.0,0.0,0.0,0.0,0.0,0.0,0.0,0.0,0.0,0.0,0.0,0.0,0.0,0.0,0.0,0.0,0.0,0.0,0.0,0.0,0.0,0.0,0.0,0.0,0.0,0.0,0.0,0.0,0.0,0.0,0.0,0.0,0.0,0.0,0.0,0.0,0.0,0.0,0.0,0.0,0.0,0.0,0.0,0.0,0.0,0.0,0.0,0.0,0.0,0.0,0.0,0.0,0.0,0.0,0.0,0.0,0.0,0.0,0.0,0.0,0.0,0.0,0.0,0.0,0.0,0.0,0.0,0.0,0.0,0.0,0.0,0.0,0.0,0.0,0.0,0.0,0.0,0.0,0.0,0.0,0.0,0.0,0.0,0.0,0.0,0.0,0.0,0.0,0.0,0.0,0.0,0.0,0.0,0.0,0.0,0.0,0.0,0.0,0.0,0.0,0.0,0.0,0.0,0.0,0.0,0.0,0.0,0.0,0.0,0.0,0.0,0.0,0.0,0.0,0.0,0.0,0.0,0.0,0.0,0.0,0.0,0.0,0.0,0.0,0.0,0.0,0.0,0.0,0.0,0.0,0.0,0.0,0.0,0.0,0.0,0.0,0.0,0.0,0.0,0.0,0.0,0.0,0.0,0.0,0.0,0.0,0.0,0.0,0.0,0.0,0.0,0.0,0.0,0.0,0.0,0.0,0.0,0.0,0.0,0.0,0.0,0.0,0.0,0.0,0.0,0.0,0.0,0.0,0.0,0.0,0.0,0.0,0.0,0.0,0.0,0.0,0.0,0.0,0.0,0.0,0.0,0.0,0.0,0.0,0.0,0.0,0.0,0.0,0.0,0.0,0.0,0.0,0.0,0.0,0.0,0.0,0.0,0.0,0.0,0.0,0.0,0.0,0.0,0.0,0.0,0.0,0.0,0.0,0.0,0.0,0.0,0.0,0.0,0.0,0.0,0.0,0.0,0.0,0.0,0.0,0.0,0.0,0.0,0.0,0.0,0.0,0.0,0.0,0.0,0.0,0.0,0.0,0.0,0.0,0.0,0.0,0.0,0.0,0.0,0.0,-0.1128,0.0,0.0,0.0,0.0,0.0,0.0,0.0,0.0,0.0,0.0,0.0,0.0,0.0,0.0,0.0,0.0,0.0,0.0,0.0,0.0,0.0,0.0,0.0,0.0,0.0,0.0,0.0,0.0,0.0,0.0,0.0,0.0,0.0,0.0,0.0,0.0,0.0,0.0,0.0,0.0,0.0,0.0,0.0,0.0,0.0,0.0,0.0,0.0,0.0,0.0,0.0,0.0,0.0,0.0,0.0,0.0,0.0,0.0,0.0,0.0,0.0,0.0,0.0,0.0,0.0,0.0,0.0,0.0,0.0,0.0,0.0,0.0,0.0,0.0,0.0,0.0,0.0,0.0,0.0,0.0,0.0,0.0,0.0,0.0,0.0,0.0,0.0,0.0,0.0,0.0,0.0,0.0,0.0,0.0,0.0,0.0,0.0,0.0,0.0,0.0,0.0,0.0,0.0,0.0,0.0,0.0,0.0,0.0,0.0,0.0,-0.1344,-0.1157,-0.088,-0.0773,-0.0875,0.0,0.0,0.0,0.0,0.0,0.0,0.0,0.0,0.0,0.0,0.0,0.0,0.0,0.0,0.0,0.0,0.0,0.0,0.0,0.0,0.0,0.0,0.0,0.0,0.0,0.0,0.0,0.0,0.0,0.0,0.0,0.0,0.0,0.0,0.0,0.0,0.0,0.0,0.0,0.0,0.0,0.0,0.0,0.0,0.0,0.0,0.0,0.0,0.0,0.0,0.0,0.0,0.0,0.0,0.0,0.0,0.0,0.0,0.0,0.0,0.0,0.0,0.0,0.0,0.0,0.0,0.0,0.0,0.0,0.0,0.0,0.0,0.0,0.0,0.0,0.0,0.0,0.0,0.0,0.0,0.0,0.0,0.0,0.0,0.0,0.0,0.0,0.0,0.0,0.0,0.0,0.0,0.0,0.0,0.0,0.0,0.0,0.0,0.0,0.0,0.0,0.0,0.0,0.0,0.0,0.0,0.0,0.0,0.0,0.0,0.0,0.0,-0.0526,-0.0515,-0.0676,0.0,0.0,0.0,0.0,0.0,0.0,0.0,0.0,0.0,0.0,0.0,0.0,0.0,0.0,0.0,0.0,0.0,0.0,0.0,0.0,0.0,0.0,0.0,0.0,0.0,0.0,0.0,0.0,0.0,0.0,0.0,0.0,0.0,0.0,0.0,0.0,0.0,0.0,0.0,0.0,0.0,0.0,0.0,0.0,0.0,0.0,0.0,0.0,0.0,0.0,0.0,0.0,0.0,0.0,0.0,0.0,0.0,0.0,0.0,0.0,0.0,0.0,0.0,0.0,0.0,0.0,0.0,0.0,0.0,0.0,0.0,0.0,0.0,0.0,0.0,0.0,0.0,0.0,0.0,0.0,0.0,0.0,0.0,0.0,0.0,0.0,0.0,0.0,0.0,0.0,0.0,0.0,0.0,0.0,0.0,0.0,0.0,0.0,0.0,0.0,0.0,0.0,0.0,0.0,0.0,0.0,0.0,0.0,0.0,0.0,-0.0201,0.0552,0.034,0.0,-0.0451,0.0,0.0,0.0,0.0,0.0,0.0,0.0,0.0,0.0,0.0,0.0,0.0,0.0,0.0,0.0,0.0,0.0,0.0,0.0,0.0,0.0,0.0,0.0,0.0,0.0,0.0,0.0,0.0,0.0,0.0,0.0,0.0,0.0,0.0,0.0,0.0,0.0,0.0,0.0,0.0,0.0,0.0,0.0,0.0,0.0,0.0,0.0,0.0,0.0,0.0,0.0,0.0,0.0,0.0,0.0,0.0,0.0,0.0,0.0,0.0,0.0,0.0,0.0,0.0,0.0,0.0,0.0,0.0,0.0,0.0,0.0,0.0,0.0,0.0,0.0,0.0,0.0,0.0,0.0,0.0,0.0,0.0,0.0,0.0,0.0,0.0,0.0,0.0,0.0,0.0,0.0,0.0,0.0,0.0,0.0,0.0,0.0,0.0,0.0,0.0,0.0,0.0,0.0,0.0,0.0,0.0,0.0,0.0,0.0,0.0,0.0573,0.099,0.0837,0.0663,0.0,0.0,0.0,0.0,0.0,0.0,0.0,0.0,0.0,0.0,0.0,0.0,0.0,0.0,0.0,0.0,0.0,0.0,0.0,0.0,0.0,0.0,0.0,0.0,0.0,0.0,0.0,0.0,0.0,0.0,0.0,0.0,0.0,0.0,0.0,0.0,0.0,0.0,0.0,0.0,0.0,0.0,0.0,0.0,0.0,0.0,0.0,0.0,0.0,0.0,0.0,0.0,0.0,0.0,0.0,0.0,0.0,0.0,0.0,0.0,0.0,0.0,0.0,0.0,0.0,0.0,0.0,0.0,0.0,0.0,0.0,0.0,0.0,0.0,0.0,0.0,0.0,0.0,0.0,0.0,0.0,0.0,0.0,0.0,0.0,0.0,0.0,0.0,0.0,0.0,0.0,0.0,0.0,0.0,0.0,0.0,0.0,0.0,0.0,0.0,0.0,0.0,0.0,0.0,0.0,0.0,0.0,0.0,0.0,0.0,0.0806,0.1397,0.1646,0.1502,0.1299,0.1141,0.0,0.0,0.0,0.0,0.0,0.0,0.0,0.0,0.0,0.0,0.0,0.0,0.0,0.0,0.0,0.0,0.0,0.0,0.0,0.0,0.0,0.0,0.0,0.0,0.0,0.0,0.0,0.0,0.0,0.0,0.0,0.0,0.0,0.0,0.0,0.0,0.0,0.0,0.0,0.0,0.0,0.0,0.0,0.0,0.0,0.0,0.0,0.0,0.0,0.0,0.0,0.0,0.0,0.0,0.0,0.0,0.0,0.0,0.0,0.0,0.0,0.0,0.0,0.0,0.0,0.0,0.0,0.0,0.0,0.0,0.0,0.0,0.0,0.0,0.0,0.0,0.0,0.0,0.0,0.0,0.0,0.0,0.0,0.0,0.0,0.0,0.0,0.0,0.0,0.0,0.0,0.0,0.0,0.0,0.0,0.0,0.0,0.0,0.0,0.0,0.0,0.0,0.0,0.0,0.0,0.0,0.0,0.0,0.0426,0.1537,0.2309,0.2817,0.2407,0.1924,0.0,0.0,0.0,0.0,0.0,0.0,0.0,0.0,0.0,0.0,0.0,0.0,0.0,0.0,0.0,0.0,0.0,0.0,0.0,0.0,0.0,0.0,0.0,0.0,0.0,0.0,0.0,0.0,0.0,0.0,0.0,0.0,0.0,0.0,0.0,0.0,0.0,0.0,0.0,0.0,0.0,0.0,0.0,0.0,0.0,0.0,0.0,0.0,0.0,0.0,0.0,0.0,0.0,0.0,0.0,0.0,0.0,0.0,0.0,0.0,0.0,0.0,0.0,0.0,0.0,0.0,0.0,0.0,0.0,0.0,0.0,0.0,0.0,0.0,0.0,0.0,0.0,0.0,0.0,0.0,0.0,0.0,0.0,0.0,0.0,0.0,0.0,0.0,0.0,0.0,0.0,0.0,0.0,0.0,0.0,0.0,0.0,0.0,0.0,0.0,0.0,0.0,0.0,0.0,0.0,0.0,0.0,0.0,0.0,0.1482,0.2991,0.3929,0.4257,0.3801,0.3054,0.0,0.0,0.0,0.0,0.0,0.0,0.0,0.0,0.0,0.0,0.0,0.0,0.0,0.0,0.0,0.0,0.0,0.0,0.0,0.0,0.0,0.0,0.0,0.0,0.0,0.0,0.0,0.0,0.0,0.0,0.0,0.0,0.0,0.0,0.0,0.0,0.0,0.0,0.0,0.0,0.0,0.0,0.0,0.0,0.0,0.0,0.0,0.0,0.0,0.0,0.0,0.0,0.0,0.0,0.0,0.0,0.0,0.0,0.0,0.0,0.0,0.0,0.0,0.0,0.0,0.0,0.0,0.0,0.0,0.0,0.0,0.0,0.0,0.0,0.0,0.0,0.0,0.0,0.0,0.0,0.0,0.0,0.0,0.0,0.0,0.0,0.0,0.0,0.0,0.0,0.0,0.0,0.0,0.0,0.0,0.0,0.0,0.0,0.0,0.0,0.0,0.0,0.0,0.0,0.0,0.0,0.0,0.0,0.0,0.3843,0.0,0.5538,0.586,0.5194,0.4291,0.0,0.0,0.0,0.0,0.0,0.0,0.0,0.0,0.0,0.0,0.0,0.0,0.0,0.0,0.0,0.0,0.0,0.0,0.0,0.0,0.0,0.0,0.0,0.0,0.0,0.0,0.0,0.0,0.0,0.0,0.0,0.0,0.0,0.0,0.0,0.0,0.0,0.0,0.0,0.0,0.0,0.0,0.0,0.0,0.0,0.0,0.0,0.0,0.0,0.0,0.0,0.0,0.0,0.0,0.0,0.0,0.0,0.0,0.0,0.0,0.0,0.0,0.0,0.0,0.0,0.0,0.0,0.0,0.0,0.0,0.0,0.0,0.0,0.0,0.0,0.0,0.0,0.0,0.0,0.0,0.0,0.0,0.0,0.0,0.0,0.0,0.0,0.0,0.0,0.0,0.0,0.0,0.0,0.0,0.0,0.0,0.0,0.0,0.0,0.0,0.0,0.0,0.0,0.0,0.0,0.0,0.0,0.0,0.2145,0.7546,0.7139,0.7042,0.7481,0.6561,0.5572,0.0,0.0,0.0,0.0,0.0,0.0,0.0,0.0,0.0,0.0,0.0,0.0,0.0,0.0,0.0,0.0,0.0,0.0,0.0,0.0,0.0,0.0,0.0,0.0,0.0,0.0,0.0,0.0,0.0,0.0,0.0,0.0,0.0,0.0,0.0,0.0,0.0,0.0,0.0,0.0,0.0,0.0,0.0,0.0,0.0,0.0,0.0,0.0,0.0,0.0,0.0,0.0,0.0,0.0,0.0,0.0,0.0,0.0,0.0,0.0,0.0,0.0,0.0,0.0,0.0,0.0,0.0,0.0,0.0,0.0,0.0,0.0,0.0,0.0,0.0,0.0,0.0,0.0,0.0,0.0,0.0,0.0,0.0,0.0,0.0,0.0,0.0,0.0,0.0,0.0,0.0,0.0,0.0,0.0,0.0,0.0,0.0,0.0,0.0,0.0,0.0,0.0,0.0,0.0,0.0,0.0,0.0,0.0,0.0,0.9179,0.8758,0.8626,0.8915,0.813,0.712,0.0,0.0,0.0,0.0,0.0,0.0,0.0,0.0,0.0,0.0,0.0,0.0,0.0,0.0,0.0,0.0,0.0,0.0,0.0,0.0,0.0,0.0,0.0,0.0,0.0,0.0,0.0,0.0,0.0,0.0,0.0,0.0,0.0,0.0,0.0,0.0,0.0,0.0,0.0,0.0,0.0,0.0,0.0,0.0,0.0,0.0,0.0,0.0,0.0,0.0,0.0,0.0,0.0,0.0,0.0,0.0,0.0,0.0,0.0,0.0,0.0,0.0,0.0,0.0,0.0,0.0,0.0,0.0,0.0,0.0,0.0,0.0,0.0,0.0,0.0,0.0,0.0,0.0,0.0,0.0,0.0,0.0,0.0,0.0,0.0,0.0,0.0,0.0,0.0,0.0,0.0,0.0,0.0,0.0,0.0,0.0,0.0,0.0,0.0,0.0,0.0,0.0,0.0,0.0,0.0,0.0,0.0,0.0,0.0,1.0801,1.0272,1.0084,1.0415,0.9673,0.8539,0.7047,0.0,0.0,0.0,0.0,0.0,0.0,0.0,0.0,0.0,0.0,0.0,0.0,0.0,0.0,0.0,0.0,0.0,0.0,0.0,0.0,0.0,0.0,0.0,0.0,0.0,0.0,0.0,0.0,0.0,0.0,0.0,0.0,0.0,0.0,0.0,0.0,0.0,0.0,0.0,0.0,0.0,0.0,0.0,0.0,0.0,0.0,0.0,0.0,0.0,0.0,0.0,0.0,0.0,0.0,0.0,0.0,0.0,0.0,0.0,0.0,0.0,0.0,0.0,0.0,0.0,0.0,0.0,0.0,0.0,0.0,0.0,0.0,0.0,0.0,0.0,0.0,0.0,0.0,0.0,0.0,0.0,0.0,0.0,0.0,0.0,0.0,0.0,0.0,0.0,0.0,0.0,0.0,0.0,0.0,0.0,0.0,0.0,0.0,0.0,0.0,0.0,0.0,0.0,0.0,0.0,0.0,0.0,0.0,1.251,1.1805,1.1584,1.1864,1.1074,0.9794,0.0,0.0,0.0,0.0,0.0,0.0,0.0,0.0,0.0,0.0,0.0,0.0,0.0,0.0,0.0,0.0,0.0,0.0,0.0,0.0,0.0,0.0,0.0,0.0,0.0,0.0,0.0,0.0,0.0,0.0,0.0,0.0,0.0,0.0,0.0,0.0,0.0,0.0,0.0,0.0,0.0,0.0,0.0,0.0,0.0,0.0,0.0,0.0,0.0,0.0,0.0,0.0,0.0,0.0,0.0,0.0,0.0,0.0,0.0,0.0,0.0,0.0,0.0,0.0,0.0,0.0,0.0,0.0,0.0,0.0,0.0,0.0,0.0,0.0,0.0,0.0,0.0,0.0,0.0,0.0,0.0,0.0,0.0,0.0,0.0,0.0,0.0,0.0,0.0,0.0,0.0,0.0,0.0,0.0,0.0,0.0,0.0,0.0,0.0,0.0,0.0,0.0,0.0,0.0,0.0,0.0,0.0,0.0,0.0,1.3181,1.4055,1.3987,1.3035,1.2479,1.1243,0.0,0.0,0.0,0.0,0.0,0.0,0.0,0.0,0.0,0.0,0.0,0.0,0.0,0.0,0.0,0.0,0.0,0.0,0.0,0.0,0.0,0.0,0.0,0.0,0.0,0.0,0.0,0.0,0.0,0.0,0.0,0.0,0.0,0.0,0.0,0.0,0.0,0.0,0.0,0.0,0.0,0.0,0.0,0.0,0.0,0.0,0.0,0.0,0.0,0.0,0.0,0.0,0.0,0.0,0.0,0.0,0.0,0.0,0.0,0.0,0.0,0.0,0.0,0.0,0.0,0.0,0.0,0.0,0.0,0.0,0.0,0.0,0.0,0.0,0.0,0.0,0.0,0.0,0.0,0.0,0.0,0.0,0.0,0.0,0.0,0.0,0.0,0.0,0.0,0.0,0.0,0.0,0.0,0.0,0.0,0.0,0.0,0.0,0.0,0.0,0.0,0.0,0.0,0.0,0.0,0.0,0.0,0.0,1.1541,1.3981,1.5708,1.6124,1.5145,1.4144,1.2599,0.0,0.0,0.0,0.0,0.0,0.0,0.0,0.0,0.0,0.0,0.0,0.0,0.0,0.0,0.0,0.0,0.0,0.0,0.0,0.0,0.0,0.0,0.0,0.0,0.0,0.0,0.0,0.0,0.0,0.0,0.0,0.0,0.0,0.0,0.0,0.0,0.0,0.0,0.0,0.0,0.0,0.0,0.0,0.0,0.0,0.0,0.0,0.0,0.0,0.0,0.0,0.0,0.0,0.0,0.0,0.0,0.0,0.0,0.0,0.0,0.0,0.0,0.0,0.0,0.0,0.0,0.0,0.0,0.0,0.0,0.0,0.0,0.0,0.0,0.0,0.0,0.0,0.0,0.0,0.0,0.0,0.0,0.0,0.0,0.0,0.0,0.0,0.0,0.0,0.0,0.0,0.0,0.0,0.0,0.0,0.0,0.0,0.0,0.0,0.0,0.0,0.0,0.0,0.0,0.0,0.0,0.0,0.0,1.2516,1.4746,1.6919,1.7888,1.7629,1.5957,1.388,0.0,0.0,0.0,0.0,0.0,0.0,0.0,0.0,0.0,0.0,0.0,0.0,0.0,0.0,0.0,0.0,0.0,0.0,0.0,0.0,0.0,0.0,0.0,0.0,0.0,0.0,0.0,0.0,0.0,0.0,0.0,0.0,0.0,0.0,0.0,0.0,0.0,0.0,0.0,0.0,0.0,0.0,0.0,0.0,0.0,0.0,0.0,0.0,0.0,0.0,0.0,0.0,0.0,0.0,0.0,0.0,0.0,0.0,0.0,0.0,0.0,0.0,0.0,0.0,0.0,0.0,0.0,0.0,0.0,0.0,0.0,0.0,0.0,0.0,0.0,0.0,0.0,0.0,0.0,0.0,0.0,0.0,0.0,0.0,0.0,0.0,0.0,0.0,0.0,0.0,0.0,0.0,0.0,0.0,0.0,0.0,0.0,0.0,0.0,0.0,0.0,0.0,0.0,0.0,0.0,0.0,0.0,0.0,1.3323,1.5803,1.7733,1.8769,1.8961,1.719,1.4882,0.0,0.0,0.0,0.0,0.0,0.0,0.0,0.0,0.0,0.0,0.0,0.0,0.0,0.0,0.0,0.0,0.0,0.0,0.0,0.0,0.0,0.0,0.0,0.0,0.0,0.0,0.0,0.0,0.0,0.0,0.0,0.0,0.0,0.0,0.0,0.0,0.0,0.0,0.0,0.0,0.0,0.0,0.0,0.0,0.0,0.0,0.0,0.0,-0.0337,0.0,0.0,0.0,0.0,0.0,0.0,0.0,0.0,0.0,0.0,0.0,0.0,0.0,0.0,0.0,0.0,0.0,0.0,0.0,0.0,0.0,0.0,0.0,0.0,0.0,0.0,0.0,0.0,0.0,0.0,0.0,0.0,0.0,0.0,0.0,0.0,0.0,0.0,0.0,0.0,0.0,0.0,0.0,0.0,0.0,0.0,0.0,0.0,0.0,0.0,0.0,0.0,0.0,0.0,0.0,0.0,0.0,0.0,0.0,1.4098,1.661,1.8367,1.9331,1.954,1.806,1.5892,0.0,0.0,0.0,0.0,0.0,0.0,0.0,0.0,0.0,0.0,0.0,0.0,0.0,0.0,0.0,0.0,0.0,0.0,0.0,0.0,0.0,0.0,0.0,0.0,0.0,0.0,0.0,0.0,0.0,0.0,0.0,0.0,0.0,0.0,0.0,0.0,0.0,0.0,0.0,0.0,0.0,0.0,0.0,0.0,0.0,0.0,0.0,0.0,0.0,0.0,0.0,0.0,0.0,0.0,0.0,0.0,0.0,0.0,0.0,0.0,0.0,0.0,0.0,0.0,0.0,0.0,0.0,0.0,0.0,0.0,0.0,0.0,0.0,0.0,0.0,0.0,0.0,0.0,0.0,0.0,0.0,0.0,0.0,0.0,0.0,0.0,0.0,0.0,0.0,0.0,0.0,0.0,0.0,0.0,0.0,0.0,0.0,0.0,0.0,0.0,0.0,0.0,0.0,0.0,0.0,0.0,0.0,1.1976,1.4722,1.7151,1.8766,1.9604,1.9695,1.8573,1.6666,1.4044,0.0,0.0,0.0,0.0,0.0,0.0,0.0,0.0,0.0,0.0,0.0,0.0,0.0,0.0,0.0,0.0,0.0,0.0,0.0,0.0,0.0,0.0,0.0,0.0,0.0,0.0,0.0,0.0,0.0,0.0,0.0,0.0,0.0,0.0,0.0,0.0,0.0,0.0,-0.0509,0.05,0.0,0.0,0.0,0.0,0.0,0.0,0.0,0.0,0.2219,0.0,0.0,0.0,0.0,0.0,0.0,0.0,0.0,0.0,0.0,0.0,0.0,0.0,0.0,0.0,0.0,0.0,0.0,0.0,0.0,0.0,0.0,0.0,0.0,0.0,0.0,0.0,0.0,0.0,0.0,0.0,0.0,0.0,0.0,0.0,0.0,0.0,0.0,0.0,0.0,0.0,0.0,0.0,0.0,0.0,0.0,0.0,0.0,0.0,0.0,0.0,0.0,0.0,0.0,0.0,0.0,0.9377,1.2083,1.4689,1.7133,1.8686,1.9473,1.942,1.8317,1.6605,1.4292,0.0,0.0,0.0,0.0,0.0,0.0,0.0,0.0,0.0,0.0,0.0,0.0,0.0,0.0,0.0,0.0,0.0,0.0,0.0,0.0,0.0,0.0,0.0,0.0,0.0,0.0,0.0,0.0,0.0,0.0,0.0,0.0,0.0,0.0,0.0,0.0,0.0,0.0,0.0,0.2229,0.287,0.0,0.0,0.0,0.0,0.0,0.0,0.0,0.0,0.2579,0.0,0.0,0.0,0.0,0.0,0.0,0.0,0.0,0.0,0.0,0.0,0.0,0.0,0.0,0.0,0.0,0.0,0.0,0.0,0.0,0.0,0.0,0.0,0.0,0.0,0.0,0.0,0.0,0.0,0.0,0.0,0.0,0.0,0.0,0.0,0.0,0.0,0.0,0.0,0.0,0.0,0.0,0.0,0.0,0.0,0.0,0.0,0.0,0.0,0.0,0.0,0.0,0.0,0.0,0.0,0.9827,1.2494,1.5012,1.7455,1.866,1.9303,1.9303,1.8112,1.6423,0.0,0.0,0.0,0.0,0.0,0.0,0.0,0.0,0.0,0.0,0.0,0.0,0.0,0.0,0.0,0.0,0.0,0.0,0.0,0.0,0.0,0.0,0.0,0.0,0.0,0.0,0.0,0.0,0.0,0.0,0.0,0.0,0.0,0.0,0.0,0.0,0.0,0.0,0.0,0.0,0.3168,0.3794,0.3967,0.0,0.0,0.0,0.0,0.0,0.0,0.3478,0.3288,0.0,0.0,0.0,0.0,0.0,0.0,0.0,0.0,0.0,0.0,0.0,0.0,0.0,0.0,0.0,0.0,0.0,0.0,0.0,0.0,0.0,0.0,0.0,0.0,0.0,0.0,0.0,0.0,0.0,0.0,0.0,0.0,0.0,0.0,0.0,0.0,0.0,0.0,0.0,0.0,0.0,0.0,0.0,0.0,0.0,0.0,0.0,0.0,0.0,0.0,0.0,0.0,0.0,0.0,0.0,1.018,1.2716,1.5235,1.7577,1.8566,1.9016,1.9069,1.7907,1.6218,0.0,0.0,0.0,0.0,0.0,0.0,0.0,0.0,0.0,0.0,0.0,0.0,0.0,0.0,0.0,0.0,0.0,0.0,0.0,0.0,0.0,0.0,0.0,0.0,0.0,0.0,0.0,0.0,0.0,0.0,0.0,0.0,0.0,0.0,0.0,0.0,0.0,0.0,0.0,0.0,0.0,0.4504,0.4916,0.5081,0.0,0.0,0.0,0.0,0.4489,0.4292,0.0,0.0,0.0,0.0,0.0,0.0,0.0,0.0,0.0,0.0,0.0,0.0,0.0,0.0,0.0,0.0,0.0,0.0,0.0,0.0,0.0,0.0,0.0,0.0,0.0,0.0,0.0,0.0,0.0,0.0,0.0,0.0,0.0,0.0,0.0,0.0,0.0,0.0,0.0,0.0,0.0,0.0,0.0,0.0,0.0,0.0,0.0,0.0,0.0,0.0,0.0,0.0,0.0,0.0,0.0,0.0,1.0151,1.2516,1.4863,1.7169,1.7995,1.8494,1.8655,1.7357,1.5648,0.0,0.0,0.0,0.0,0.0,0.0,0.0,0.0,0.0,0.0,0.0,0.0,0.0,0.0,0.0,0.0,0.0,0.0,0.0,0.0,0.0,0.0,0.0,0.0,0.0,0.0,0.0,0.0,0.0,0.0,0.0,0.0,0.0,0.0,0.0,0.0,0.0,0.0,0.0,0.0,0.0,0.5118,0.5898,0.5734,0.5617,0.0,0.0,0.5226,0.5024,0.4758,0.0,0.0,0.0,0.0,0.0,0.0,0.0,0.0,0.0,0.0,0.0,0.0,0.0,0.0,0.0,0.0,0.0,0.0,0.0,0.0,0.0,0.0,0.0,0.0,0.0,0.0,0.0,0.0,0.0,0.0,0.0,0.0,0.0,0.0,0.0,0.0,0.0,0.0,0.0,0.0,0.0,0.0,0.0,0.0,0.0,0.0,0.0,0.0,0.0,0.0,0.0,0.0,0.0,0.0,0.0,0.7427,1.0282,1.2605,1.5003,1.7402,1.807,1.8566,1.9022,1.746,1.5753,0.0,0.0,0.0,0.0,0.0,0.0,0.0,0.0,0.0,0.0,0.0,0.0,0.0,0.0,0.0,0.0,0.0,0.0,0.0,0.0,0.0,0.0,0.0,0.0,0.0,0.0,0.0,0.0,0.0,0.0,0.0,0.0,0.0,0.0,0.0,0.0,0.0,0.0,0.0,0.0,0.0,0.0,0.6137,0.6226,0.0,0.0,0.0,0.5859,0.5634,0.0,0.0,0.0,0.0,0.0,0.0,0.0,0.0,0.0,0.0,0.0,0.0,0.0,0.0,0.0,0.0,0.0,0.0,0.0,0.0,0.0,0.0,0.0,0.0,0.0,0.0,0.0,0.0,0.0,0.0,0.0,0.0,0.0,0.0,0.0,0.0,0.0,0.0,0.0,0.0,0.0,0.0,0.0,0.0,0.0,0.0,0.0,0.0,0.0,0.0,0.0,0.0,0.0,0.0,0.0,0.0,0.0,1.0239,1.2759,1.516,1.7376,1.8112,1.8647,1.9112,1.7462,0.0,0.0,0.0,0.0,0.0,0.0,0.0,0.0,0.0,0.0,0.0,0.0,0.0,0.0,0.0,0.0,0.0,0.0,0.0,0.0,0.0,0.0,0.0,0.0,0.0,0.0,0.0,0.109,0.0,0.0,0.0,0.0,0.0,0.0,0.0,0.0,0.0,0.0,0.0,0.0,0.0,0.0,0.5547,0.6078,0.6427,0.6537,0.0,0.0,0.6193,0.5933,0.5395,0.4711,0.0,0.0,0.0,0.0,0.0,0.0,0.0,0.0,0.0,0.0,0.0,0.0,0.0,0.0,0.0,0.0,0.0,0.0,0.0,0.0,0.0,0.0,0.0,0.0,0.0,0.0,0.0,0.0,0.0,0.0,0.0,0.0,0.0,0.0,0.0,0.0,0.0,0.0,0.0,0.0,0.0,0.0,0.0,0.0,0.0,0.0,0.0,0.0,0.0,0.0,0.0,0.0,0.0,0.0,0.0,0.992,1.2891,1.5158,1.6816,1.7853,1.8462,1.8643,1.686,1.5161,0.0,0.0,0.0,0.0,0.0,0.0,0.0,0.0,0.0,0.0,0.0,0.0,0.0,0.0,0.0,0.0,0.0,0.0,0.0,0.0,0.0,0.0,0.0,0.0,0.0,0.0,0.0,0.0,0.0,0.0,0.0,0.0,0.0,0.0,0.0,0.0,0.0,0.0,0.0,0.0,0.0,0.5283,0.5971,0.625,0.6358,0.0,0.0,0.5946,0.5789,0.5182,0.4469,0.3554,0.0,0.0,0.0,0.0,0.0,0.0,0.0,0.0,0.0,0.0,0.0,0.0,0.0,0.0,0.0,0.0,0.0,0.0,0.0,0.0,0.0,0.0,0.0,0.0,0.0,0.0,0.0,0.0,0.0,0.0,0.0,0.0,0.0,0.0,0.0,0.0,0.0,0.0,0.0,0.0,0.0,0.0,0.0,0.0,0.0,0.0,0.0,0.0,0.0,0.0,0.0,0.0,0.0,0.7777,1.0441,1.2838,1.5114,1.7229,1.7893,1.8438,1.8913,1.7234,1.5651,0.0,0.0,0.0,0.0,0.0,0.0,0.0,0.0,0.0,0.0,0.0,0.0,0.0,0.0,0.0,0.0,0.0,0.0,0.0,0.0,0.0,0.0,0.0,0.0,0.0,0.0,0.0,0.0,0.1805,0.1832,0.1741,0.0,0.0,0.0,0.0,0.0,0.0,0.0,0.0,0.0,0.0,0.4984,0.5416,0.5844,0.0,0.0,0.5868,0.5591,0.5282,0.4646,0.3996,0.3447,0.2567,0.0,0.0,0.0,0.0,0.0,0.0,0.0,0.0,0.0,0.0,0.0,0.0,0.0,0.0,0.0,0.0,0.0,0.0,0.0,0.0,0.0,0.0,0.0,0.0,0.0,0.0,0.0,0.0,0.0,0.0,0.0,0.0,0.0,0.0,0.0,0.0,0.0,0.0,0.0,0.0,0.0,0.0,0.0,0.0,0.0,0.0,0.0,0.0,0.0,0.0,0.0,0.0,0.806,1.0653,1.2936,1.5201,1.7285,1.7855,1.8415,1.8777,1.7283,1.5788,0.0,0.0,0.0,0.0,0.0,0.0,0.0,0.0,0.0,0.0,0.0,0.0,0.0,0.0,0.0,0.0,0.0,0.0,0.0,0.0,0.0,0.0,0.0,0.0,0.0,0.0,0.0,0.0,0.1989,0.1959,0.1627,0.0,0.0,0.0,0.0,0.0,0.0,0.0,0.0,0.0,0.0,0.4539,0.4692,0.5253,0.5563,0.5333,0.518,0.4974,0.4741,0.4176,0.3511,0.2885,0.0,0.0,0.0,0.0,0.0,0.0,0.0,0.0,0.0,0.0,0.0,0.0,0.0,0.0,0.0,0.0,0.0,0.0,0.0,0.0,0.0,0.0,0.0,0.0,0.0,0.0,0.0,0.0,0.0,0.0,-0.9356,0.0,0.0,0.0,0.0,0.0,0.0,0.0,0.0,0.0,0.0,0.0,0.0,0.0,0.0,0.0,0.0,0.0,0.0,0.0,0.0,0.0,0.0,0.8451,1.0296,1.3194,1.5273,1.6618,1.7687,1.8317,1.8259,1.69,1.551,1.4191,0.0,0.0,0.0,0.0,0.0,0.0,0.0,0.0,0.0,0.0,0.0,0.0,0.0,0.0,0.0,0.0,0.0,0.0,0.0,0.0,0.0,0.0,0.0,0.0,0.0,0.0,0.2162,0.228,0.2085,0.0,0.0,0.0,0.0,0.0,0.0,0.0,0.0,0.0,0.0,0.3364,0.3922,0.3927,0.4394,0.4688,0.4455,0.4073,0.3999,0.4467,0.3768,0.2874,0.0,0.0,0.0,0.0,0.0,0.0,0.0,0.0,0.0,0.0,0.0,0.0,0.0,0.0,0.0,0.0,0.0,0.0,0.0,0.0,0.0,0.0,0.0,0.0,0.0,0.0,0.0,-0.9456,-0.9265,0.0,0.0,0.0,0.0,0.0,0.0,0.0,0.0,0.0,0.0,0.0,0.4571,0.449,0.0,0.0,0.0,0.0,0.0,0.0,0.0,0.0,0.0,0.0,0.0,0.0,0.8981,1.1032,1.3248,1.5095,1.6533,1.7229,1.7579,1.7579,1.6615,1.4952,1.2607,0.0,0.0,0.0,0.0,0.0,0.0,0.0,0.0,0.0,0.0,0.0,0.0,0.0,0.0,0.0,0.0,0.0,0.0,0.0,0.0,0.0,0.0,0.0,0.0,0.0,0.1856,0.0,0.0,0.0,0.0,0.0,0.0,0.0,0.0,0.0,0.0,0.0,0.1491,0.1983,0.2619,0.3118,0.3172,0.3665,0.3999,0.0,0.0,0.0,0.0,0.0,0.0,0.0,0.0,0.0,0.0,0.0,0.0,0.0,0.0,-0.2344,-0.1959,-0.1944,-0.2083,-0.2065,0.0,0.0,0.0,0.0,0.0,0.0,0.0,0.0,0.0,0.0,0.0,0.0,0.0,0.0,0.0,0.0,-0.7583,0.0,0.0,0.0,0.0,0.0,0.0,0.0,0.0,0.3484,0.5274,0.6874,0.6785,0.6853,0.0,0.6906,0.6186,0.0,0.0,0.0,0.0,0.0,0.0,0.0,0.0,0.951,1.1397,1.339,1.513,1.6448,1.7097,1.7303,1.7232,1.618,1.441,1.2011,1.0382,0.8819,0.0,0.0,0.0,0.0,0.0,0.0,0.0,0.0,0.0,0.0,0.0,0.0,0.0,0.0,0.0,0.0,0.0,0.0,0.0,0.0,0.0,0.0,0.0,0.188,0.0,0.0,0.0,0.0,0.0,0.0,0.0,0.0,0.0,0.0285,0.0859,0.1314,0.1584,0.2058,0.2312,0.2115,0.0,0.0,0.0,0.0,0.0,0.0,0.0,-0.039,-0.0768,-0.1379,-0.1907,-0.2252,-0.2352,-0.2467,-0.2504,0.0,0.0,-0.201,-0.2069,-0.2138,-0.212,-0.2188,-0.2261,-0.2261,-0.2261,-0.2195,0.0,0.0,0.0,0.0,0.0,0.0,0.0,0.0,-0.7114,-0.6318,0.0,-0.5173,0.0,0.0,0.0,0.0,0.0,0.0,0.0,0.0,0.6506,0.7946,0.825,0.8655,0.9073,0.9486,0.9064,0.8724,0.835,0.5937,0.0,0.0,0.0,0.0,0.0,0.0,1.0069,1.1494,1.3704,1.538,1.6289,1.7134,1.7561,1.7252,1.5565,1.3903,1.2338,1.0736,0.9358,0.8263,0.6538,0.0,0.0,0.0,0.0,0.0,0.0,0.0,0.0,0.0,0.0,0.0,0.0,0.0,0.0,0.0,0.0,0.0,0.0,0.0,0.0,0.1796,0.0,0.0,0.0,0.0,0.0,0.0,0.0,0.0,0.0,0.0,-0.0292,0.0671,0.1212,0.1137,0.0,0.0,0.0,0.0,0.1018,0.0392,0.0078,-0.0157,-0.047,-0.094,-0.1645,-0.2352,0.0,0.0,-0.2824,-0.2824,-0.2744,-0.2588,-0.2353,-0.2257,-0.2435,-0.2347,-0.2331,-0.2283,-0.2276,-0.2343,-0.2343,-0.2353,-0.2365,-0.0083,0.0,0.0,0.0,0.0,-0.3943,-0.3553,-0.3071,-0.2852,-0.2617,-0.2208,-0.2439,0.0,0.0,0.0,0.0,0.0,0.0,0.4207,0.6861,0.7843,0.8652,0.953,1.0131,1.0468,1.0538,1.0468,1.0222,0.9791,0.8909,0.7778,0.6257,0.0,0.0,0.0,0.0,1.0971,1.2479,1.3957,1.5134,1.597,1.6388,1.637,1.5904,1.4819,1.3635,1.2447,1.0952,0.9678,0.8676,0.7072,0.0,0.0,0.0,0.0,0.0,0.0,0.0,0.0,0.0,0.0,0.0,0.0,0.0,0.0,0.0,0.0,0.0,0.0,0.0,0.207,0.1939,0.1881,0.0,0.0,0.0,0.0,0.0,0.0,0.0,0.0,0.0,-0.123,-0.0457,0.0152,0.0,0.0,0.0235,0.0079,-0.0078,-0.0392,-0.0784,-0.1411,0.0,0.0,-0.2273,-0.251,-0.2899,-0.3292,-0.3528,-0.3292,-0.3294,-0.3136,-0.2981,-0.2902,-0.2896,-0.2879,-0.2563,-0.2245,-0.2233,-0.2382,-0.2459,-0.2614,-0.2614,-0.2697,0.2001,0.0257,-0.0841,-0.1336,-0.1421,-0.0842,-0.0254,0.0424,0.1112,0.1116,0.0686,0.0425,0.017,-0.0169,0.0252,0.0,0.0,0.0,0.5954,0.8336,0.8897,0.9704,1.0757,1.1311,1.1566,1.1702,1.156,1.1404,1.1233,1.081,0.9948,0.8743,0.0,0.0,0.9518,1.0627,1.1806,1.3094,1.4238,1.5091,1.5896,1.611,1.5795,1.5027,1.4489,1.3632,1.2387,1.1282,1.0174,0.9129,0.7721,0.6412,0.0,0.0,0.0,0.0,0.0,0.0,0.0,0.0,0.0,0.0,0.0,0.0905,0.0,0.0,0.0,0.0,0.1734,0.1979,0.2221,0.1926,0.0,0.0,0.0,0.0,0.0,0.0,0.0,-0.1383,-0.1402,-0.1493,-0.1729,-0.1396,-0.1004,-0.0784,-0.1021,-0.1177,-0.1177,0.0,-0.1726,-0.1958,-0.2429,-0.2823,-0.3217,-0.3295,-0.3372,-0.3602,-0.3839,-0.3995,-0.3915,-0.3761,-0.3606,-0.353,-0.3374,-0.3217,-0.3294,-0.2902,-0.2588,-0.2588,-0.2668,-0.2746,-0.2904,-0.2926,-0.3102,0.3235,0.2774,0.1547,0.1014,0.11,0.181,0.2437,0.3144,0.4372,0.441,0.3409,0.3172,0.2797,0.2443,0.3077,0.0,0.4619,0.5918,0.7292,0.8677,0.9814,1.0865,1.1727,1.2169,1.2508,1.2685,1.2514,1.2428,1.241,1.1838,1.1545,1.1545,1.0717,1.0589,1.1134,1.1778,1.2584,1.3577,1.4394,1.5116,1.579,1.5927,1.5509,1.4543,1.4423,1.3649,1.224,1.1497,1.067,0.9591,0.8353,0.7286,0.6247,0.0,0.0,0.0,0.0,0.0,0.0,0.0,0.0,0.0,0.0,0.0,0.0,0.0,0.0,0.0,0.1909,0.0,0.2054,0.1909,0.0,0.0,0.0,0.0237,-0.0553,-0.1027,-0.1422,-0.158,0.0,0.0,-0.1976,-0.2131,-0.2209,-0.2054,-0.2362,-0.251,-0.2588,-0.2746,-0.2979,-0.3132,-0.321,-0.3368,-0.3763,-0.3997,-0.4231,-0.4382,-0.4462,-0.454,-0.4462,-0.4309,-0.4155,-0.4155,-0.3763,-0.353,-0.3614,-0.3387,-0.3229,-0.3242,-0.3156,-0.3151,-0.3156,-0.3289,-0.3419,0.2752,0.2654,0.2233,0.2208,0.2473,0.2751,0.3409,0.4099,0.4489,0.4627,0.4593,0.439,0.4285,0.4374,0.4725,0.5368,0.6311,0.723,0.8264,0.9509,1.0606,1.1418,1.1961,1.2412,1.2777,1.2956,1.2956,1.3052,1.3219,1.2885,1.2673,1.2655,1.231,1.2003,1.1905,1.2304,1.2985,1.3951,1.4608,1.5065,1.5245,1.4956,1.4448,1.371,1.3749,1.3206,1.1843,1.1266,1.0507,0.9382,0.8251,0.7256,0.6394,0.5459,0.0,0.0,0.0,0.0,0.0,0.0,0.0,0.0,0.0,0.1166,0.1166,0.0,0.1501,0.0,0.2019,0.2146,0.1918,0.1787,0.0,0.0,0.0829,-0.0166,-0.0663,-0.1324,-0.1738,-0.1654,-0.1986,-0.2318,-0.2485,-0.273,-0.2976,-0.3307,-0.297,-0.2824,-0.2978,-0.3212,-0.3448,-0.3767,-0.3849,-0.3997,-0.4235,-0.454,-0.4857,-0.5085,-0.5246,-0.5246,-0.5087,-0.4929,-0.4693,-0.4623,-0.4307,-0.4256,-0.433,-0.4266,-0.4297,-0.4274,-0.3751,-0.3383,-0.3628,-0.3777,-0.4004,0.2437,0.2435,0.2317,0.2397,0.2577,0.3193,0.3842,0.4438,0.457,0.4897,0.5329,0.5329,0.5424,0.5514,0.5897,0.6552,0.7396,0.8049,0.8893,1.0019,1.0755,1.1395,1.1854,1.2226,1.25,1.2774,1.2768,1.2865,1.3132,1.2997,1.2933,1.2927,1.278,1.2639,1.2585,1.2783,1.3245,1.3913,1.425,1.423,1.3678,1.362,1.3379,1.279,1.2808,1.2295,1.1241,1.0605,0.9947,0.9176,0.8223,0.7374,0.6544,0.5611,0.472,0.0,0.0,0.0,0.0,0.0,0.0,0.0,0.0,0.0,0.0,0.0,0.1511,0.1749,0.1951,0.2062,0.1815,0.1751,0.1514,0.1094,0.0337,-0.0421,-0.1179,-0.1598,-0.1934,-0.2103,-0.2356,-0.2691,-0.2943,-0.3362,-0.3612,-0.3867,-0.3784,-0.3639,-0.3718,-0.3881,-0.4203,-0.461,-0.4688,-0.4771,-0.5087,-0.5328,-0.5488,-0.5651,-0.5734,-0.5814,-0.5651,-0.5568,-0.5408,-0.5331,-0.5167,-0.5023,-0.5089,-0.5022,-0.5048,-0.5012,-0.4694,-0.4336,-0.4296,-0.4367,-0.452,0.2011,0.2011,0.191,0.1907,0.1997,0.3001,0.3726,0.4382,0.4645,0.5068,0.5661,0.5942,0.6132,0.613,0.6608,0.7272,0.803,0.8494,0.9153,1.009,1.0557,1.1018,1.1482,1.1765,1.2037,1.2221,1.2314,1.2406,1.2682,1.2654,1.2642,1.2637,1.2603,1.2774,1.2939,1.2955,1.3157,1.3671,1.3553,1.2973,1.1866,1.2254,1.2272,1.1843,1.1677,1.1246,1.0463,0.9744,0.9135,0.8736,0.8116,0.7344,0.6612,0.5742,0.4827,0.0,0.3372,0.0,0.0,0.0,0.0,0.0,0.0,0.0,0.0,0.1583,0.1431,0.1682,0.1854,0.1858,0.1689,0.1523,0.1018,0.0085,-0.0255,-0.0764,-0.1781,-0.195,-0.2205,-0.2714,-0.28,-0.3053,-0.3479,-0.39,-0.424,-0.4333,-0.4582,-0.4741,-0.4734,-0.4711,-0.4936,-0.5455,-0.5452,-0.5587,-0.5924,-0.6102,-0.6102,-0.6191,-0.6261,-0.6201,-0.6268,-0.6185,-0.6194,-0.6108,-0.593,-0.5776,-0.5883,-0.5728,-0.5653,-0.5597,-0.559,-0.5438,-0.5012,-0.4976,-0.5137,0.0781,0.078,0.0864,0.124,0.1622,0.1932,0.2717,0.3974,0.4085,0.4522,0.5284,0.578,0.6174,0.6372,0.6671,0.7263,0.8052,0.8343,0.8837,0.9429,1.0108,1.0493,1.0687,1.1172,1.1554,1.2042,1.2042,1.2331,1.2816,1.2531,1.2438,1.2433,1.2232,1.2135,1.2221,0.0,0.0,0.0,1.288,1.2119,1.0978,1.1213,1.1154,1.0895,1.0727,0.0,0.9602,0.8794,0.8269,0.8028,0.7496,0.0,0.0,0.0,0.0,0.0,0.0,0.0,0.0,0.0,0.0,0.0,0.1618,0.1448,0.151,0.1594,0.1682,0.1683,0.1794,0.1728,0.1471,0.079,0.0266,-0.0,-0.0975,-0.1685,-0.1861,-0.239,-0.2744,-0.2834,-0.3541,-0.3982,-0.4152,-0.4513,-0.4946,-0.529,-0.5476,-0.5654,-0.5996,-0.5576,-0.546,-0.5868,-0.5972,-0.6043,-0.628,-0.6373,-0.6556,-0.6778,-0.6864,-0.6871,-0.6878,-0.6712,-0.6536,-0.6373,-0.6197,-0.608,-0.6181,-0.6202,-0.6147,-0.625,-0.6195,-0.6089,-0.5798,-0.5782,-0.596,-0.0398,0.0,-0.0,0.0393,0.0,0.0992,0.1692,0.2785,0.3183,0.3798,0.4636,0.534,0.5739,0.6037,0.6239,0.6842,0.764,0.7736,0.8134,0.8832,0.9324,0.9715,0.9813,1.0212,1.0708,1.1194,1.1194,1.1487,1.197,1.1869,1.1814,1.1809,1.1692,1.1637,1.1637,1.1637,1.1994,1.278,1.2106,1.1478,1.0705,1.0641,1.0428,1.0159,0.0,0.0,0.0,0.0,0.0,0.0,0.0,0.0,0.0,0.0,0.0,0.397,0.3527,0.3163,0.2785,0.2608,0.2519,0.2347,0.1754,0.1407,0.1393,0.165,0.1737,0.1563,0.158,0.1325,0.0795,0.0267,-0.0269,-0.0897,-0.1525,-0.1973,-0.2331,-0.2689,-0.3047,-0.3583,-0.403,-0.4387,-0.4654,-0.5008,-0.5453,-0.563,-0.5897,-0.6163,-0.6511,-0.6234,-0.6061,-0.649,-0.6748,-0.6922,-0.709,-0.7172,-0.7172,-0.7432,-0.7517,-0.7517,-0.7517,-0.7432,-0.7261,-0.7175,-0.7004,-0.6953,-0.6927,-0.6863,-0.6886,-0.6766,-0.6782,-0.6678,-0.6521,-0.6386,-0.6254,-0.1415,-0.0909,-0.0808,-0.0505,-0.0202,0.0202,0.0707,0.1516,0.0,0.0,0.0,0.4636,0.5138,0.5436,0.5741,0.6242,0.6939,0.6936,0.7338,0.8035,0.8329,0.8627,0.8821,0.9229,0.9624,1.0019,1.0113,1.0404,1.0801,1.0895,1.09,1.0904,1.0904,1.0904,1.09,1.09,1.1216,1.1729,1.1286,1.0793,1.0399,1.0014,0.9731,0.955,0.9274,0.8926,0.8238,0.8044,0.7619,0.6959,0.6329,0.597,0.5602,0.4795,0.4166,0.3891,0.3442,0.3083,0.2814,0.2906,0.2723,0.2268,0.1724,0.1446,0.1437,0.1615,0.1615,0.1166,0.1166,0.0807,-0.0,-0.0269,-0.0807,-0.1974,-0.2064,-0.2331,-0.2957,-0.3136,-0.3494,-0.421,-0.4476,-0.4654,-0.5099,-0.5542,-0.5808,-0.5988,-0.6254,-0.6697,-0.6881,-0.6776,-0.676,-0.72,-0.7369,-0.7665,-0.7848,-0.7834,-0.7944,-0.7914,-0.7921,-0.7944,-0.794,-0.794,-0.7944,-0.7826,-0.7944,-0.7757,-0.7588,-0.758,-0.7503,-0.7319,-0.7231,-0.7231,-0.7231,-0.6966,-0.6697,-0.1918,-0.1516,-0.1415,-0.1415,-0.1313,-0.0606,-0.0,0.0707,0.1817,0.2725,0.3331,0.3932,0.4336,0.464,0.5039,0.5539,0.5834,0.6039,0.6339,0.0,0.7235,0.7437,0.7534,0.8035,0.8336,0.863,0.8928,0.9217,0.9513,0.9723,0.9826,0.9826,0.9821,0.9821,0.9826,0.9821,0.9899,0.9938,1.0158,0.9962,0.9457,0.9051,0.8796,0.8703,0.8528,0.8146,0.7657,0.7563,0.7176,0.6222,0.6032,0.5748,0.5089,0.462,0.4252,0.3875,0.3308,0.2928,0.2645,0.2838,0.246,0.1608,0.1513,0.1492,0.1441,0.1436,0.1076,0.0269,0.018,-0.0,-0.0448,-0.1166,-0.1885,-0.2604,-0.278,-0.2957,-0.3406,-0.3853,-0.421,-0.4659,-0.5191,-0.5455,-0.563,-0.5985,-0.6343,-0.6612,-0.6789,-0.7139,-0.7499,-0.7503,-0.7503,-0.768,-0.7856,-0.7856,-0.7944,-0.7944,-0.8028,-0.8113,-0.8204,-0.8204,-0.8204,-0.8204,-0.8116,-0.7944,-0.7944,-0.794,-0.7856,-0.7856,-0.7764,-0.7764,-0.7676,-0.7764,-0.7676,-0.7672,-0.7588,-0.222,-0.2019,-0.2019,-0.1818,-0.1516,-0.1212,-0.0606,0.0202,0.0808,0.1514,0.2323,0.3027,0.3531,0.3732,0.4133,0.4533,0.4937,0.5039,0.5338,0.5739,0.6137,0.6437,0.6539,0.6939,0.7335,0.7736,0.7836,0.8131,0.8531,0.863,0.8737,0.8733,0.8733,0.8737,0.8733,0.8733,0.8733,0.873,0.9347,0.9494,0.919,0.8732,0.8408,0.8311,0.8018,0.7691,0.7244,0.6954,0.6631,0.5992,0.5516,0.5043,0.4664,0.4191,0.3716,0.3336,0.2954,0.2667,0.2288,0.2193,0.2004,0.1526,0.0954,0.0568,0.0558,0.0557,0.0461,-0.0,-0.0639,-0.118,-0.1258,-0.1974,-0.2603,-0.2871,-0.2868,-0.3226,-0.3853,-0.43,-0.4748,-0.5191,-0.5544,-0.5808,-0.6077,-0.6432,-0.67,-0.6969,-0.7231,-0.7676,-0.8028,-0.794,-0.794,-0.8025,-0.8028,-0.812,-0.8212,-0.83,-0.83,-0.8388,-0.8388,-0.8388,-0.8388,-0.8388,-0.8384,-0.83,-0.8296,-0.8208,-0.8116,-0.8028,-0.8028,-0.7944,-0.7944,-0.7944,-0.7944,-0.794,-0.794,-0.2649,-0.2641,-0.2538,-0.223,-0.1718,-0.1617,-0.1111,-0.0303,-0.0101,0.0505,0.1313,0.2121,0.2725,0.3027,0.3327,0.3629,0.4034,0.4137,0.4437,0.4836,0.5135,0.5438,0.5639,0.5937,0.6337,0.6739,0.6836,0.7036,0.754,0.764,0.7637,0.7637,0.7637,0.7637,0.764,0.7637,0.764,0.764,0.8237,0.8634,0.8832,0.8333,0.8035,0.7839,0.7534,0.7285,0.6902,0.6502,0.6068,0.5691,0.5012,0.4534,0.4342,0.3766,0.3283,0.2994,0.2703,0.2318,0.1933,0.1547,0.116,0.087,0.029,-0.0193,-0.0387,-0.0483,-0.0574,-0.0562,-0.1491,-0.2131,-0.2193,-0.2539,-0.2981,-0.3157,-0.3142,-0.3582,-0.4474,-0.4835,-0.5191,-0.5719,-0.5899,-0.6166,-0.652,-0.6789,-0.7058,-0.7408,-0.776,-0.8028,-0.8204,-0.8292,-0.8292,-0.8292,-0.8292,-0.8384,-0.8568,-0.8572,-0.8568,-0.8572,-0.8572,-0.8568,-0.8568,-0.8572,-0.8572,-0.8568,-0.8568,-0.8476,-0.8384,-0.8292,-0.8208,-0.812,-0.812,-0.8036,-0.812,-0.8208,-0.8204,-0.3569,-0.3316,-0.3002,-0.246,-0.1924,-0.1719,-0.1517,-0.1314,-0.0404,-0.0,0.0303,0.1212,0.2019,0.2422,0.2725,0.2925,0.3027,0.3428,0.3728,0.383,0.4336,0.4539,0.4537,0.4836,0.5138,0.5438,0.5636,0.5937,0.6239,0.6437,0.6537,0.6537,0.6537,0.6537,0.6534,0.6537,0.6537,0.6537,0.6637,0.7036,0.763,0.7434,0.7338,0.7235,0.7042,0.6736,0.6415,0.6226,0.572,0.501,0.4804,0.4506,0.4009,0.3512,0.3213,0.3111,0.2511,0.191,0.1607,0.1106,0.0301,-0.1005,-0.0502,-0.0501,-0.1304,-0.1807,-0.198,-0.1922,-0.1999,-0.2373,-0.284,-0.2982,-0.341,-0.404,-0.3895,-0.4204,-0.5275,-0.5633,-0.5811,-0.6254,-0.6523,-0.6792,-0.6966,-0.7234,-0.7591,-0.7937,-0.8113,-0.8292,-0.8476,-0.8568,-0.8568,-0.8568,-0.8568,-0.8568,-0.8572,-0.8572,-0.8572,-0.8572,-0.8572,-0.8572,-0.8572,-0.8572,-0.8572,-0.8572,-0.8572,-0.8568,-0.8568,-0.8568,-0.8568,-0.848,-0.848,-0.848,-0.8568,-0.8568,-0.8476,-0.4032,-0.3901,-0.3582,-0.315,-0.2605,-0.2063,-0.1745,-0.1538,-0.1116,-0.0707,-0.0202,0.101,0.1718,0.1919,0.2019,0.2222,0.2422,0.2723,0.3025,0.3127,0.333,0.3531,0.3734,0.3833,0.4034,0.4437,0.4636,0.4834,0.5238,0.5436,0.5436,0.5436,0.5436,0.5436,0.5434,0.5434,0.5434,0.5436,0.5436,0.5634,0.5934,0.6337,0.6442,0.6439,0.6239,0.5939,0.5739,0.5438,0.5037,0.4537,0.4133,0.3732,0.3531,0.3026,0.2726,0.2626,0.2122,0.1718,0.1617,0.0808,0.0101,-0.0606,-0.1111,-0.1516,-0.2022,-0.2324,-0.2607,-0.277,-0.2735,-0.2801,-0.3151,-0.3592,-0.4122,-0.4444,-0.4671,-0.5167,-0.5638,-0.608,-0.6435,-0.6786,-0.6877,-0.7146,-0.7496,-0.7764,-0.794,-0.8201,-0.8296,-0.8476,-0.8568,-0.8572,-0.8572,-0.8572,-0.8572,-0.8572,-0.8572,-0.8572,-0.8572,-0.8572,-0.8572,-0.8572,-0.8572,-0.8572,-0.8572,-0.8572,-0.8572,-0.8572,-0.8572,-0.8572,-0.8572,-0.8572,-0.8572,-0.8572,-0.8572,-0.8572,-0.8568,-0.4631,-0.4504,-0.4056,-0.3621,-0.3087,-0.2628,-0.2194,-0.1878,-0.1753,-0.1333,-0.0718,0.0308,0.082,0.0922,0.1219,0.162,0.2034,0.2135,0.2244,0.2457,0.2664,0.2766,0.2972,0.2971,0.3176,0.3481,0.369,0.3982,0.4367,0.4364,0.4354,0.4338,0.4334,0.4334,0.4332,0.4334,0.4332,0.4332,0.4332,0.4332,0.4435,0.4937,0.5338,0.5639,0.5436,0.5138,0.4939,0.4634,0.4334,0.4034,0.3432,0.313,0.3029,0.2624,0.2121,0.1617,0.1313,0.1212,0.1313,0.0202,-0.0404,-0.0505,-0.1617,-0.2324,-0.2626,-0.2827,-0.3027,-0.3425,-0.3488,-0.3535,-0.3689,-0.4238,-0.4674,-0.4893,-0.5513,-0.5818,-0.6108,-0.6703,-0.7125,-0.7293,-0.7262,-0.7496,-0.794,-0.8116,-0.8292,-0.8384,-0.8476,-0.8572,-0.8572,-0.8572,-0.8572,-0.8572,-0.8572,-0.8572,-0.8572,-0.8572,-0.8572,-0.8572,-0.8572,-0.8572,-0.8572,-0.8572,-0.8572,-0.8572,-0.8572,-0.8572,-0.8572,-0.8572,-0.8572,-0.8572,-0.8576,-0.858,-0.8572,-0.8572,-0.8597,-0.5312,-0.5122,-0.429,-0.3734,-0.3407,-0.3087,-0.2768,-0.2554,-0.2017,-0.1698,-0.159,-0.1487,-0.1277,-0.0742,0.0206,0.1123,0.1554,0.1556,0.1568,0.1692,0.212,0.2337,0.2444,0.2338,0.223,0.2327,0.2749,0.3046,0.3415,0.3414,0.3282,0.3237,0.3337,0.3334,0.3335,0.3332,0.323,0.333,0.3331,0.3331,0.333,0.3331,0.3833,0.4634,0.4537,0.4438,0.4336,0.393,0.353,0.323,0.3029,0.2826,0.2725,0.2324,0.1516,0.0404,0.0101,0.0303,0.0505,-0.0606,-0.1515,-0.1616,-0.2121,-0.2624,-0.313,-0.323,-0.3531,-0.3934,-0.4423,-0.4614,-0.4698,-0.4835,-0.5183,-0.5935,-0.6042,-0.6358,-0.6992,-0.7428,-0.7738,-0.7702,-0.7796,-0.8008,-0.8232,-0.8388,-0.8504,-0.8593,-0.858,-0.8576,-0.8572,-0.8572,-0.8572,-0.8572,-0.8572,-0.8572,-0.8572,-0.8572,-0.8572,-0.8572,-0.8572,-0.8572,-0.8572,-0.8572,-0.8572,-0.8572,-0.8572,-0.8572,-0.8572,-0.8572,-0.858,-0.8589,-0.8609,-0.8609,-0.8694,-0.8609,-0.8653,-0.5691,-0.5324,-0.496,-0.4618,-0.4065,-0.359,-0.3248,-0.3138,-0.2569,-0.2237,-0.2237,-0.2132,-0.2025,-0.181,-0.1578,-0.084,0.0106,0.0422,0.0529,0.0532,0.0745,0.0745,0.0852,0.0959,0.1172,0.1491,0.1917,0.2336,0.2746,0.2743,0.2734,0.2715,0.2686,0.2671,0.2665,0.264,0.2725,0.2725,0.2725,0.2725,0.2624,0.2725,0.2924,0.3226,0.3531,0.3531,0.343,0.3328,0.3229,0.2927,0.2625,0.2526,0.2425,0.1414,0.0606,-0.0,-0.0909,-0.1313,-0.0909,-0.1717,-0.2424,-0.2625,-0.2827,-0.3128,-0.3632,-0.4034,-0.4334,-0.4535,-0.5035,-0.5436,-0.5729,-0.58,-0.595,-0.6276,-0.671,-0.7028,-0.7419,-0.7733,-0.8077,-0.8336,-0.8563,-0.8722,-0.8699,-0.8901,-0.8861,-0.8755,-0.8731,-0.8686,-0.8597,-0.8572,-0.8593,-0.8576,-0.8572,-0.8572,-0.8572,-0.8572,-0.8572,-0.8572,-0.8572,-0.8572,-0.8572,-0.8572,-0.8572,-0.8572,-0.8572,-0.8617,-0.8633,-0.8649,-0.8649,-0.8718,-0.8731,-0.8779,-0.8889,-0.8828,-0.8881,-0.6161,-0.5708,-0.5483,-0.5148,-0.4695,-0.4095,-0.3854,-0.374,-0.3266,-0.3033,-0.2925,-0.2708,-0.2492,-0.2492,-0.2601,-0.2277,-0.1408,-0.1078,-0.0969,-0.0866,-0.0758,-0.065,-0.0542,-0.0108,0.0217,0.0542,0.0974,0.1405,0.1719,0.1719,0.1714,0.1596,0.1578,0.1569,0.1564,0.1644,0.1629,0.1628,0.162,0.1614,0.1615,0.1615,0.1615,0.1716,0.2018,0.2321,0.2624,0.2827,0.2624,0.2019,0.1717,0.1617,0.1516,0.0101,-0.0707,-0.0808,-0.1818,-0.2324,-0.202,-0.2524,-0.2928,-0.323,-0.3533,-0.3935,-0.4437,-0.4736,-0.5035,-0.5334,-0.5634,-0.6034,-0.6537,-0.6734,-0.6804,-0.6831,-0.7205,-0.7654,-0.7839,-0.8167,-0.8491,-0.8718,-0.8979,-0.9084,-0.9096,-0.9088,-0.9031,-0.8922,-0.8909,-0.8852,-0.8767,-0.8739,-0.8743,-0.8739,-0.8763,-0.8775,-0.8792,-0.8808,-0.8666,-0.8629,-0.8617,-0.8605,-0.8613,-0.8601,-0.8601,-0.8589,-0.8617,-0.867,-0.8706,-0.8727,-0.8796,-0.8885,-0.8913,-0.8946,-0.9015,-0.9064,-0.9104,-0.6611,-0.6281,-0.571,-0.5485,-0.5369,-0.4806,-0.4475,-0.447,-0.4137,-0.3791,-0.3563,-0.3242,-0.3122,-0.2797,-0.29,-0.2798,-0.2674,-0.264,-0.2534,-0.2454,-0.2011,-0.1787,-0.1675,-0.1004,-0.0669,-0.0669,-0.0224,-0.0,-0.0,0.0219,0.0326,-0.0,-0.0213,-0.0213,-0.0106,-0.0105,-0.0,-0.0,-0.0,-0.0,-0.0,-0.0,-0.0,-0.0,-0.0,0.0707,0.2118,0.2222,0.1718,0.0707,0.0202,-0.0,-0.0202,-0.1414,-0.2224,-0.2122,-0.2524,-0.2624,-0.2422,-0.2927,-0.323,-0.3432,-0.4138,-0.4843,-0.5345,-0.5343,-0.5539,-0.6037,-0.6337,-0.6637,-0.7135,-0.7341,-0.754,-0.7643,-0.7816,-0.8103,-0.8375,-0.8773,-0.9013,-0.9083,-0.9157,-0.9116,-0.9112,-0.9157,-0.9153,-0.9116,-0.9096,-0.9076,-0.9023,-0.9007,-0.9068,-0.9064,-0.9007,-0.8962,-0.9027,-0.9068,-0.8865,-0.8702,-0.8686,-0.8678,-0.8714,-0.8718,-0.8735,-0.8735,-0.8796,-0.8848,-0.8909,-0.8938,-0.8999,-0.9072,-0.9088,-0.9125,-0.9202,-0.9263,-0.9275,-0.7169,-0.6709,-0.641,-0.6156,-0.5933,-0.5373,-0.5148,-0.5039,-0.4592,-0.4258,-0.4257,-0.4145,-0.4033,-0.3921,-0.3921,-0.3921,-0.392,-0.3901,-0.346,-0.2803,-0.2468,-0.2468,-0.2356,-0.2019,-0.1907,-0.2019,-0.1907,-0.1903,-0.1782,-0.1335,-0.133,-0.1875,-0.2291,-0.2279,-0.1842,-0.1921,-0.1797,-0.1793,-0.1661,-0.1646,-0.1643,-0.1625,-0.1615,-0.1615,-0.1615,-0.1412,-0.0907,0.0202,0.0505,0.0101,-0.0606,-0.1212,-0.1617,-0.2222,-0.2625,-0.2625,-0.2928,-0.2825,-0.2621,-0.3226,-0.3934,-0.4234,-0.4636,-0.524,-0.6047,-0.6042,-0.6137,-0.6437,-0.6736,-0.7138,-0.7637,-0.7839,-0.7942,-0.7842,-0.8137,-0.8435,-0.8829,-0.9178,-0.9429,-0.9478,-0.9462,-0.9462,-0.9458,-0.9449,-0.9388,-0.9295,-0.9275,-0.925,-0.9141,-0.9137,-0.9092,-0.9096,-0.9096,-0.9145,-0.9177,-0.9202,-0.91,-0.8954,-0.8897,-0.8824,-0.884,-0.8857,-0.8869,-0.8917,-0.8974,-0.9039,-0.9096,-0.9149,-0.9206,-0.9246,-0.9271,-0.934,-0.9433,-0.9458,-0.9445,-0.7746,-0.7276,-0.7051,-0.6779,-0.6439,-0.5951,-0.5708,-0.571,-0.5375,-0.5152,-0.5039,-0.5039,-0.4927,-0.4814,-0.4814,-0.4815,-0.4814,-0.4814,-0.448,-0.3699,-0.3254,-0.3254,-0.3142,-0.2917,-0.2918,-0.3029,-0.3029,-0.3029,-0.303,-0.2467,-0.2466,-0.3021,-0.3664,-0.3644,-0.3086,-0.304,-0.3012,-0.2898,-0.2749,-0.2619,-0.261,-0.2471,-0.2446,-0.2444,-0.2532,-0.2523,-0.2522,-0.1615,-0.111,-0.1111,-0.1615,-0.202,-0.2425,-0.2726,-0.2927,-0.3127,-0.333,-0.3328,-0.3123,-0.383,-0.4435,-0.4734,-0.5133,-0.5739,-0.6448,-0.6742,-0.6736,-0.6939,-0.7238,-0.764,-0.8038,-0.8237,-0.8336,-0.8435,-0.8634,-0.8935,-0.9232,-0.9529,-0.9624,-0.9604,-0.9612,-0.9624,-0.9624,-0.962,-0.9587,-0.9478,-0.9453,-0.9437,-0.9324,-0.9307,-0.9287,-0.9283,-0.9332,-0.9348,-0.9315,-0.9315,-0.9311,-0.923,-0.9153,-0.906,-0.9011,-0.9011,-0.9023,-0.9116,-0.9185,-0.9267,-0.9328,-0.9348,-0.9388,-0.9421,-0.9441,-0.9494,-0.9551,-0.9571,-0.9563,-0.8341,-0.7976,-0.7626,-0.7339,-0.6977,-0.6551,-0.6396,-0.6383,-0.6274,-0.6049,-0.5822,-0.571,-0.571,-0.5483,-0.5483,-0.5485,-0.5483,-0.5594,-0.5594,-0.5262,-0.4704,-0.4258,-0.4036,-0.3923,-0.3811,-0.381,-0.381,-0.3699,-0.381,-0.3249,-0.3137,-0.381,-0.4367,-0.437,-0.3904,-0.3637,-0.3611,-0.3604,-0.3337,-0.3202,-0.3091,-0.2832,-0.2701,-0.2697,-0.2862,-0.2938,-0.2939,-0.3033,-0.2927,-0.2725,-0.2522,-0.2623,-0.2826,-0.313,-0.343,-0.3729,-0.3932,-0.4033,-0.4133,-0.4535,-0.5037,-0.5338,-0.5939,-0.6642,-0.7048,-0.7244,-0.7338,-0.7543,-0.7839,-0.8137,-0.8432,-0.863,-0.8928,-0.9133,-0.9133,-0.9331,-0.9529,-0.9624,-0.9624,-0.9624,-0.9624,-0.9624,-0.9624,-0.9624,-0.962,-0.9608,-0.9596,-0.9571,-0.9567,-0.9535,-0.9596,-0.9579,-0.9522,-0.9506,-0.9462,-0.9462,-0.9458,-0.9425,-0.936,-0.9295,-0.9222,-0.9218,-0.923,-0.9319,-0.9368,-0.9458,-0.951,-0.9506,-0.9522,-0.9543,-0.9575,-0.9616,-0.9624,-0.9624,-0.9628,-0.8831,-0.8461,-0.8332,-0.8108,-0.7914,-0.7525,-0.7236,-0.6943,-0.6715,-0.6492,-0.6272,-0.6161,-0.6158,-0.6047,-0.6267,-0.6379,-0.6376,-0.6599,-0.6707,-0.6707,-0.6485,-0.5817,-0.515,-0.4925,-0.4925,-0.4925,-0.4925,-0.4925,-0.4925,-0.4362,-0.4364,-0.4925,-0.5489,-0.5491,-0.5031,-0.4899,-0.4784,-0.4552,-0.4378,-0.4234,-0.4008,-0.3843,-0.381,-0.38,-0.3844,-0.3811,-0.3803,-0.3962,-0.3734,-0.313,-0.3228,-0.3327,-0.3429,-0.3833,-0.4135,-0.4433,-0.4736,-0.4734,-0.473,-0.5236,-0.6044,-0.6956,-0.6845,-0.6945,-0.7347,-0.7643,-0.7839,-0.7939,-0.8336,-0.873,-0.8931,-0.9031,-0.9232,-0.943,-0.9529,-0.9529,-0.9529,-0.9624,-0.9624,-0.9624,-0.9624,-0.9624,-0.9624,-0.9628,-0.9628,-0.9624,-0.9624,-0.9624,-0.9723,-0.9723,-0.9723,-0.9624,-0.9596,-0.9608,-0.9608,-0.9608,-0.9604,-0.9583,-0.9551,-0.9531,-0.9486,-0.9482,-0.9502,-0.9551,-0.9506,-0.9559,-0.9583,-0.9592,-0.962,-0.9624,-0.9624,-0.9624,-0.9624,-0.9624,-0.9628,-0.921,-0.896,-0.8822,-0.8718,-0.8405,-0.8184,-0.7862,-0.7679,-0.7399,-0.716,-0.7051,-0.7051,-0.7051,-0.7049,-0.716,-0.7268,-0.7268,-0.7487,-0.7487,-0.7487,-0.7487,-0.693,-0.6374,-0.6151,-0.6151,-0.6151,-0.6154,-0.6151,-0.6038,-0.5586,-0.5588,-0.6151,-0.6717,-0.6604,-0.5931,-0.5931,-0.5822,-0.5477,-0.532,-0.508,-0.4964,-0.4777,-0.474,-0.4717,-0.4759,-0.4808,-0.4866,-0.4883,-0.4537,-0.3934,-0.3932,-0.4131,-0.4334,-0.4537,-0.4839,-0.5135,-0.5338,-0.5436,-0.5329,-0.5934,-0.6851,-0.7659,-0.755,-0.7547,-0.7945,-0.824,-0.8333,-0.8432,-0.8733,-0.9034,-0.9133,-0.9232,-0.9426,-0.9529,-0.9727,-0.9731,-0.9628,-0.9624,-0.9624,-0.9624,-0.9624,-0.9624,-0.9624,-0.9727,-0.9727,-0.9826,-0.992,-0.992,-0.992,-0.992,-0.992,-0.9821,-0.9821,-0.9821,-0.9723,-0.9723,-0.9723,-0.9719,-0.9719,-0.9723,-0.9723,-0.9624,-0.962,-0.9612,-0.962,-0.9624,-0.9628,-0.9628,-0.9624,-0.9624,-0.9624,-0.9624,-0.9723,-0.9723,-0.9826,-0.97,-0.9447,-0.9437,-0.9136,-0.8959,-0.863,-0.8628,-0.8452,-0.8239,-0.8174,-0.8048,-0.8045,-0.8045,-0.8045,-0.8045,-0.8159,-0.8156,-0.8266,-0.8263,-0.8263,-0.8266,-0.7934,-0.7598,-0.7265,-0.7154,-0.7154,-0.7265,-0.7265,-0.7041,-0.67,-0.6811,-0.7154,-0.7721,-0.761,-0.7046,-0.6824,-0.6715,-0.6383,-0.626,-0.6026,-0.5904,-0.5729,-0.558,-0.5671,-0.5699,-0.5812,-0.5824,-0.5824,-0.5461,-0.4754,-0.4843,-0.5037,-0.5238,-0.534,-0.5539,-0.5737,-0.6039,-0.6037,-0.5927,-0.6537,-0.7247,-0.7955,-0.8144,-0.824,-0.8546,-0.8638,-0.8829,-0.8829,-0.913,-0.9232,-0.943,-0.9529,-0.9727,-0.9826,-1.0027,-1.0027,-0.983,-0.9727,-0.9727,-0.9723,-0.9723,-0.9723,-0.9727,-0.9826,-1.0023,-1.0023,-1.0117,-1.0216,-1.0216,-1.0216,-1.0216,-1.0216,-1.0117,-1.0015,-0.992,-0.9821,-0.9821,-0.9821,-0.9821,-0.992,-0.9821,-0.9821,-0.9727,-0.9628,-0.9723,-0.9821,-0.9826,-0.9826,-0.9723,-0.9821,-0.992,-0.992,-0.992,-1.0019,-1.0019,-1.0547,-1.0543,-1.051,-1.0303,-1.0199,-1.0119,-0.9834,-0.9274,-0.9233,-0.9039,-0.8725,-0.8709,-0.8706,-0.8706,-0.8933,-0.9047,-0.9044,-0.9265,-0.9372,-0.9372,-0.9372,-0.9375,-0.9047,-0.8393,-0.794,-0.7826,-0.7823,-0.7823,-0.782,-0.7706,-0.7706,-0.7934,-0.8387,-0.839,-0.7826,-0.7712,-0.7604,-0.7385,-0.7271,-0.7046,-0.6932,-0.6795,-0.6772,-0.6761,-0.6772,-0.6664,-0.6658,-0.6746,-0.6683,-0.6455,-0.6093,-0.5851,-0.5944,-0.6242,-0.6442,-0.6542,-0.6739,-0.6936,-0.6933,-0.7338,-0.7949,-0.8553,-0.8641,-0.863,-0.8733,-0.9034,-0.9133,-0.9133,-0.9331,-0.9632,-0.9929,-0.9924,-1.0023,-1.022,-1.0314,-1.0212,-1.0212,-1.0319,-1.0319,-1.0216,-1.0216,-1.0212,-1.0212,-1.0216,-1.0314,-1.0314,-1.0413,-1.0413,-1.0413,-1.0511,-1.0511,-1.0609,-1.0413,-1.0314,-1.0212,-1.0117,-1.0019,-1.0019,-1.0019,-1.0117,-1.0019,-0.992,-0.9821,-0.992,-0.992,-1.0019,-1.0019,-1.0117,-1.0117,-1.0216,-1.0216,-1.0216,-1.0216,-1.0314,-1.0408,-1.0793,-1.0793,-1.0793,-1.0744,-1.0658,-1.0588,-1.0336,-1.0062,-0.9967,-0.9734,-0.9496,-0.9475,-0.9436,-0.9372,-0.9485,-0.9599,-0.971,-0.9926,-1.0143,-1.0162,-1.0319,-1.0373,-1.0285,-0.9868,-0.942,-0.8967,-0.8819,-0.8819,-0.8816,-0.8595,-0.8589,-0.8819,-0.9165,-0.9051,-0.8712,-0.8709,-0.8484,-0.8266,-0.8266,-0.8152,-0.8039,-0.8039,-0.8039,-0.8014,-0.7916,-0.78,-0.7733,-0.7817,-0.7858,-0.7707,-0.7406,-0.6997,-0.6648,-0.6839,-0.7039,-0.7238,-0.7441,-0.7431,-0.7428,-0.7928,-0.8641,-0.9153,-0.9038,-0.9034,-0.9031,-0.9229,-0.943,-0.9529,-0.9727,-0.9924,-1.0224,-1.022,-1.0319,-1.0417,-1.0507,-1.0502,-1.0609,-1.0618,-1.0618,-1.0417,-1.0413,-1.0413,-1.0413,-1.0507,-1.0605,-1.0609,-1.0806,-1.0801,-1.09,-1.09,-1.0904,-1.0806,-1.0708,-1.0609,-1.0507,-1.0511,-1.0314,-1.0314,-1.0314,-1.0314,-1.0216,-1.0216,-1.0117,-1.0117,-1.0216,-1.0216,-1.0314,-1.0413,-1.0413,-1.0413,-1.0314,-1.0413,-1.0511,-1.0609,-1.0703,-1.091,-1.0914,-1.091,-1.0914,-1.0891,-1.089,-1.0932,-1.0757,-1.0638,-1.0704,-1.0451,-1.0428,-1.0475,-1.0258,-1.0247,-1.0227,-1.0235,-1.0469,-1.0838,-1.0962,-1.1164,-1.1214,-1.1138,-1.1082,-1.0944,-1.0235,-1.0036,-1.0032,-0.9802,-0.9425,-0.937,-0.9898,-1.0082,-0.9994,-0.9754,-0.9603,-0.9482,-0.9258,-0.9258,-0.9144,-0.9144,-0.9144,-0.903,-0.8899,-0.8832,-0.8764,-0.8824,-0.8821,-0.8836,-0.8825,-0.8795,-0.833,-0.7808,-0.7441,-0.7537,-0.7829,-0.8035,-0.7928,-0.7819,-0.8322,-0.9034,-0.9549,-0.9438,-0.9335,-0.943,-0.9624,-0.9821,-0.992,-1.0117,-1.0216,-1.0413,-1.0511,-1.0511,-1.0609,-1.0806,-1.0806,-1.09,-1.0811,-1.0811,-1.0609,-1.0708,-1.0708,-1.0703,-1.0801,-1.0801,-1.09,-1.1096,-1.1194,-1.1194,-1.1194,-1.1096,-1.11,-1.09,-1.09,-1.0801,-1.0806,-1.0708,-1.0708,-1.0609,-1.0609,-1.0609,-1.0609,-1.0511,-1.0413,-1.0511,-1.0511,-1.0605,-1.0703,-1.0703,-1.0507,-1.0605,-1.0708,-1.0806,-1.0904,-1.1002,-1.1651,-1.1651,-1.1651,-1.1655,-1.1643,-1.1848,-1.1865,-1.1862,-1.1942,-1.2048,-1.1769,-1.1867,-1.1735,-1.1693,-1.1819,-1.1819,-1.1658,-1.1759,-1.189,-1.2008,-1.2074,-1.2095,-1.2113,-1.2175,-1.2131,-1.1964,-1.1591,-1.1249,-1.0866,-1.0189,-1.036,-1.0968,-1.1331,-1.1152,-1.0871,-1.056,-1.0516,-1.0394,-1.039,-1.0276,-1.0143,-1.0029,-0.9919,-0.9809,-0.9537,-0.953,-0.9621,-0.973,-0.9751,-0.9514,-0.9376,-0.9113,-0.8864,-0.8632,-0.856,-0.8528,-0.8627,-0.8623,-0.8619,-0.8928,-0.924,-0.9541,-0.9731,-0.9826,-0.9924,-1.0019,-1.0216,-1.0314,-1.0413,-1.0413,-1.0708,-1.0801,-1.09,-1.0998,-1.1096,-1.1198,-1.1394,-1.1394,-1.1296,-1.1096,-1.1096,-1.1096,-1.1096,-1.1096,-1.1194,-1.1194,-1.1292,-1.1389,-1.1389,-1.1292,-1.1292,-1.1194,-1.1194,-1.1096,-1.1096,-1.1198,-1.11,-1.11,-1.11,-1.1096,-1.1096,-1.11,-1.1002,-1.1002,-1.0806,-1.0806,-1.09,-1.0998,-1.0998,-1.0998,-1.1002,-1.11,-1.1198,-1.1296,-1.1423,-1.2247,-1.2247,-1.2247,-1.2247,-1.2242,-1.2363,-1.2431,-1.2358,-1.2583,-1.2478,-1.2346,-1.2298,-1.2356,-1.229,-1.2148,-1.2378,-1.2616,-1.2836,-1.2955,-1.3079,-1.3279,-1.3221,-1.3244,-1.332,-1.3498,-1.3508,-1.3152,-1.2664,-1.2161,-1.1523,-1.1553,-1.2236,-1.2757,-1.2833,-1.2225,-1.1929,-1.1694,-1.1637,-1.1381,-1.1228,-1.1038,-1.0916,-1.0806,-1.0692,-1.0574,-1.0574,-1.0676,-1.0627,-1.0675,-1.0638,-1.0502,-1.0379,-1.014,-0.9994,-0.9609,-0.9176,-0.9137,-0.9331,-0.9525,-0.9727,-0.9924,-1.013,-1.022,-1.0216,-1.0216,-1.031,-1.0507,-1.0605,-1.0806,-1.09,-1.1194,-1.1194,-1.1292,-1.1585,-1.1585,-1.1688,-1.1785,-1.178,-1.178,-1.1683,-1.1683,-1.1683,-1.1585,-1.1585,-1.159,-1.159,-1.1585,-1.1585,-1.159,-1.1492,-1.1487,-1.1487,-1.1487,-1.1487,-1.1487,-1.1492,-1.1492,-1.1492,-1.1492,-1.1487,-1.1585,-1.1492,-1.1492,-1.1492,-1.1394,-1.1194,-1.1096,-1.1194,-1.1296,-1.1394,-1.1492,-1.159,-1.159,-1.1697,-1.185,-1.2715,-1.2715,-1.2715,-1.2715,-1.2719,-1.284,-1.296,-1.296,-1.3075,-1.3113,-1.2872,-1.2967,-1.2885,-1.2771,-1.2744,-1.2971,-1.3423,-1.3683,-1.3808,-1.4074,-1.4184,-1.4259,-1.4432,-1.4528,-1.4604,-1.4682,-1.4821,-1.4345,-1.3534,-1.2873,-1.2957,-1.3452,-1.44,-1.4338,-1.347,-1.3041,-1.2843,-1.265,-1.2478,-1.227,-1.2004,-1.1845,-1.1818,-1.1682,-1.1559,-1.145,-1.1455,-1.1442,-1.1437,-1.1402,-1.1315,-1.1322,-1.1269,-1.1138,-1.0578,-0.9799,-0.9709,-0.9983,-1.0177,-1.0319,-1.0319,-1.0524,-1.0516,-1.0511,-1.0511,-1.0605,-1.0801,-1.0998,-1.1194,-1.1389,-1.1482,-1.1585,-1.178,-1.1883,-1.198,-1.198,-1.2078,-1.2175,-1.2273,-1.2273,-1.2273,-1.2181,-1.2093,-1.1883,-1.1785,-1.1785,-1.1785,-1.1785,-1.1785,-1.1883,-1.1883,-1.1883,-1.1883,-1.1883,-1.1883,-1.1883,-1.1785,-1.1785,-1.1785,-1.1785,-1.1883,-1.1883,-1.1888,-1.1893,-1.1688,-1.1487,-1.1492,-1.1497,-1.159,-1.178,-1.1883,-1.2021,-1.1993,-1.2241,-1.249,-1.2715,-1.2715,-1.2715,-1.2715,-1.284,-1.3329,-1.3569,-1.3688,-1.4047,-1.4401,-1.4222,-1.4242,-1.4217,-1.4178,-1.4178,-1.4311,-1.443,-1.4513,-1.4611,-1.4729,-1.478,-1.4687,-1.4713,-1.4852,-1.524,-1.5477,-1.5715,-1.5337,-1.4621,-1.437,-1.4291,-1.4621,-1.4971,-1.503,-1.4376,-1.4034,-1.3863,-1.3838,-1.3715,-1.3488,-1.2971,-1.2822,-1.24,-1.2174,-1.191,-1.1791,-1.19,-1.19,-1.19,-1.1673,-1.1655,-1.145,-1.1327,-1.1274,-1.1142,-1.0841,-1.0684,-1.0575,-1.0659,-1.0666,-1.0681,-1.0897,-1.0861,-1.0815,-1.0969,-1.1269,-1.156,-1.178,-1.1908,-1.184,-1.186,-1.1918,-1.2098,-1.2227,-1.2371,-1.2351,-1.2428,-1.2854,-1.2931,-1.3002,-1.3051,-1.266,-1.2319,-1.2196,-1.198,-1.198,-1.198,-1.2078,-1.2175,-1.2273,-1.2273,-1.237,-1.237,-1.237,-1.2467,-1.237,-1.2283,-1.2186,-1.2186,-1.2181,-1.2273,-1.2375,-1.2201,-1.2201,-1.2006,-1.2056,-1.2216,-1.22,-1.2016,-1.2114,-1.2356,-1.2355,-1.2269,-1.2609,-1.3057,-1.3808,-1.3808,-1.3808,-1.3808,-1.3808,-1.4052,-1.4172,-1.4291,-1.4416,-1.453,-1.453,-1.453,-1.453,-1.4655,-1.4769,-1.4997,-1.5126,-1.5369,-1.5483,-1.5596,-1.5591,-1.5591,-1.5704,-1.5822,-1.6065,-1.6065,-1.6183,-1.6183,-1.5709,-1.5337,-1.5332,-1.5698,-1.5875,-1.6054,-1.5413,-1.5216,-1.5098,-1.4866,-1.4505,-1.405,-1.3743,-1.3478,-1.3277,-1.2956,-1.2707,-1.2535,-1.2583,-1.2782,-1.2777,-1.2555,-1.255,-1.2516,-1.2445,-1.2421,-1.2364,-1.2292,-1.2078,-1.1714,-1.1285,-1.1291,-1.1332,-1.1332,-1.1534,-1.187,-1.1957,-1.2043,-1.2239,-1.2365,-1.236,-1.2445,-1.2535,-1.2762,-1.2957,-1.3047,-1.3082,-1.3203,-1.3303,-1.3452,-1.3702,-1.3768,-1.3828,-1.3441,-1.315,-1.3079,-1.2834,-1.2662,-1.2764,-1.2764,-1.2856,-1.2953,-1.2958,-1.2958,-1.2958,-1.2958,-1.305,-1.305,-1.2986,-1.2991,-1.2991,-1.2986,-1.2964,-1.2872,-1.2861,-1.2931,-1.3078,-1.3127,-1.3176,-1.2897,-1.2687,-1.2713,-1.2865,-1.3009,-1.3159,-1.3431,-1.392,-1.4769,-1.4888,-1.465,-1.453,-1.465,-1.465,-1.4769,-1.4769,-1.4888,-1.4888,-1.4893,-1.5012,-1.5012,-1.5126,-1.5353,-1.5591,-1.5833,-1.6081,-1.6312,-1.6425,-1.6537,-1.6419,-1.6419,-1.6537,-1.6543,-1.6655,-1.6773,-1.6773,-1.6644,-1.6391,-1.6279,-1.6537,-1.6661,-1.6532,-1.6408,-1.6245,-1.5926,-1.5798,-1.5418,-1.4959,-1.4651,-1.464,-1.439,-1.4111,-1.3755,-1.3432,-1.353,-1.3444,-1.3325,-1.332,-1.3207,-1.3088,-1.3181,-1.3068,-1.3063,-1.3009,-1.2874,-1.2659,-1.2197,-1.2082,-1.2029,-1.2113,-1.2329,-1.2695,-1.271,-1.2859,-1.2951,-1.2997,-1.3109,-1.3227,-1.3362,-1.3545,-1.3818,-1.3903,-1.4117,-1.4265,-1.4384,-1.4343,-1.4303,-1.4245,-1.4312,-1.4412,-1.4196,-1.4045,-1.3918,-1.3579,-1.3448,-1.3556,-1.3574,-1.3591,-1.3477,-1.3391,-1.338,-1.3408,-1.3481,-1.3562,-1.3653,-1.3774,-1.3774,-1.3716,-1.3675,-1.3616,-1.359,-1.3851,-1.4096,-1.3936,-1.3685,-1.3419,-1.3281,-1.3402,-1.3624,-1.3948,-1.4174,-1.4464,-1.4791,-1.5235,-1.5477,-1.4888,-1.465,-1.465,-1.4997,-1.5116,-1.5121,-1.5359,-1.5483,-1.5596,-1.5844,-1.6076,-1.6188,-1.6183,-1.6301,-1.6419,-1.6419,-1.6537,-1.6537,-1.6537,-1.6655,-1.6655,-1.6897,-1.702,-1.702,-1.725,-1.7361,-1.7361,-1.7226,-1.6879,-1.6661,-1.7044,-1.6926,-1.679,-1.6649,-1.6526,-1.6452,-1.6155,-1.6065,-1.5963,-1.5781,-1.568,-1.5219,-1.4787,-1.4414,-1.4056,-1.3785,-1.3578,-1.3578,-1.3547,-1.3532,-1.364,-1.364,-1.364,-1.3619,-1.3599,-1.3301,-1.3113,-1.2685,-1.227,-1.2339,-1.2791,-1.3278,-1.3397,-1.3421,-1.3491,-1.3751,-1.3914,-1.4082,-1.4145,-1.4299,-1.4522,-1.4653,-1.4797,-1.478,-1.4877,-1.4932,-1.4885,-1.482,-1.4826,-1.5083,-1.5119,-1.4974,-1.457,-1.4225,-1.4252,-1.427,-1.4119,-1.4113,-1.386,-1.3745,-1.3722,-1.3791,-1.3969,-1.4097,-1.4412,-1.4471,-1.4506,-1.4471,-1.4346,-1.4369,-1.4495,-1.4511,-1.4665,-1.448,-1.4412,-1.4474,-1.4451,-1.4242,-1.4407,-1.4812,-1.5068,-1.5309,-1.5731,-1.5839,-1.5963,-1.5833,-1.5715,-1.5488,-1.5601,-1.5833,-1.5946,-1.6065,-1.6188,-1.6188,-1.6307,-1.6425,-1.6537,-1.6537,-1.6655,-1.6779,-1.6779,-1.6897,-1.7009,-1.7126,-1.7126,-1.725,-1.7373,-1.762,-1.7614,-1.7837,-1.8064,-1.8064,-1.7689,-1.7695,-1.7596,-1.7633,-1.7509,-1.7373,-1.7126,-1.7015,-1.6897,-1.6779,-1.6709,-1.644,-1.6383,-1.6164,-1.592,-1.5744,-1.5445,-1.5188,-1.485,-1.4647,-1.4467,-1.4375,-1.4326,-1.4191,-1.4293,-1.4283,-1.4288,-1.4175,-1.4175,-1.4067,-1.3555,-1.327,-1.3794,-1.4128,-1.4212,-1.4173,-1.4312,-1.4428,-1.4645,-1.471,-1.4786,-1.4738,-1.4861,-1.5106,-1.5299,-1.5362,-1.5425,-1.5505,-1.5573,-1.5677,-1.5652,-1.5805,-1.6068,-1.5969,-1.5844,-1.5411,-1.4996,-1.504,-1.4979,-1.4825,-1.4702,-1.4672,-1.4562,-1.4556,-1.4721,-1.4908,-1.5062,-1.5199,-1.5178,-1.5257,-1.5191,-1.5221,-1.5398,-1.5469,-1.5413,-1.5463,-1.55,-1.5561,-1.575,-1.5615,-1.5178,-1.5281,-1.5762,-1.5946,-1.6125,-1.6511,-1.6194,-1.6194,-1.6425,-1.6425,-1.6194,-1.62,-1.6312,-1.6537,-1.6537,-1.6537,-1.6661,-1.6655,-1.6779,-1.6773,-1.6773,-1.6891,-1.7132,-1.7138,-1.7373,-1.7491,-1.7608,-1.7726,-1.7837,-1.796,-1.8083,-1.82,-1.8311,-1.8415,-1.8298,-1.7904,-1.8033,-1.8298,-1.8206,-1.8219,-1.796,-1.7843,-1.7602,-1.7491,-1.7373,-1.7256,-1.7003,-1.6997,-1.6838,-1.6617,-1.6414,-1.6172,-1.5977,-1.5664,-1.5427,-1.5331,-1.5217,-1.5075,-1.5024,-1.5093,-1.5047,-1.5041,-1.5041,-1.4928,-1.4708,-1.4374,-1.4164,-1.4657,-1.512,-1.5125,-1.5041,-1.5041,-1.5079,-1.5097,-1.5227,-1.5256,-1.5363,-1.5624,-1.5813,-1.597,-1.597,-1.6051,-1.6181,-1.6274,-1.6405,-1.6516,-1.6535,-1.6497,-1.6558,-1.6412,-1.6061,-1.5626,-1.5488,-1.5557,-1.5563,-1.5557,-1.5582,-1.5582,-1.5589,-1.5796,-1.6011,-1.5935,-1.5781,-1.5962,-1.6012,-1.6066,-1.6144,-1.6234,-1.6253,-1.6135,-1.6162,-1.6447,-1.6472,-1.6367,-1.6224,-1.5959,-1.6187,-1.6422,-1.6669,-1.6829,-1.7132,-1.6543,-1.6537,-1.6537,-1.6537,-1.6543,-1.6543,-1.6537,-1.6655,-1.6655,-1.6779,-1.702,-1.702,-1.7132,-1.7367,-1.7367,-1.7485,-1.7491,-1.7491,-1.7719,-1.796,-1.796,-1.8077,-1.8305,-1.8305,-1.8421,-1.8421,-1.8538,-1.8538,-1.8538,-1.8409,-1.8642,-1.8894,-1.8927,-1.8823,-1.8421,-1.8421,-1.8305,-1.8305,-1.8305,-1.8071,-1.7843,-1.7849,-1.7689,-1.7388,-1.7134,-1.6887,-1.6803,-1.6357,-1.6121,-1.6069,-1.5754,-1.5638,-1.5505,-1.5338,-1.5252,-1.52,-1.5183,-1.5166,-1.5035,-1.446,-1.4798,-1.5267,-1.5505,-1.5606,-1.5261,-1.5261,-1.5589,-1.5678,-1.5785,-1.5998,-1.6111,-1.6217,-1.6318,-1.6418,-1.6511,-1.6624,-1.6743,-1.6955,-1.6948,-1.7047,-1.6836,-1.6723,-1.6829,-1.6858,-1.6607,-1.6381,-1.6087,-1.6049,-1.6214,-1.6278,-1.6438,-1.6451,-1.6471,-1.651,-1.66,-1.6407,-1.6386,-1.6584,-1.674,-1.6749,-1.6736,-1.6716,-1.6774,-1.6685,-1.6778,-1.6864,-1.6903,-1.6948,-1.6987,-1.7145,-1.6855,-1.6961,-1.7192,-1.7483,-1.7856,-1.6785,-1.6897,-1.7126,-1.7126,-1.7132,-1.6903,-1.6897,-1.7132,-1.7132,-1.725,-1.7367,-1.7367,-1.7367,-1.7485,-1.7726,-1.7849,-1.7849,-1.8071,-1.8188,-1.8194,-1.8305,-1.8305,-1.8415,-1.8648,-1.8765,-1.8771,-1.8894,-1.901,-1.9127,-1.9037,-1.9023,-1.9256,-1.9283,-1.903,-1.8544,-1.8421,-1.8421,-1.8421,-1.8421,-1.8298,-1.8305,-1.8311,-1.8188,-1.8064,-1.7842,-1.7677,-1.7658,-1.7285,-1.7074,-1.6911,-1.6694,-1.6456,-1.6327,-1.6068,-1.5997,-1.6005,-1.594,-1.6054,-1.6047,-1.5855,-1.5779,-1.5827,-1.5821,-1.5922,-1.5891,-1.5897,-1.6105,-1.6205,-1.6311,-1.6418,-1.6524,-1.6524,-1.6624,-1.663,-1.6736,-1.6955,-1.7067,-1.7272,-1.7371,-1.7371,-1.7265,-1.7265,-1.7265,-1.7272,-1.7075,-1.7016,-1.6859,-1.6878,-1.6944,-1.7107,-1.716,-1.716,-1.7166,-1.7173,-1.7082,-1.6938,-1.6938,-1.7068,-1.7239,-1.7318,-1.7345,-1.7205,-1.7331,-1.7364,-1.7311,-1.7265,-1.747,-1.7802,-1.8218,-1.8273,-1.7996,-1.7802,-1.8003,-1.836,-1.8898,-1.7138,-1.7256,-1.7491,-1.7719,-1.7608,-1.7256,-1.7373,-1.7602,-1.7719,-1.7719,-1.783,-1.7837,-1.7837,-1.7837,-1.796,-1.8083,-1.82,-1.8305,-1.8532,-1.8538,-1.8532,-1.8648,-1.8771,-1.8894,-1.9004,-1.9127,-1.9249,-1.9366,-1.9379,-1.9342,-1.9389,-1.9389,-1.9426,-1.914,-1.8894,-1.8777,-1.8777,-1.8777,-1.8777,-1.8771,-1.8648,-1.8532,-1.8532,-1.8415,-1.8286,-1.8286,-1.8364,-1.8269,-1.8026,-1.783,-1.7578,-1.741,-1.7159,-1.7067,-1.6968,-1.6821,-1.6863,-1.6873,-1.6761,-1.6844,-1.6671,-1.6223,-1.6245,-1.633,-1.6424,-1.6418,-1.653,-1.663,-1.6749,-1.6861,-1.6881,-1.6874,-1.7,-1.7006,-1.7112,-1.7331,-1.743,-1.7536,-1.7649,-1.7642,-1.7642,-1.7629,-1.7629,-1.7589,-1.7417,-1.7542,-1.7562,-1.7609,-1.7622,-1.7595,-1.7595,-1.7575,-1.7575,-1.7443,-1.7423,-1.7417,-1.743,-1.7575,-1.7629,-1.7788,-1.7756,-1.7615,-1.7829,-1.797,-1.805,-1.809,-1.8358,-1.8569,-1.8905,-1.9167,-1.9194,-1.8988,-1.8877,-1.922,-1.9651,-1.7479,-1.7602,-1.7849,-1.7966,-1.7966,-1.7719,-1.7726,-1.7972,-1.7972,-1.8194,-1.8421,-1.8305,-1.8305,-1.8305,-1.8421,-1.8421,-1.8421,-1.8538,-1.8655,-1.8881,-1.8881,-1.912,-1.9263,-1.9406,-1.9336,-1.9426,-1.9472,-1.9593,-1.9459,-1.9542,-1.9536,-1.9496,-1.9508,-1.9449,-1.9415,-1.9422,-1.9362,-1.9303,-1.9133,-1.9127,-1.9004,-1.8881,-1.8771,-1.8655,-1.8655,-1.8655,-1.8635,-1.8487,-1.8487,-1.8294,-1.8154,-1.8065,-1.7944,-1.7766,-1.7671,-1.7607,-1.7601,-1.7395,-1.724,-1.7559,-1.7461,-1.7145,-1.7086,-1.6983,-1.6838,-1.6914,-1.706,-1.7047,-1.7167,-1.7209,-1.7277,-1.7303,-1.7429,-1.7529,-1.7629,-1.7736,-1.7729,-1.7729,-1.7736,-1.7742,-1.7756,-1.7769,-1.7802,-1.7769,-1.7822,-1.7856,-1.7889,-1.7862,-1.7829,-1.7609,-1.7609,-1.7602,-1.7609,-1.7635,-1.7655,-1.7749,-1.7842,-1.7929,-1.7956,-1.7983,-1.807,-1.8171,-1.8428,-1.8625,-1.8796,-1.8947,-1.9104,-1.9262,-1.9416,-1.9653,-2.0024,-1.9792,-1.9548,-1.9818,-2.0093,-1.8188,-1.8181,-1.8311,-1.8305,-1.8305,-1.8188,-1.8188,-1.8305,-1.8305,-1.8298,-1.8421,-1.8421,-1.8532,-1.8421,-1.8648,-1.8765,-1.8887,-1.9004,-1.9127,-1.9249,-1.9386,-1.9372,-1.9446,-1.9683,-1.9646,-1.9746,-1.9833,-2.0026,-1.9967,-1.9826,-1.9953,-2.0087,-2.0073,-1.9927,-1.9927,-1.9967,-1.9831,-1.9623,-1.9555,-1.9386,-1.9249,-1.9243,-1.9127,-1.901,-1.901,-1.901,-1.901,-1.901,-1.901,-1.8726,-1.868,-1.8526,-1.8281,-1.8211,-1.8135,-1.8088,-1.8065,-1.7916,-1.8033,-1.8151,-1.8302,-1.8341,-1.8233,-1.7715,-1.7547,-1.7515,-1.774,-1.7675,-1.7771,-1.7744,-1.7853,-1.7859,-1.7968,-1.7961,-1.807,-1.8063,-1.8063,-1.8063,-1.8063,-1.8063,-1.807,-1.8063,-1.8083,-1.813,-1.8183,-1.821,-1.8203,-1.8156,-1.8076,-1.7862,-1.7762,-1.7769,-1.7816,-1.7896,-1.8003,-1.8103,-1.8196,-1.8257,-1.8374,-1.8455,-1.8605,-1.8803,-1.9064,-1.9264,-1.9403,-1.9703,-1.9953,-2.0024,-2.0081,-2.0521,-2.0764,-2.0492,-2.0265,-2.0511,-2.0562,-1.8421,-1.8421,-1.8532,-1.8765,-1.8997,-1.9113,-1.9113,-1.912,-1.8887,-1.8771,-1.8997,-1.9113,-1.9113,-1.9229,-1.9461,-1.9461,-1.9577,-1.97,-1.9822,-1.9843,-1.9822,-2.0007,-2.011,-2.0162,-2.0417,-2.0407,-2.0468,-2.0636,-2.049,-2.0335,-2.0322,-2.1025,-2.0814,-2.0739,-2.0684,-2.0629,-2.0506,-2.0155,-1.9854,-1.9603,-1.9419,-1.9379,-1.9372,-1.9366,-1.9366,-1.9366,-1.9366,-1.9366,-1.9243,-1.912,-1.912,-1.9004,-1.8771,-1.8758,-1.8848,-1.8722,-1.875,-1.8785,-1.8785,-1.8878,-1.9104,-1.921,-1.9063,-1.8718,-1.846,-1.8249,-1.8275,-1.8293,-1.8333,-1.847,-1.8477,-1.8484,-1.8477,-1.847,-1.847,-1.847,-1.847,-1.847,-1.8464,-1.8457,-1.845,-1.8444,-1.8464,-1.8504,-1.8484,-1.8417,-1.8384,-1.837,-1.8323,-1.821,-1.8123,-1.811,-1.8156,-1.8217,-1.8323,-1.85,-1.8658,-1.8782,-1.8927,-1.9057,-1.9237,-1.9459,-1.9612,-1.9794,-2.0103,-2.0294,-2.0605,-2.0663,-2.0742,-2.1145,-2.1211,-2.095,-2.0735,-2.0892,-2.0958,-1.8532,-1.8532,-1.8881,-1.9345,-1.9809,-2.004,-2.0155,-2.027,-1.9693,-1.9584,-1.9815,-2.0162,-2.0155,-2.004,-2.004,-2.0155,-2.004,-2.0162,-2.0224,-2.0319,-2.044,-2.0566,-2.0733,-2.1068,-2.1087,-2.1236,-2.1306,-2.1209,-2.1071,-2.0984,-2.1142,-2.1937,-2.204,-2.1825,-2.131,-2.1296,-2.1084,-2.0925,-2.0465,-2.005,-1.965,-1.9542,-1.9392,-1.9366,-1.9366,-1.9366,-1.9366,-1.9366,-1.9366,-1.9366,-1.9366,-1.9366,-1.9366,-1.9249,-1.9345,-1.9332,-1.9245,-1.9232,-1.9212,-1.9212,-1.9252,-1.9408,-1.9359,-1.9259,-1.8957,-1.8805,-1.8804,-1.8764,-1.8798,-1.8798,-1.8804,-1.8804,-1.8804,-1.8798,-1.8798,-1.8798,-1.8798,-1.8798,-1.8804,-1.8798,-1.8798,-1.8791,-1.8784,-1.8824,-1.8844,-1.8684,-1.8657,-1.8671,-1.8631,-1.8577,-1.8464,-1.8437,-1.8477,-1.8517,-1.8793,-1.8847,-1.9077,-1.9174,-1.9389,-1.9591,-1.9794,-1.9998,-2.0175,-2.0323,-2.0579,-2.0815,-2.1016,-2.1009,-2.0987,-2.1159,-2.1211,-2.1211,-2.1211,-2.1218,-2.1196,-1.9468,-1.9468,-1.9809,-2.004,-2.0155,-2.027,-2.027,-2.027,-2.0378,-2.0263,-2.027,-2.027,-2.027,-2.0385,-2.0385,-2.0385,-2.0385,-2.0571,-2.054,-2.0681,-2.0989,-2.132,-2.123,-2.1626,-2.1645,-2.1628,-2.1726,-2.1934,-2.1899,-2.181,-2.1742,-2.211,-2.2529,-2.2486,-2.192,-2.192,-2.1835,-2.1666,-2.131,-2.0757,-2.0274,-1.9791,-1.9626,-1.9472,-1.9502,-1.9502,-1.9495,-1.9482,-1.9482,-1.9366,-1.9366,-1.9366,-1.9366,-1.9366,-1.9366,-1.9366,-1.9366,-1.9366,-1.9366,-1.9366,-1.9366,-1.9366,-1.9366,-1.9366,-1.9305,-1.9212,-1.9145,-1.9132,-1.9118,-1.9105,-1.9105,-1.9105,-1.9105,-1.9105,-1.9105,-1.9105,-1.9105,-1.9105,-1.9112,-1.9118,-1.9118,-1.9112,-1.9098,-1.9118,-1.9158,-1.9165,-1.9178,-1.9172,-1.9125,-1.9052,-1.889,-1.8731,-1.8764,-1.8917,-1.9077,-1.9343,-1.959,-1.9892,-2.0047,-2.0253,-2.0459,-2.0573,-2.0694,-2.088,-2.1174,-2.1211,-2.1211,-2.1196,-2.1196,-2.1211,-2.1284,-2.132,-2.1313,-2.132,-2.1254,-1.9922,-2.004,-2.0385,-2.0615,-2.0737,-2.0852,-2.0967,-2.1074,-2.1303,-2.1189,-2.1074,-2.0852,-2.0737,-2.0737,-2.0852,-2.0852,-2.0996,-2.1249,-2.1489,-2.1664,-2.1853,-2.2198,-2.2319,-2.2551,-2.2791,-2.2792,-2.2872,-2.3076,-2.2856,-2.2827,-2.2812,-2.287,-2.3171,-2.3171,-2.2613,-2.2466,-2.2402,-2.2362,-2.2217,-2.1688,-2.1124,-2.064,-2.0322,-2.0116,-2.0014,-1.998,-1.9836,-1.9822,-1.9707,-1.9597,-1.9482,-1.9366,-1.9366,-1.9366,-1.9366,-1.9366,-1.9366,-1.9366,-1.9366,-1.9482,-1.9482,-1.9475,-1.9366,-1.9482,-1.9366,-1.9279,-1.9279,-1.9265,-1.9265,-1.9259,-1.9259,-1.9259,-1.9259,-1.9259,-1.9259,-1.9259,-1.9259,-1.9259,-1.9259,-1.9259,-1.9265,-1.9265,-1.9252,-1.9252,-1.9279,-1.9279,-1.9345,-1.9352,-1.9359,-1.9482,-1.9246,-1.9226,-1.9239,-1.93,-1.9462,-1.986,-2.0245,-2.0458,-2.073,-2.0816,-2.0894,-2.1052,-2.1203,-2.1211,-2.1211,-2.1211,-2.1211,-2.1284,-2.1233,-2.1211,-2.1328,-2.1459,-2.1459,-2.1511,-2.1591,-2.0111,-2.0486,-2.0723,-2.1074,-2.1318,-2.1668,-2.1888,-2.1995,-2.2108,-2.2108,-2.1888,-2.1554,-2.1325,-2.1439,-2.1554,-2.1668,-2.1865,-2.206,-2.2334,-2.2739,-2.3164,-2.3127,-2.3459,-2.3809,-2.3762,-2.3799,-2.3845,-2.386,-2.386,-2.372,-2.3728,-2.3736,-2.3751,-2.3634,-2.337,-2.3238,-2.3193,-2.3179,-2.301,-2.2682,-2.2169,-2.1647,-2.111,-2.0907,-2.0885,-2.0641,-2.0473,-2.0354,-2.0245,-1.9972,-1.9747,-1.9707,-1.9591,-1.9707,-1.9597,-1.9597,-1.9707,-1.9584,-1.9461,-1.9584,-1.9461,-1.9461,-1.9468,-1.9475,-1.9597,-1.9597,-1.9597,-1.9482,-1.9482,-1.9482,-1.9482,-1.9366,-1.9366,-1.9366,-1.9366,-1.9366,-1.9366,-1.9366,-1.9366,-1.9366,-1.9366,-1.9366,-1.9366,-1.9366,-1.9366,-1.9366,-1.9366,-1.9366,-1.9482,-1.9591,-1.9483,-1.9651,-1.9773,-1.9848,-2.0012,-2.0134,-2.0608,-2.0737,-2.0967,-2.1089,-2.1211,-2.1211,-2.1211,-2.1225,-2.1225,-2.1328,-2.1393,-2.1474,-2.1386,-2.1372,-2.1554,-2.1759,-2.1781,-2.1862,-2.2067,-2.0685,-2.1439,-2.1767,-2.1881,-2.1888,-2.2002,-2.2116,-2.2116,-2.2108,-2.2108,-2.2108,-2.2002,-2.1888,-2.1888,-2.2002,-2.2033,-2.2139,-2.252,-2.2803,-2.3062,-2.3595,-2.3871,-2.4063,-2.4286,-2.4092,-2.4232,-2.4239,-2.4108,-2.4355,-2.4371,-2.4247,-2.3984,-2.4138,-2.4138,-2.3991,-2.386,-2.3736,-2.3736,-2.3736,-2.3536,-2.3222,-2.2566,-2.154,-2.1229,-2.1096,-2.1061,-2.097,-2.0774,-2.069,-2.0585,-2.0315,-2.0102,-2.0046,-2.0046,-2.0046,-1.9931,-2.0046,-1.9795,-1.9788,-1.9802,-1.9802,-1.9666,-1.9795,-2.0053,-2.0053,-2.0046,-2.0046,-1.9931,-1.9822,-1.9475,-1.9475,-1.9366,-1.9366,-1.9366,-1.9366,-1.9366,-1.9366,-1.9366,-1.9366,-1.9366,-1.9366,-1.9366,-1.9366,-1.9366,-1.9366,-1.9366,-1.9366,-1.9366,-1.9475,-1.9591,-1.972,-2.0053,-2.0277,-2.0378,-2.0486,-2.0486,-2.073,-2.0967,-2.1125,-2.1306,-2.1306,-2.1218,-2.1233,-2.1408,-2.1511,-2.1613,-2.1664,-2.1715,-2.1825,-2.1854,-2.1972,-2.2096,-2.2118,-2.2213,-2.241]},{"header":{"parameterUnit":"m.s-1","parameterCategory":1,"la1":31.0,"la2":29.5877,"lo1":-88.7671,"lo2":-86.6584,"dy":0.0162,"dx":0.0185,"nx":115,"ny":88,"refTime":"2023-07-20T00:00:00:Z","depth":0,"parameterNumber":3,"parameterNumberName":"V-component_of_WINDS"},"data":[0.0,0.0,0.0,0.0,0.0,0.0,0.0,0.0,0.0,0.0,0.0,0.0,0.0,0.0,0.0,0.0,0.0,0.0,0.0,0.0,0.0,0.0,0.0,0.0,0.0,0.0,0.0,0.0,0.0,0.0,0.0,0.0,0.0,0.0,0.0,0.0,0.0,0.0,0.0,0.0,0.0,0.0,0.0,0.0,0.0,0.0,0.0,0.0,0.0,0.0,0.0,0.0,0.0,0.0,0.0,0.0,0.0,0.0,0.0,0.0,0.0,0.0,0.0,0.0,0.0,0.0,0.0,0.0,0.0,0.0,0.0,0.0,0.0,0.0,0.0,0.0,0.0,0.0,0.0,0.0,0.0,0.0,0.0,0.0,0.0,0.0,0.0,0.0,0.0,0.0,0.0,0.0,0.0,0.0,0.0,0.0,0.0,0.0,0.0,0.0,0.0,0.0,0.0,0.0,0.0,0.0,0.0,0.0,0.0,0.0,0.0,0.0,0.0,0.0,0.0,0.0,0.0,0.0,0.0,0.0,0.0,0.0,0.0,0.0,0.0,0.0,0.0,0.0,0.0,0.0,0.0,0.0,0.0,0.0,0.0,0.0,0.0,0.0,0.0,0.0,0.0,0.0,0.0,0.0,0.0,0.0,0.0,0.0,0.0,0.0,0.0,0.0,0.0,0.0,0.0,0.0,0.0,0.0,0.0,0.0,0.0,0.0,0.0,0.0,0.0,0.0,0.0,0.0,0.0,0.0,0.0,0.0,0.0,0.0,0.0,0.0,0.0,0.0,0.0,0.0,0.0,0.0,0.0,0.0,0.0,0.0,0.0,0.0,0.0,0.0,0.0,0.0,0.0,0.0,0.0,0.0,0.0,0.0,0.0,0.0,0.0,0.0,0.0,0.0,0.0,0.0,0.0,0.0,0.0,0.0,0.0,0.0,0.0,0.0,0.0,0.0,0.0,0.0,0.0,0.0,0.0,0.0,0.0,0.0,0.0,0.0,0.0,0.0,0.0,0.0,0.0,0.0,0.0,0.0,0.0,0.0,0.0,0.0,0.0,0.0,0.0,0.0,0.0,0.0,0.0,0.0,0.0,0.0,0.0,0.0,0.0,0.0,0.0,0.0,0.0,0.0,0.0,0.0,0.0,0.0,0.0,0.0,0.0,0.0,0.0,0.0,0.0,0.0,0.0,0.0,0.0,0.0,0.0,0.0,0.0,0.0,0.0,0.0,0.0,0.0,0.0,0.0,0.0,0.0,0.0,0.0,0.0,0.0,0.0,0.0,0.0,0.0,0.0,0.0,0.0,0.0,0.0,0.0,0.0,0.0,0.0,0.0,0.0,0.0,0.0,0.0,0.0,0.0,0.0,0.0,0.0,0.0,0.0,0.0,0.0,0.0,0.0,0.0,0.0,0.0,0.0,0.0,0.0,0.0,0.0,0.0,0.0,0.0,0.0,0.0,0.0,0.0,0.0,0.0,0.0,0.0,0.0,0.0,0.0,0.0,0.0,0.0,0.0,0.0,0.0,0.0,0.0,0.0,0.0,0.0,0.0,0.0,0.0,0.0,0.0,0.0,0.0,0.0,0.0,0.0,0.0,0.0,0.0,0.0,0.0,0.0,0.0,0.0,0.0,0.0,0.0,0.0,0.0,0.0,0.0,0.0,0.0,0.0,0.0,0.0,0.0,0.0,0.0,0.0,0.0,0.0,0.0,0.0,0.0,0.0,0.0,0.0,0.0,0.0,0.0,0.0,0.0,0.0,0.0,0.0,0.0,0.0,0.0,0.0,0.0,0.0,0.0,0.0,0.0,0.0,0.0,0.0,0.0,0.0,0.0,0.0,0.0,0.0,0.0,0.0,0.0,0.0,0.0,0.0,0.0,0.0,0.0,0.0,0.0,0.0,0.0,0.0,0.0,0.0,0.0,0.0,0.0,0.0,0.0,0.0,0.0,0.0,0.0,0.0,0.0,0.0,0.0,0.0,0.0,0.0,0.0,0.0,0.0,0.0,0.0,0.0,0.0,0.0,0.0,0.0,0.0,0.0,0.0,0.0,0.0,0.0,0.0,0.0,0.0,0.0,0.0,0.0,0.0,0.0,0.0,0.0,0.0,0.0,0.0,0.0,0.0,0.0,0.0,0.0,0.0,0.0,0.0,0.0,0.0,0.0,0.0,0.0,0.0,0.0,0.0,0.0,0.0,0.0,0.0,0.0,0.0,0.0,0.0,0.0,0.0,0.0,0.0,0.0,0.0,0.0,0.0,0.0,0.0,0.0,0.0,0.0,0.0,0.0,0.0,0.0,0.0,0.0,0.0,0.0,0.0,0.0,0.0,0.0,0.0,0.0,0.0,0.0,0.0,0.0,0.0,0.0,0.0,0.0,0.0,0.0,0.0,0.0,0.0,0.0,0.0,0.0,0.0,0.0,0.0,0.0,0.0,0.0,0.0,0.0,0.0,0.0,0.0,0.0,0.0,0.0,0.0,0.0,0.0,0.0,0.0,0.0,0.0,0.0,0.0,0.0,0.0,0.0,0.0,0.0,0.0,0.0,0.0,0.0,0.0,0.0,0.0,0.0,0.0,0.0,0.0,0.0,0.0,0.0,0.0,0.0,0.0,0.0,0.0,0.0,0.0,0.0,0.0,0.0,0.0,0.0,0.0,0.0,0.0,0.0,0.0,0.0,0.0,0.0,0.0,0.0,0.0,0.0,0.0,0.0,0.0,0.0,0.0,0.0,0.0,0.0,0.0,0.0,0.0,0.0,0.0,0.0,0.0,0.0,0.0,0.0,0.0,0.0,0.0,0.0,0.0,0.0,0.0,0.0,0.0,0.0,0.0,0.0,0.0,0.0,0.0,0.0,0.0,0.0,0.0,0.0,0.0,0.0,0.0,0.0,0.0,0.0,0.0,0.0,0.0,0.0,0.0,0.0,0.0,0.0,0.0,0.0,0.0,0.0,0.0,0.0,0.0,0.0,0.0,0.0,0.0,0.0,0.0,0.0,0.0,0.0,0.0,0.0,0.0,0.0,0.0,0.0,0.0,0.0,0.0,0.0,0.0,0.0,0.0,0.0,0.0,0.0,0.0,0.0,0.0,0.0,0.0,0.0,0.0,0.0,0.0,0.0,0.0,0.0,0.0,0.0,0.0,0.0,0.0,0.0,0.0,0.0,0.0,0.0,0.0,0.0,0.0,0.0,0.0,0.0,0.0,0.0,0.0,0.0,0.0,0.0,0.0,0.0,0.0,0.0,0.0,0.0,0.0,0.0,0.0,0.0,0.0,0.0,0.0,0.0,0.0,0.0,0.0,0.0,0.0,0.0,0.0,0.0,0.0,0.0,0.0,0.0,0.0,0.0,0.0,0.0,0.0,0.0,0.0,0.0,0.0,0.0,0.0,0.0,0.0,0.0,0.0,0.0,0.0,0.0,0.0,0.0,0.0,0.0,0.0,0.0,0.0,0.0,0.0,0.0,0.0,0.0,0.0,0.0,0.0,0.0,0.0,0.0,0.0,0.0,0.0,0.0,0.0,0.0,0.0,0.0,0.0,0.0,0.0,0.0,0.0,0.0,0.0,0.0,0.0,0.0,0.0,0.0,0.0,0.0,0.0,0.0,0.0,0.0,0.0,0.0,0.0,0.0,0.0,0.0,0.0,0.0,0.0,0.0,0.0,0.0,0.0,0.0,0.0,0.0,0.0,0.0,0.0,0.0,0.0,0.0,0.0,0.0,0.0,0.0,0.0,0.0,0.0,0.0,0.0,0.0,0.0,0.0,0.0,0.0,0.0,0.0,0.0,0.0,0.0,0.0,0.0,0.0,0.0,0.0,0.0,0.0,0.0,0.0,0.0,0.0,0.0,0.0,0.0,0.0,0.0,0.0,0.0,0.0,0.0,0.0,0.0,0.0,0.0,0.0,0.0,0.0,0.0,0.0,0.0,0.0,0.0,0.0,0.0,0.0,0.0,0.0,0.0,0.0,0.0,0.0,0.0,0.0,0.0,0.0,0.0,0.0,0.0,0.0,0.0,0.0,0.0,0.0,0.0,0.0,0.0,0.0,0.0,0.0,0.0,0.0,0.0,0.0,0.0,0.0,0.0,0.0,0.0,0.0,0.0,0.0,0.0,0.0,0.0,0.0,0.0,0.0,0.0,0.0,0.0,0.0,0.0,0.0,0.0,0.0,0.0,0.0,0.0,0.0,0.0,0.0,0.0,0.0,0.0,0.0,0.0,0.0,0.0,0.0,0.0,0.0,0.0,0.0,0.0,0.0,0.0,0.0,-1.9127,0.0,0.0,0.0,0.0,0.0,0.0,0.0,0.0,0.0,0.0,0.0,0.0,0.0,0.0,0.0,0.0,0.0,0.0,0.0,0.0,0.0,0.0,0.0,0.0,0.0,0.0,0.0,0.0,0.0,0.0,0.0,0.0,0.0,0.0,0.0,0.0,0.0,0.0,0.0,0.0,0.0,0.0,0.0,0.0,0.0,0.0,0.0,0.0,0.0,0.0,0.0,0.0,0.0,0.0,0.0,0.0,0.0,0.0,0.0,0.0,0.0,0.0,0.0,0.0,0.0,0.0,0.0,0.0,0.0,0.0,0.0,0.0,0.0,0.0,0.0,0.0,0.0,0.0,0.0,0.0,0.0,0.0,0.0,0.0,0.0,0.0,0.0,0.0,0.0,0.0,0.0,0.0,0.0,0.0,0.0,0.0,0.0,0.0,0.0,0.0,0.0,0.0,0.0,0.0,0.0,0.0,0.0,0.0,0.0,0.0,-2.1207,-2.1199,-2.1212,-2.0825,-2.0039,0.0,0.0,0.0,0.0,0.0,0.0,0.0,0.0,0.0,0.0,0.0,0.0,0.0,0.0,0.0,0.0,0.0,0.0,0.0,0.0,0.0,0.0,0.0,0.0,0.0,0.0,0.0,0.0,0.0,0.0,0.0,0.0,0.0,0.0,0.0,0.0,0.0,0.0,0.0,0.0,0.0,0.0,0.0,0.0,0.0,0.0,0.0,0.0,0.0,0.0,0.0,0.0,0.0,0.0,0.0,0.0,0.0,0.0,0.0,0.0,0.0,0.0,0.0,0.0,0.0,0.0,0.0,0.0,0.0,0.0,0.0,0.0,0.0,0.0,0.0,0.0,0.0,0.0,0.0,0.0,0.0,0.0,0.0,0.0,0.0,0.0,0.0,0.0,0.0,0.0,0.0,0.0,0.0,0.0,0.0,0.0,0.0,0.0,0.0,0.0,0.0,0.0,0.0,0.0,0.0,0.0,0.0,0.0,0.0,0.0,0.0,0.0,-2.1908,-2.1439,-2.0653,0.0,0.0,0.0,0.0,0.0,0.0,0.0,0.0,0.0,0.0,0.0,0.0,0.0,0.0,0.0,0.0,0.0,0.0,0.0,0.0,0.0,0.0,0.0,0.0,0.0,0.0,0.0,0.0,0.0,0.0,0.0,0.0,0.0,0.0,0.0,0.0,0.0,0.0,0.0,0.0,0.0,0.0,0.0,0.0,0.0,0.0,0.0,0.0,0.0,0.0,0.0,0.0,0.0,0.0,0.0,0.0,0.0,0.0,0.0,0.0,0.0,0.0,0.0,0.0,0.0,0.0,0.0,0.0,0.0,0.0,0.0,0.0,0.0,0.0,0.0,0.0,0.0,0.0,0.0,0.0,0.0,0.0,0.0,0.0,0.0,0.0,0.0,0.0,0.0,0.0,0.0,0.0,0.0,0.0,0.0,0.0,0.0,0.0,0.0,0.0,0.0,0.0,0.0,0.0,0.0,0.0,0.0,0.0,0.0,0.0,-2.2987,-2.2982,-2.2263,0.0,-2.0679,0.0,0.0,0.0,0.0,0.0,0.0,0.0,0.0,0.0,0.0,0.0,0.0,0.0,0.0,0.0,0.0,0.0,0.0,0.0,0.0,0.0,0.0,0.0,0.0,0.0,0.0,0.0,0.0,0.0,0.0,0.0,0.0,0.0,0.0,0.0,0.0,0.0,0.0,0.0,0.0,0.0,0.0,0.0,0.0,0.0,0.0,0.0,0.0,0.0,0.0,0.0,0.0,0.0,0.0,0.0,0.0,0.0,0.0,0.0,0.0,0.0,0.0,0.0,0.0,0.0,0.0,0.0,0.0,0.0,0.0,0.0,0.0,0.0,0.0,0.0,0.0,0.0,0.0,0.0,0.0,0.0,0.0,0.0,0.0,0.0,0.0,0.0,0.0,0.0,0.0,0.0,0.0,0.0,0.0,0.0,0.0,0.0,0.0,0.0,0.0,0.0,0.0,0.0,0.0,0.0,0.0,0.0,0.0,0.0,0.0,-2.386,-2.3866,-2.2563,-2.1689,0.0,0.0,0.0,0.0,0.0,0.0,0.0,0.0,0.0,0.0,0.0,0.0,0.0,0.0,0.0,0.0,0.0,0.0,0.0,0.0,0.0,0.0,0.0,0.0,0.0,0.0,0.0,0.0,0.0,0.0,0.0,0.0,0.0,0.0,0.0,0.0,0.0,0.0,0.0,0.0,0.0,0.0,0.0,0.0,0.0,0.0,0.0,0.0,0.0,0.0,0.0,0.0,0.0,0.0,0.0,0.0,0.0,0.0,0.0,0.0,0.0,0.0,0.0,0.0,0.0,0.0,0.0,0.0,0.0,0.0,0.0,0.0,0.0,0.0,0.0,0.0,0.0,0.0,0.0,0.0,0.0,0.0,0.0,0.0,0.0,0.0,0.0,0.0,0.0,0.0,0.0,0.0,0.0,0.0,0.0,0.0,0.0,0.0,0.0,0.0,0.0,0.0,0.0,0.0,0.0,0.0,0.0,0.0,0.0,0.0,-2.4616,-2.4609,-2.43,-2.292,-2.2032,-2.1767,0.0,0.0,0.0,0.0,0.0,0.0,0.0,0.0,0.0,0.0,0.0,0.0,0.0,0.0,0.0,0.0,0.0,0.0,0.0,0.0,0.0,0.0,0.0,0.0,0.0,0.0,0.0,0.0,0.0,0.0,0.0,0.0,0.0,0.0,0.0,0.0,0.0,0.0,0.0,0.0,0.0,0.0,0.0,0.0,0.0,0.0,0.0,0.0,0.0,0.0,0.0,0.0,0.0,0.0,0.0,0.0,0.0,0.0,0.0,0.0,0.0,0.0,0.0,0.0,0.0,0.0,0.0,0.0,0.0,0.0,0.0,0.0,0.0,0.0,0.0,0.0,0.0,0.0,0.0,0.0,0.0,0.0,0.0,0.0,0.0,0.0,0.0,0.0,0.0,0.0,0.0,0.0,0.0,0.0,0.0,0.0,0.0,0.0,0.0,0.0,0.0,0.0,0.0,0.0,0.0,0.0,0.0,0.0,-2.441,-2.5129,-2.5128,-2.4251,-2.3392,-2.2555,0.0,0.0,0.0,0.0,0.0,0.0,0.0,0.0,0.0,0.0,0.0,0.0,0.0,0.0,0.0,0.0,0.0,0.0,0.0,0.0,0.0,0.0,0.0,0.0,0.0,0.0,0.0,0.0,0.0,0.0,0.0,0.0,0.0,0.0,0.0,0.0,0.0,0.0,0.0,0.0,0.0,0.0,0.0,0.0,0.0,0.0,0.0,0.0,0.0,0.0,0.0,0.0,0.0,0.0,0.0,0.0,0.0,0.0,0.0,0.0,0.0,0.0,0.0,0.0,0.0,0.0,0.0,0.0,0.0,0.0,0.0,0.0,0.0,0.0,0.0,0.0,0.0,0.0,0.0,0.0,0.0,0.0,0.0,0.0,0.0,0.0,0.0,0.0,0.0,0.0,0.0,0.0,0.0,0.0,0.0,0.0,0.0,0.0,0.0,0.0,0.0,0.0,0.0,0.0,0.0,0.0,0.0,0.0,0.0,-2.5132,-2.5273,-2.5164,-2.4774,-2.3998,-2.3198,0.0,0.0,0.0,0.0,0.0,0.0,0.0,0.0,0.0,0.0,0.0,0.0,0.0,0.0,0.0,0.0,0.0,0.0,0.0,0.0,0.0,0.0,0.0,0.0,0.0,0.0,0.0,0.0,0.0,0.0,0.0,0.0,0.0,0.0,0.0,0.0,0.0,0.0,0.0,0.0,0.0,0.0,0.0,0.0,0.0,0.0,0.0,0.0,0.0,0.0,0.0,0.0,0.0,0.0,0.0,0.0,0.0,0.0,0.0,0.0,0.0,0.0,0.0,0.0,0.0,0.0,0.0,0.0,0.0,0.0,0.0,0.0,0.0,0.0,0.0,0.0,0.0,0.0,0.0,0.0,0.0,0.0,0.0,0.0,0.0,0.0,0.0,0.0,0.0,0.0,0.0,0.0,0.0,0.0,0.0,0.0,0.0,0.0,0.0,0.0,0.0,0.0,0.0,0.0,0.0,0.0,0.0,0.0,0.0,-2.5335,0.0,-2.4979,-2.4886,-2.4175,-2.3438,0.0,0.0,0.0,0.0,0.0,0.0,0.0,0.0,0.0,0.0,0.0,0.0,0.0,0.0,0.0,0.0,0.0,0.0,0.0,0.0,0.0,0.0,0.0,0.0,0.0,0.0,0.0,0.0,0.0,0.0,0.0,0.0,0.0,0.0,0.0,0.0,0.0,0.0,0.0,0.0,0.0,0.0,0.0,0.0,0.0,0.0,0.0,0.0,0.0,0.0,0.0,0.0,0.0,0.0,0.0,0.0,0.0,0.0,0.0,0.0,0.0,0.0,0.0,0.0,0.0,0.0,0.0,0.0,0.0,0.0,0.0,0.0,0.0,0.0,0.0,0.0,0.0,0.0,0.0,0.0,0.0,0.0,0.0,0.0,0.0,0.0,0.0,0.0,0.0,0.0,0.0,0.0,0.0,0.0,0.0,0.0,0.0,0.0,0.0,0.0,0.0,0.0,0.0,0.0,0.0,0.0,0.0,0.0,-2.4516,-2.4877,-2.4692,-2.4557,-2.4468,-2.386,-2.3208,0.0,0.0,0.0,0.0,0.0,0.0,0.0,0.0,0.0,0.0,0.0,0.0,0.0,0.0,0.0,0.0,0.0,0.0,0.0,0.0,0.0,0.0,0.0,0.0,0.0,0.0,0.0,0.0,0.0,0.0,0.0,0.0,0.0,0.0,0.0,0.0,0.0,0.0,0.0,0.0,0.0,0.0,0.0,0.0,0.0,0.0,0.0,0.0,0.0,0.0,0.0,0.0,0.0,0.0,0.0,0.0,0.0,0.0,0.0,0.0,0.0,0.0,0.0,0.0,0.0,0.0,0.0,0.0,0.0,0.0,0.0,0.0,0.0,0.0,0.0,0.0,0.0,0.0,0.0,0.0,0.0,0.0,0.0,0.0,0.0,0.0,0.0,0.0,0.0,0.0,0.0,0.0,0.0,0.0,0.0,0.0,0.0,0.0,0.0,0.0,0.0,0.0,0.0,0.0,0.0,0.0,0.0,0.0,0.0,-2.4551,-2.4227,-2.4026,-2.4003,-2.3951,-2.3659,0.0,0.0,0.0,0.0,0.0,0.0,0.0,0.0,0.0,0.0,0.0,0.0,0.0,0.0,0.0,0.0,0.0,0.0,0.0,0.0,0.0,0.0,0.0,0.0,0.0,0.0,0.0,0.0,0.0,0.0,0.0,0.0,0.0,0.0,0.0,0.0,0.0,0.0,0.0,0.0,0.0,0.0,0.0,0.0,0.0,0.0,0.0,0.0,0.0,0.0,0.0,0.0,0.0,0.0,0.0,0.0,0.0,0.0,0.0,0.0,0.0,0.0,0.0,0.0,0.0,0.0,0.0,0.0,0.0,0.0,0.0,0.0,0.0,0.0,0.0,0.0,0.0,0.0,0.0,0.0,0.0,0.0,0.0,0.0,0.0,0.0,0.0,0.0,0.0,0.0,0.0,0.0,0.0,0.0,0.0,0.0,0.0,0.0,0.0,0.0,0.0,0.0,0.0,0.0,0.0,0.0,0.0,0.0,0.0,-2.3839,-2.3625,-2.3472,-2.3392,-2.3645,-2.3621,-2.3232,0.0,0.0,0.0,0.0,0.0,0.0,0.0,0.0,0.0,0.0,0.0,0.0,0.0,0.0,0.0,0.0,0.0,0.0,0.0,0.0,0.0,0.0,0.0,0.0,0.0,0.0,0.0,0.0,0.0,0.0,0.0,0.0,0.0,0.0,0.0,0.0,0.0,0.0,0.0,0.0,0.0,0.0,0.0,0.0,0.0,0.0,0.0,0.0,0.0,0.0,0.0,0.0,0.0,0.0,0.0,0.0,0.0,0.0,0.0,0.0,0.0,0.0,0.0,0.0,0.0,0.0,0.0,0.0,0.0,0.0,0.0,0.0,0.0,0.0,0.0,0.0,0.0,0.0,0.0,0.0,0.0,0.0,0.0,0.0,0.0,0.0,0.0,0.0,0.0,0.0,0.0,0.0,0.0,0.0,0.0,0.0,0.0,0.0,0.0,0.0,0.0,0.0,0.0,0.0,0.0,0.0,0.0,0.0,-2.2922,-2.292,-2.2857,-2.2669,-2.3087,-2.3214,0.0,0.0,0.0,0.0,0.0,0.0,0.0,0.0,0.0,0.0,0.0,0.0,0.0,0.0,0.0,0.0,0.0,0.0,0.0,0.0,0.0,0.0,0.0,0.0,0.0,0.0,0.0,0.0,0.0,0.0,0.0,0.0,0.0,0.0,0.0,0.0,0.0,0.0,0.0,0.0,0.0,0.0,0.0,0.0,0.0,0.0,0.0,0.0,0.0,0.0,0.0,0.0,0.0,0.0,0.0,0.0,0.0,0.0,0.0,0.0,0.0,0.0,0.0,0.0,0.0,0.0,0.0,0.0,0.0,0.0,0.0,0.0,0.0,0.0,0.0,0.0,0.0,0.0,0.0,0.0,0.0,0.0,0.0,0.0,0.0,0.0,0.0,0.0,0.0,0.0,0.0,0.0,0.0,0.0,0.0,0.0,0.0,0.0,0.0,0.0,0.0,0.0,0.0,0.0,0.0,0.0,0.0,0.0,0.0,-2.3061,-2.2493,-2.2167,-2.213,-2.2983,-2.3439,0.0,0.0,0.0,0.0,0.0,0.0,0.0,0.0,0.0,0.0,0.0,0.0,0.0,0.0,0.0,0.0,0.0,0.0,0.0,0.0,0.0,0.0,0.0,0.0,0.0,0.0,0.0,0.0,0.0,0.0,0.0,0.0,0.0,0.0,0.0,0.0,0.0,0.0,0.0,0.0,0.0,0.0,0.0,0.0,0.0,0.0,0.0,0.0,0.0,0.0,0.0,0.0,0.0,0.0,0.0,0.0,0.0,0.0,0.0,0.0,0.0,0.0,0.0,0.0,0.0,0.0,0.0,0.0,0.0,0.0,0.0,0.0,0.0,0.0,0.0,0.0,0.0,0.0,0.0,0.0,0.0,0.0,0.0,0.0,0.0,0.0,0.0,0.0,0.0,0.0,0.0,0.0,0.0,0.0,0.0,0.0,0.0,0.0,0.0,0.0,0.0,0.0,0.0,0.0,0.0,0.0,0.0,0.0,-2.3403,-2.2815,-2.2643,-2.2397,-2.2036,-2.3081,-2.3695,0.0,0.0,0.0,0.0,0.0,0.0,0.0,0.0,0.0,0.0,0.0,0.0,0.0,0.0,0.0,0.0,0.0,0.0,0.0,0.0,0.0,0.0,0.0,0.0,0.0,0.0,0.0,0.0,0.0,0.0,0.0,0.0,0.0,0.0,0.0,0.0,0.0,0.0,0.0,0.0,0.0,0.0,0.0,0.0,0.0,0.0,0.0,0.0,0.0,0.0,0.0,0.0,0.0,0.0,0.0,0.0,0.0,0.0,0.0,0.0,0.0,0.0,0.0,0.0,0.0,0.0,0.0,0.0,0.0,0.0,0.0,0.0,0.0,0.0,0.0,0.0,0.0,0.0,0.0,0.0,0.0,0.0,0.0,0.0,0.0,0.0,0.0,0.0,0.0,0.0,0.0,0.0,0.0,0.0,0.0,0.0,0.0,0.0,0.0,0.0,0.0,0.0,0.0,0.0,0.0,0.0,0.0,0.0,-2.3539,-2.2491,-2.3075,-2.3103,-2.2463,-2.3326,-2.3921,0.0,0.0,0.0,0.0,0.0,0.0,0.0,0.0,0.0,0.0,0.0,0.0,0.0,0.0,0.0,0.0,0.0,0.0,0.0,0.0,0.0,0.0,0.0,0.0,0.0,0.0,0.0,0.0,0.0,0.0,0.0,0.0,0.0,0.0,0.0,0.0,0.0,0.0,0.0,0.0,0.0,0.0,0.0,0.0,0.0,0.0,0.0,0.0,0.0,0.0,0.0,0.0,0.0,0.0,0.0,0.0,0.0,0.0,0.0,0.0,0.0,0.0,0.0,0.0,0.0,0.0,0.0,0.0,0.0,0.0,0.0,0.0,0.0,0.0,0.0,0.0,0.0,0.0,0.0,0.0,0.0,0.0,0.0,0.0,0.0,0.0,0.0,0.0,0.0,0.0,0.0,0.0,0.0,0.0,0.0,0.0,0.0,0.0,0.0,0.0,0.0,0.0,0.0,0.0,0.0,0.0,0.0,0.0,-2.343,-2.2887,-2.2902,-2.3178,-2.3625,-2.3988,-2.4049,0.0,0.0,0.0,0.0,0.0,0.0,0.0,0.0,0.0,0.0,0.0,0.0,0.0,0.0,0.0,0.0,0.0,0.0,0.0,0.0,0.0,0.0,0.0,0.0,0.0,0.0,0.0,0.0,0.0,0.0,0.0,0.0,0.0,0.0,0.0,0.0,0.0,0.0,0.0,0.0,0.0,0.0,0.0,0.0,0.0,0.0,0.0,0.0,-2.5779,0.0,0.0,0.0,0.0,0.0,0.0,0.0,0.0,0.0,0.0,0.0,0.0,0.0,0.0,0.0,0.0,0.0,0.0,0.0,0.0,0.0,0.0,0.0,0.0,0.0,0.0,0.0,0.0,0.0,0.0,0.0,0.0,0.0,0.0,0.0,0.0,0.0,0.0,0.0,0.0,0.0,0.0,0.0,0.0,0.0,0.0,0.0,0.0,0.0,0.0,0.0,0.0,0.0,0.0,0.0,0.0,0.0,0.0,0.0,-2.3816,-2.3394,-2.3299,-2.345,-2.3809,-2.4296,-2.4589,0.0,0.0,0.0,0.0,0.0,0.0,0.0,0.0,0.0,0.0,0.0,0.0,0.0,0.0,0.0,0.0,0.0,0.0,0.0,0.0,0.0,0.0,0.0,0.0,0.0,0.0,0.0,0.0,0.0,0.0,0.0,0.0,0.0,0.0,0.0,0.0,0.0,0.0,0.0,0.0,0.0,0.0,0.0,0.0,0.0,0.0,0.0,0.0,0.0,0.0,0.0,0.0,0.0,0.0,0.0,0.0,0.0,0.0,0.0,0.0,0.0,0.0,0.0,0.0,0.0,0.0,0.0,0.0,0.0,0.0,0.0,0.0,0.0,0.0,0.0,0.0,0.0,0.0,0.0,0.0,0.0,0.0,0.0,0.0,0.0,0.0,0.0,0.0,0.0,0.0,0.0,0.0,0.0,0.0,0.0,0.0,0.0,0.0,0.0,0.0,0.0,0.0,0.0,0.0,0.0,0.0,0.0,-2.469,-2.4261,-2.3824,-2.3805,-2.3782,-2.3681,-2.4424,-2.5179,-2.5867,0.0,0.0,0.0,0.0,0.0,0.0,0.0,0.0,0.0,0.0,0.0,0.0,0.0,0.0,0.0,0.0,0.0,0.0,0.0,0.0,0.0,0.0,0.0,0.0,0.0,0.0,0.0,0.0,0.0,0.0,0.0,0.0,0.0,0.0,0.0,0.0,0.0,0.0,-2.3334,-2.5444,0.0,0.0,0.0,0.0,0.0,0.0,0.0,0.0,-2.8194,0.0,0.0,0.0,0.0,0.0,0.0,0.0,0.0,0.0,0.0,0.0,0.0,0.0,0.0,0.0,0.0,0.0,0.0,0.0,0.0,0.0,0.0,0.0,0.0,0.0,0.0,0.0,0.0,0.0,0.0,0.0,0.0,0.0,0.0,0.0,0.0,0.0,0.0,0.0,0.0,0.0,0.0,0.0,0.0,0.0,0.0,0.0,0.0,0.0,0.0,0.0,0.0,0.0,0.0,0.0,0.0,-2.4915,-2.4638,-2.4327,-2.3909,-2.3917,-2.394,-2.3982,-2.4641,-2.557,-2.6599,0.0,0.0,0.0,0.0,0.0,0.0,0.0,0.0,0.0,0.0,0.0,0.0,0.0,0.0,0.0,0.0,0.0,0.0,0.0,0.0,0.0,0.0,0.0,0.0,0.0,0.0,0.0,0.0,0.0,0.0,0.0,0.0,0.0,0.0,0.0,0.0,0.0,0.0,0.0,-2.6136,-2.731,0.0,0.0,0.0,0.0,0.0,0.0,0.0,0.0,-2.8065,0.0,0.0,0.0,0.0,0.0,0.0,0.0,0.0,0.0,0.0,0.0,0.0,0.0,0.0,0.0,0.0,0.0,0.0,0.0,0.0,0.0,0.0,0.0,0.0,0.0,0.0,0.0,0.0,0.0,0.0,0.0,0.0,0.0,0.0,0.0,0.0,0.0,0.0,0.0,0.0,0.0,0.0,0.0,0.0,0.0,0.0,0.0,0.0,0.0,0.0,0.0,0.0,0.0,0.0,0.0,-2.5433,-2.5197,-2.4862,-2.4471,-2.4209,-2.4051,-2.4051,-2.4816,-2.5779,0.0,0.0,0.0,0.0,0.0,0.0,0.0,0.0,0.0,0.0,0.0,0.0,0.0,0.0,0.0,0.0,0.0,0.0,0.0,0.0,0.0,0.0,0.0,0.0,0.0,0.0,0.0,0.0,0.0,0.0,0.0,0.0,0.0,0.0,0.0,0.0,0.0,0.0,0.0,0.0,-2.7278,-2.8341,-2.9145,0.0,0.0,0.0,0.0,0.0,0.0,-2.9385,-2.9426,0.0,0.0,0.0,0.0,0.0,0.0,0.0,0.0,0.0,0.0,0.0,0.0,0.0,0.0,0.0,0.0,0.0,0.0,0.0,0.0,0.0,0.0,0.0,0.0,0.0,0.0,0.0,0.0,0.0,0.0,0.0,0.0,0.0,0.0,0.0,0.0,0.0,0.0,0.0,0.0,0.0,0.0,0.0,0.0,0.0,0.0,0.0,0.0,0.0,0.0,0.0,0.0,0.0,0.0,0.0,-2.6008,-2.5785,-2.548,-2.5102,-2.4527,-2.423,-2.4188,-2.4989,-2.5955,0.0,0.0,0.0,0.0,0.0,0.0,0.0,0.0,0.0,0.0,0.0,0.0,0.0,0.0,0.0,0.0,0.0,0.0,0.0,0.0,0.0,0.0,0.0,0.0,0.0,0.0,0.0,0.0,0.0,0.0,0.0,0.0,0.0,0.0,0.0,0.0,0.0,0.0,0.0,0.0,0.0,-2.9265,-2.9377,-2.9963,0.0,0.0,0.0,0.0,-3.0492,-3.054,0.0,0.0,0.0,0.0,0.0,0.0,0.0,0.0,0.0,0.0,0.0,0.0,0.0,0.0,0.0,0.0,0.0,0.0,0.0,0.0,0.0,0.0,0.0,0.0,0.0,0.0,0.0,0.0,0.0,0.0,0.0,0.0,0.0,0.0,0.0,0.0,0.0,0.0,0.0,0.0,0.0,0.0,0.0,0.0,0.0,0.0,0.0,0.0,0.0,0.0,0.0,0.0,0.0,0.0,0.0,0.0,-2.6103,-2.5948,-2.5744,-2.5454,-2.4997,-2.4655,-2.4533,-2.5373,-2.6302,0.0,0.0,0.0,0.0,0.0,0.0,0.0,0.0,0.0,0.0,0.0,0.0,0.0,0.0,0.0,0.0,0.0,0.0,0.0,0.0,0.0,0.0,0.0,0.0,0.0,0.0,0.0,0.0,0.0,0.0,0.0,0.0,0.0,0.0,0.0,0.0,0.0,0.0,0.0,0.0,0.0,-2.9402,-2.9992,-3.0203,-3.0304,0.0,0.0,-3.0414,-3.0428,-3.0471,0.0,0.0,0.0,0.0,0.0,0.0,0.0,0.0,0.0,0.0,0.0,0.0,0.0,0.0,0.0,0.0,0.0,0.0,0.0,0.0,0.0,0.0,0.0,0.0,0.0,0.0,0.0,0.0,0.0,0.0,0.0,0.0,0.0,0.0,0.0,0.0,0.0,0.0,0.0,0.0,0.0,0.0,0.0,0.0,0.0,0.0,0.0,0.0,0.0,0.0,0.0,0.0,0.0,0.0,0.0,-2.6782,-2.6786,-2.6727,-2.6519,-2.6168,-2.5806,-2.579,-2.6062,-2.6504,-2.7147,0.0,0.0,0.0,0.0,0.0,0.0,0.0,0.0,0.0,0.0,0.0,0.0,0.0,0.0,0.0,0.0,0.0,0.0,0.0,0.0,0.0,0.0,0.0,0.0,0.0,0.0,0.0,0.0,0.0,0.0,0.0,0.0,0.0,0.0,0.0,0.0,0.0,0.0,0.0,0.0,0.0,0.0,-3.0163,-3.0603,0.0,0.0,0.0,-3.161,-3.1155,0.0,0.0,0.0,0.0,0.0,0.0,0.0,0.0,0.0,0.0,0.0,0.0,0.0,0.0,0.0,0.0,0.0,0.0,0.0,0.0,0.0,0.0,0.0,0.0,0.0,0.0,0.0,0.0,0.0,0.0,0.0,0.0,0.0,0.0,0.0,0.0,0.0,0.0,0.0,0.0,0.0,0.0,0.0,0.0,0.0,0.0,0.0,0.0,0.0,0.0,0.0,0.0,0.0,0.0,0.0,0.0,0.0,-2.7387,-2.7518,-2.7349,-2.6885,-2.6726,-2.688,-2.7294,-2.741,0.0,0.0,0.0,0.0,0.0,0.0,0.0,0.0,0.0,0.0,0.0,0.0,0.0,0.0,0.0,0.0,0.0,0.0,0.0,0.0,0.0,0.0,0.0,0.0,0.0,0.0,0.0,-2.3784,0.0,0.0,0.0,0.0,0.0,0.0,0.0,0.0,0.0,0.0,0.0,0.0,0.0,0.0,-3.0674,-3.0554,-3.124,-3.1776,0.0,0.0,-3.262,-3.2013,-3.1811,-3.1525,0.0,0.0,0.0,0.0,0.0,0.0,0.0,0.0,0.0,0.0,0.0,0.0,0.0,0.0,0.0,0.0,0.0,0.0,0.0,0.0,0.0,0.0,0.0,0.0,0.0,0.0,0.0,0.0,0.0,0.0,0.0,0.0,0.0,0.0,0.0,0.0,0.0,0.0,0.0,0.0,0.0,0.0,0.0,0.0,0.0,0.0,0.0,0.0,0.0,0.0,0.0,0.0,0.0,0.0,0.0,-2.7629,-2.8124,-2.8063,-2.7308,-2.7623,-2.7761,-2.764,-2.7785,-2.8216,0.0,0.0,0.0,0.0,0.0,0.0,0.0,0.0,0.0,0.0,0.0,0.0,0.0,0.0,0.0,0.0,0.0,0.0,0.0,0.0,0.0,0.0,0.0,0.0,0.0,0.0,0.0,0.0,0.0,0.0,0.0,0.0,0.0,0.0,0.0,0.0,0.0,0.0,0.0,0.0,0.0,-3.1573,-3.145,-3.2152,-3.2708,0.0,0.0,-3.2885,-3.2833,-3.2262,-3.1797,-3.1814,0.0,0.0,0.0,0.0,0.0,0.0,0.0,0.0,0.0,0.0,0.0,0.0,0.0,0.0,0.0,0.0,0.0,0.0,0.0,0.0,0.0,0.0,0.0,0.0,0.0,0.0,0.0,0.0,0.0,0.0,0.0,0.0,0.0,0.0,0.0,0.0,0.0,0.0,0.0,0.0,0.0,0.0,0.0,0.0,0.0,0.0,0.0,0.0,0.0,0.0,0.0,0.0,0.0,-2.8772,-2.9081,-2.8834,-2.8727,-2.8816,-2.8915,-2.9081,-2.9403,-2.9404,-2.9747,0.0,0.0,0.0,0.0,0.0,0.0,0.0,0.0,0.0,0.0,0.0,0.0,0.0,0.0,0.0,0.0,0.0,0.0,0.0,0.0,0.0,0.0,0.0,0.0,0.0,0.0,0.0,0.0,-2.7539,-2.7948,-2.8462,0.0,0.0,0.0,0.0,0.0,0.0,0.0,0.0,0.0,0.0,-3.1918,-3.2362,-3.3141,0.0,0.0,-3.4148,-3.4333,-3.3828,-3.3586,-3.3139,-3.212,-3.1732,0.0,0.0,0.0,0.0,0.0,0.0,0.0,0.0,0.0,0.0,0.0,0.0,0.0,0.0,0.0,0.0,0.0,0.0,0.0,0.0,0.0,0.0,0.0,0.0,0.0,0.0,0.0,0.0,0.0,0.0,0.0,0.0,0.0,0.0,0.0,0.0,0.0,0.0,0.0,0.0,0.0,0.0,0.0,0.0,0.0,0.0,0.0,0.0,0.0,0.0,0.0,0.0,-2.9565,-3.0083,-2.9751,-2.9673,-2.9939,-3.0012,-3.0199,-3.0642,-3.0547,-3.082,0.0,0.0,0.0,0.0,0.0,0.0,0.0,0.0,0.0,0.0,0.0,0.0,0.0,0.0,0.0,0.0,0.0,0.0,0.0,0.0,0.0,0.0,0.0,0.0,0.0,0.0,0.0,0.0,-2.8446,-2.8918,-2.9799,0.0,0.0,0.0,0.0,0.0,0.0,0.0,0.0,0.0,0.0,-3.2813,-3.3383,-3.4129,-3.4634,-3.465,-3.5187,-3.5394,-3.4835,-3.4632,-3.4117,-3.2979,0.0,0.0,0.0,0.0,0.0,0.0,0.0,0.0,0.0,0.0,0.0,0.0,0.0,0.0,0.0,0.0,0.0,0.0,0.0,0.0,0.0,0.0,0.0,0.0,0.0,0.0,0.0,0.0,0.0,0.0,-2.6792,0.0,0.0,0.0,0.0,0.0,0.0,0.0,0.0,0.0,0.0,0.0,0.0,0.0,0.0,0.0,0.0,0.0,0.0,0.0,0.0,0.0,0.0,-3.0734,-3.0331,-3.0894,-3.097,-3.0448,-3.0789,-3.0942,-3.0998,-3.0805,-3.0939,-3.1502,0.0,0.0,0.0,0.0,0.0,0.0,0.0,0.0,0.0,0.0,0.0,0.0,0.0,0.0,0.0,0.0,0.0,0.0,0.0,0.0,0.0,0.0,0.0,0.0,0.0,0.0,-2.8257,-2.8973,-2.981,0.0,0.0,0.0,0.0,0.0,0.0,0.0,0.0,0.0,0.0,-3.3405,-3.4426,-3.4464,-3.5156,-3.5611,-3.5641,-3.5745,-3.5793,-3.5737,-3.5111,-3.4588,0.0,0.0,0.0,0.0,0.0,0.0,0.0,0.0,0.0,0.0,0.0,0.0,0.0,0.0,0.0,0.0,0.0,0.0,0.0,0.0,0.0,0.0,0.0,0.0,0.0,0.0,0.0,-2.999,-3.007,0.0,0.0,0.0,0.0,0.0,0.0,0.0,0.0,0.0,0.0,0.0,-3.472,-3.4691,0.0,0.0,0.0,0.0,0.0,0.0,0.0,0.0,0.0,0.0,0.0,0.0,-3.1844,-3.1813,-3.1593,-3.1469,-3.1424,-3.1405,-3.1389,-3.1389,-3.1579,-3.1883,-3.2211,0.0,0.0,0.0,0.0,0.0,0.0,0.0,0.0,0.0,0.0,0.0,0.0,0.0,0.0,0.0,0.0,0.0,0.0,0.0,0.0,0.0,0.0,0.0,0.0,0.0,-2.9297,0.0,0.0,0.0,0.0,0.0,0.0,0.0,0.0,0.0,0.0,0.0,-3.2524,-3.3633,-3.4236,-3.4763,-3.5366,-3.5613,-3.5793,0.0,0.0,0.0,0.0,0.0,0.0,0.0,0.0,0.0,0.0,0.0,0.0,0.0,0.0,-3.4608,-3.3223,-3.297,-3.2883,-3.2591,0.0,0.0,0.0,0.0,0.0,0.0,0.0,0.0,0.0,0.0,0.0,0.0,0.0,0.0,0.0,0.0,-3.2847,0.0,0.0,0.0,0.0,0.0,0.0,0.0,0.0,-3.5376,-3.5825,-3.6209,-3.6166,-3.6093,0.0,-3.5526,-3.5084,0.0,0.0,0.0,0.0,0.0,0.0,0.0,0.0,-3.2627,-3.2637,-3.2527,-3.2446,-3.2457,-3.2496,-3.2541,-3.2579,-3.2809,-3.2943,-3.2999,-3.3179,-3.3204,0.0,0.0,0.0,0.0,0.0,0.0,0.0,0.0,0.0,0.0,0.0,0.0,0.0,0.0,0.0,0.0,0.0,0.0,0.0,0.0,0.0,0.0,0.0,-3.0743,0.0,0.0,0.0,0.0,0.0,0.0,0.0,0.0,0.0,-3.2635,-3.2821,-3.3431,-3.4553,-3.49,-3.5276,-3.5856,0.0,0.0,0.0,0.0,0.0,0.0,0.0,-3.572,-3.5206,-3.511,-3.4928,-3.436,-3.4725,-3.5285,-3.5811,0.0,0.0,-3.4081,-3.3823,-3.3741,-3.3468,-3.3385,-3.338,-3.338,-3.338,-3.3483,0.0,0.0,0.0,0.0,0.0,0.0,0.0,0.0,-3.4967,-3.5378,0.0,-3.4615,0.0,0.0,0.0,0.0,0.0,0.0,0.0,0.0,-3.7863,-3.7787,-3.7602,-3.749,-3.7432,-3.7349,-3.7394,-3.7414,-3.7279,-3.4552,0.0,0.0,0.0,0.0,0.0,0.0,-3.3194,-3.2914,-3.3707,-3.3944,-3.3582,-3.3992,-3.4279,-3.4414,-3.4353,-3.4196,-3.3899,-3.3538,-3.3462,-3.3769,-3.325,0.0,0.0,0.0,0.0,0.0,0.0,0.0,0.0,0.0,0.0,0.0,0.0,0.0,0.0,0.0,0.0,0.0,0.0,0.0,0.0,-3.1629,0.0,0.0,0.0,0.0,0.0,0.0,0.0,0.0,0.0,0.0,-3.3514,-3.4173,-3.4705,-3.4747,0.0,0.0,0.0,0.0,-3.5884,-3.5896,-3.5957,-3.5976,-3.5915,-3.5886,-3.588,-3.588,0.0,0.0,-3.5885,-3.5885,-3.5872,-3.5883,-3.5899,-3.5632,-3.4817,-3.4647,-3.4413,-3.3712,-3.3595,-3.3512,-3.3512,-3.3648,-3.3824,-3.8008,0.0,0.0,0.0,0.0,-3.6742,-3.69,-3.6962,-3.7274,-3.7428,-3.7435,-3.7205,0.0,0.0,0.0,0.0,0.0,0.0,-3.7656,-3.7939,-3.7708,-3.7852,-3.8224,-3.7483,-3.7431,-3.7999,-3.7431,-3.7175,-3.719,-3.6406,-3.5825,-3.5488,0.0,0.0,0.0,0.0,-3.5062,-3.5239,-3.5205,-3.5014,-3.4641,-3.4747,-3.4907,-3.51,-3.5339,-3.552,-3.5643,-3.5272,-3.5197,-3.5458,-3.4378,0.0,0.0,0.0,0.0,0.0,0.0,0.0,0.0,0.0,0.0,0.0,0.0,0.0,0.0,0.0,0.0,0.0,0.0,0.0,-3.2669,-3.2872,-3.313,0.0,0.0,0.0,0.0,0.0,0.0,0.0,0.0,0.0,-3.5232,-3.4919,-3.4941,0.0,0.0,-3.5976,-3.6015,-3.5976,-3.5955,-3.5929,-3.591,0.0,0.0,-3.5885,-3.5889,-3.584,-3.5826,-3.5823,-3.5826,-3.5845,-3.584,-3.5872,-3.5879,-3.5801,-3.5587,-3.5533,-3.5437,-3.5242,-3.5173,-3.5168,-3.5176,-3.5176,-3.5248,-3.9852,-3.9237,-3.8545,-3.8258,-3.8294,-3.8584,-3.8749,-3.8826,-3.9203,-3.934,-3.931,-3.8982,-3.8847,-3.8828,-3.8476,0.0,0.0,0.0,-3.8685,-3.8802,-3.8537,-3.8563,-3.879,-3.8184,-3.8128,-3.8577,-3.8109,-3.7891,-3.7922,-3.7699,-3.7451,-3.7129,0.0,0.0,-3.6474,-3.6166,-3.6066,-3.6221,-3.6144,-3.5987,-3.5703,-3.5971,-3.6111,-3.6056,-3.6318,-3.6461,-3.649,-3.6335,-3.6377,-3.6613,-3.5938,-3.546,0.0,0.0,0.0,0.0,0.0,0.0,0.0,0.0,0.0,0.0,0.0,-3.1901,0.0,0.0,0.0,0.0,-3.308,-3.3555,-3.3892,-3.391,0.0,0.0,0.0,0.0,0.0,0.0,0.0,-3.5207,-3.5676,-3.6004,-3.5994,-3.5519,-3.5376,-3.5929,-3.5982,-3.5957,-3.5957,0.0,-3.5935,-3.5864,-3.5855,-3.5866,-3.5872,-3.5864,-3.5838,-3.5776,-3.5771,-3.5754,-3.5743,-3.5779,-3.5815,-3.5842,-3.5857,-3.5872,-3.5845,-3.5879,-3.5883,-3.5883,-3.5897,-3.5891,-3.5898,-3.6171,-3.6372,-4.1103,-4.0961,-3.9384,-3.8717,-3.8773,-3.949,-3.9847,-3.9954,-4.0743,-4.1092,-4.103,-4.0305,-4.0,-3.9945,-3.9098,0.0,-3.9772,-3.9599,-3.9826,-4.0387,-4.0106,-3.9854,-3.9589,-3.9496,-3.9369,-3.9333,-3.9388,-3.9415,-3.9359,-3.8719,-3.8359,-3.8359,-3.7685,-3.7234,-3.6994,-3.6794,-3.6546,-3.6314,-3.6776,-3.6949,-3.6752,-3.7521,-3.7675,-3.7158,-3.733,-3.7246,-3.6848,-3.7026,-3.7211,-3.7423,-3.7679,-3.7482,-3.6837,0.0,0.0,0.0,0.0,0.0,0.0,0.0,0.0,0.0,0.0,0.0,0.0,0.0,0.0,0.0,-3.3618,0.0,-3.4822,-3.4967,0.0,0.0,0.0,-3.621,-3.6207,-3.6196,-3.6202,-3.6196,0.0,0.0,-3.6196,-3.6129,-3.6124,-3.6172,-3.6036,-3.5889,-3.5883,-3.5891,-3.5853,-3.5801,-3.5794,-3.5799,-3.5799,-3.5773,-3.5747,-3.5689,-3.5699,-3.5689,-3.5699,-3.5737,-3.5775,-3.5775,-3.5799,-3.5842,-3.5893,-3.5993,-3.6008,-3.6144,-3.6073,-3.6015,-3.6073,-3.6669,-3.7206,-4.198,-4.1889,-4.0896,-4.0447,-4.0432,-4.061,-4.103,-4.1615,-4.183,-4.2247,-4.2801,-4.2665,-4.2558,-4.251,-4.2295,-4.2199,-4.2226,-4.2079,-4.2027,-4.2023,-4.176,-4.1525,-4.1372,-4.1239,-4.1148,-4.1092,-4.1092,-4.1082,-4.0987,-4.0254,-3.9891,-3.9835,-3.9043,-3.8361,-3.7757,-3.7588,-3.771,-3.8071,-3.8054,-3.8002,-3.7972,-3.8212,-3.8387,-3.8449,-3.8559,-3.8625,-3.8738,-3.834,-3.8211,-3.8341,-3.8001,-3.7766,-3.7704,-3.7653,0.0,0.0,0.0,0.0,0.0,0.0,0.0,0.0,0.0,-3.3398,-3.3398,0.0,-3.4381,0.0,-3.5548,-3.6382,-3.659,-3.7203,0.0,0.0,-3.7979,-3.7988,-3.7982,-3.7926,-3.7909,-3.7894,-3.7897,-3.7898,-3.7907,-3.7851,-3.7813,-3.7805,-3.6716,-3.5885,-3.5833,-3.5813,-3.5811,-3.5838,-3.5868,-3.5773,-3.5785,-3.5689,-3.5687,-3.5615,-3.5631,-3.5631,-3.5635,-3.5637,-3.5649,-3.5718,-3.5718,-3.596,-3.6581,-3.6726,-3.6997,-3.7511,-3.7253,-3.6817,-3.6833,-3.7506,-3.8091,-4.2919,-4.288,-4.2437,-4.2217,-4.2128,-4.1733,-4.1816,-4.2228,-4.2587,-4.2984,-4.3404,-4.3404,-4.3393,-4.3342,-4.3331,-4.3197,-4.3041,-4.2904,-4.2757,-4.2547,-4.2347,-4.2159,-4.2032,-4.1946,-4.1865,-4.1782,-4.1764,-4.1754,-4.1651,-4.1222,-4.1017,-4.0999,-4.0533,-4.0086,-3.9611,-3.8767,-3.8467,-3.875,-3.8627,-3.8572,-3.8626,-3.873,-3.8855,-3.9073,-3.9129,-3.9293,-3.9526,-3.9236,-3.9167,-3.9354,-3.9106,-3.8837,-3.859,-3.8697,-3.8442,0.0,0.0,0.0,0.0,0.0,0.0,0.0,0.0,0.0,0.0,0.0,-3.6433,-3.6403,-3.7234,-3.7776,-3.7788,-3.8202,-3.8525,-3.8578,-3.8612,-3.8572,-3.8576,-3.8521,-3.8506,-3.8517,-3.8522,-3.848,-3.8462,-3.8427,-3.8385,-3.8399,-3.7583,-3.695,-3.6923,-3.6925,-3.689,-3.6881,-3.6851,-3.686,-3.6779,-3.6745,-3.6721,-3.6716,-3.6723,-3.671,-3.6716,-3.6709,-3.6733,-3.6764,-3.6767,-3.6906,-3.739,-3.7517,-3.771,-3.807,-3.8228,-3.8054,-3.7705,-3.8326,-3.8918,-4.386,-4.386,-4.3747,-4.3669,-4.3548,-4.2922,-4.2591,-4.2588,-4.3287,-4.3632,-4.3737,-4.366,-4.3634,-4.3614,-4.3564,-4.3458,-4.3325,-4.3196,-4.3061,-4.2851,-4.2739,-4.2602,-4.2479,-4.2422,-4.2326,-4.2273,-4.2246,-4.2219,-4.2137,-4.2043,-4.2006,-4.1987,-4.1875,-4.1782,-4.167,-4.017,-3.9322,-3.9146,-3.9084,-3.9054,-3.9119,-3.9163,-3.9219,-3.935,-3.942,-3.9545,-3.9739,-3.9821,-3.9965,-4.0234,-4.0344,-4.0114,-3.9509,-3.9605,-3.9314,0.0,-3.8544,0.0,0.0,0.0,0.0,0.0,0.0,0.0,0.0,-3.817,-3.8567,-3.8518,-3.8608,-3.8686,-3.8674,-3.8759,-3.8873,-3.8906,-3.8925,-3.8899,-3.8846,-3.8838,-3.8824,-3.8811,-3.8825,-3.8786,-3.879,-3.873,-3.8714,-3.8782,-3.8714,-3.8616,-3.8558,-3.8364,-3.8139,-3.8206,-3.8187,-3.795,-3.7939,-3.799,-3.799,-3.8015,-3.7924,-3.8073,-3.7963,-3.7976,-3.8034,-3.8028,-3.7977,-3.808,-3.8222,-3.8324,-3.8395,-3.86,-3.9154,-3.9313,-3.872,-3.9118,-3.9688,-4.4759,-4.4681,-4.3976,-4.3693,-4.372,-4.4255,-4.4429,-4.4314,-4.4461,-4.491,-4.5495,-4.5434,-4.5363,-4.5336,-4.5312,-4.5221,-4.5087,-4.5015,-4.494,-4.484,-4.4671,-4.4562,-4.4516,-4.4397,-4.4279,-4.4169,-4.4169,-4.4089,-4.3971,-4.3342,-4.3023,-4.3004,-4.231,-4.1972,-4.1927,0.0,0.0,0.0,-4.0542,-4.0267,-4.0268,-3.9758,-3.9551,-3.9623,-3.9689,0.0,-3.9996,-4.0082,-4.0193,-4.0362,-4.0444,0.0,0.0,0.0,0.0,0.0,0.0,0.0,0.0,0.0,0.0,0.0,-3.9009,-3.9036,-3.8427,-3.8443,-3.8518,-3.8537,-3.9138,-3.9572,-3.9641,-4.0227,-4.0624,-4.0625,-4.0633,-4.0629,-4.0602,-4.0535,-4.0513,-4.0526,-4.047,-4.0429,-4.0353,-4.0393,-4.0283,-4.0181,-4.0234,-4.023,-4.0121,-3.9057,-3.8245,-3.8125,-3.8247,-3.8157,-3.804,-3.8084,-3.8152,-3.7954,-3.7959,-3.7997,-3.8035,-3.8065,-3.8036,-3.8084,-3.8053,-3.8389,-3.9025,-3.916,-3.9367,-4.0023,-4.0249,-4.0146,-3.938,-3.9876,-4.0482,-4.5643,0.0,-4.5176,-4.4979,0.0,-4.5458,-4.5613,-4.554,-4.5514,-4.5702,-4.6037,-4.598,-4.5912,-4.5854,-4.5847,-4.5781,-4.5654,-4.5618,-4.5549,-4.5438,-4.532,-4.5218,-4.5197,-4.5129,-4.5033,-4.4895,-4.4895,-4.4821,-4.4674,-4.4297,-4.4089,-4.407,-4.3636,-4.3429,-4.3429,-4.3429,-4.2886,-4.1801,-4.1533,-4.1387,-4.1392,-4.1146,-4.106,-4.1127,0.0,0.0,0.0,0.0,0.0,0.0,0.0,0.0,0.0,0.0,0.0,-4.0313,-4.0315,-4.0188,-3.9825,-3.9797,-3.9764,-3.9794,-4.0176,-4.0288,-3.9878,-3.979,-3.9786,-3.9793,-4.0203,-4.0467,-4.05,-4.0858,-4.1112,-4.1103,-4.1104,-4.1085,-4.1047,-4.1025,-4.1,-4.0957,-4.0915,-4.0878,-4.0849,-4.0787,-4.073,-4.0706,-4.0668,-4.0629,-4.0535,-3.9926,-3.938,-3.9311,-3.9268,-3.9258,-3.9208,-3.9173,-3.9173,-3.9144,-3.9128,-3.9128,-3.9128,-3.9144,-3.9176,-3.9192,-3.9223,-3.9431,-3.9792,-3.9942,-4.0077,-4.0434,-4.053,-4.0448,-4.0039,-4.0318,-4.0635,-4.6306,-4.63,-4.6301,-4.6306,-4.6289,-4.6289,-4.6303,-4.6303,0.0,0.0,0.0,-4.6037,-4.5983,-4.5929,-4.5932,-4.5866,-4.5746,-4.5727,-4.5684,-4.5566,-4.5494,-4.5438,-4.5381,-4.536,-4.5277,-4.5192,-4.5151,-4.5065,-4.4991,-4.4948,-4.4967,-4.4986,-4.4986,-4.4986,-4.4967,-4.4967,-4.4164,-4.2655,-4.2491,-4.2498,-4.2496,-4.2528,-4.2574,-4.2635,-4.2716,-4.245,-4.1893,-4.1871,-4.1613,-4.1035,-4.1117,-4.1171,-4.1163,-4.1285,-4.1373,-4.136,-4.142,-4.1487,-4.1545,-4.1559,-4.1551,-4.154,-4.1566,-4.142,-4.1147,-4.1101,-4.1101,-4.1116,-4.1116,-4.1105,-4.1113,-4.1112,-4.1105,-4.1105,-4.11,-4.1047,-4.1007,-4.0993,-4.0964,-4.0917,-4.0869,-4.0849,-4.0796,-4.0718,-4.0681,-4.0675,-4.0635,-4.0564,-4.0573,-4.0492,-4.0395,-4.0319,-4.0249,-4.0372,-4.0377,-4.03,-4.0398,-4.0245,-4.0283,-4.0398,-4.0379,-4.0379,-4.0398,-4.0262,-4.0398,-4.0375,-4.0447,-4.0408,-4.0482,-4.0476,-4.0492,-4.0492,-4.0492,-4.0539,-4.0564,-4.6249,-4.6303,-4.6306,-4.6306,-4.629,-4.6305,-4.6289,-4.6303,-4.6234,-4.6209,-4.6189,-4.6102,-4.6085,-4.6075,-4.6014,-4.5937,-4.5861,-4.5874,-4.5833,0.0,-4.568,-4.5668,-4.5632,-4.5566,-4.5532,-4.5457,-4.54,-4.5302,-4.5241,-4.5256,-4.5254,-4.5254,-4.5235,-4.5235,-4.5254,-4.5235,-4.5118,-4.4829,-4.3999,-4.3583,-4.3555,-4.3043,-4.2757,-4.2776,-4.2871,-4.2905,-4.2876,-4.2893,-4.288,-4.2911,-4.2918,-4.2937,-4.3001,-4.3053,-4.317,-4.3205,-4.3233,-4.3221,-4.3239,-4.3305,-4.3329,-4.3349,-4.3333,-4.2728,-4.1264,-4.1108,-4.1099,-4.1112,-4.1152,-4.1113,-4.1111,-4.1116,-4.1109,-4.1109,-4.1039,-4.1007,-4.0991,-4.0952,-4.0917,-4.0888,-4.0804,-4.075,-4.0706,-4.0655,-4.0621,-4.0598,-4.0569,-4.0489,-4.0463,-4.0482,-4.0482,-4.0449,-4.0415,-4.0415,-4.0398,-4.0398,-4.0362,-4.0325,-4.0326,-4.0326,-4.0326,-4.0326,-4.0344,-4.0398,-4.0398,-4.0379,-4.0415,-4.0415,-4.0413,-4.0413,-4.043,-4.0413,-4.043,-4.0411,-4.0447,-4.6216,-4.6245,-4.6245,-4.6273,-4.6303,-4.6293,-4.6305,-4.6289,-4.6262,-4.6245,-4.625,-4.619,-4.6154,-4.6138,-4.6084,-4.6027,-4.6005,-4.6014,-4.596,-4.5912,-4.5841,-4.58,-4.5805,-4.5746,-4.5665,-4.5618,-4.5601,-4.553,-4.5476,-4.5457,-4.5477,-4.5458,-4.5458,-4.5477,-4.5458,-4.5458,-4.5458,-4.5438,-4.4937,-4.4666,-4.467,-4.4403,-4.4287,-4.4305,-4.4339,-4.4179,-4.3879,-4.3906,-4.3719,-4.3318,-4.3361,-4.3419,-4.3461,-4.3529,-4.3572,-4.3603,-4.3611,-4.361,-4.3651,-4.3675,-4.3704,-4.3704,-4.37,-4.3395,-4.2594,-4.2516,-4.2302,-4.1875,-4.1811,-4.1604,-4.1172,-4.1105,-4.1089,-4.1052,-4.1013,-4.0986,-4.0952,-4.0907,-4.0877,-4.0804,-4.0738,-4.0681,-4.0662,-4.0607,-4.0583,-4.0558,-4.0492,-4.043,-4.0362,-4.0379,-4.0379,-4.0342,-4.0362,-4.0363,-4.0364,-4.0346,-4.0346,-4.0328,-4.0328,-4.0328,-4.0328,-4.0328,-4.0309,-4.0346,-4.0327,-4.0345,-4.0344,-4.0362,-4.0362,-4.0398,-4.0398,-4.0398,-4.0398,-4.0379,-4.0379,-4.6644,-4.6507,-4.6493,-4.6431,-4.6296,-4.63,-4.6295,-4.6288,-4.6289,-4.6306,-4.629,-4.626,-4.6209,-4.619,-4.613,-4.6107,-4.6113,-4.6123,-4.6076,-4.6016,-4.5964,-4.5949,-4.5925,-4.5867,-4.5814,-4.5776,-4.5742,-4.5712,-4.5671,-4.5654,-4.5635,-4.5635,-4.5635,-4.5635,-4.5654,-4.5635,-4.5654,-4.5654,-4.555,-4.5477,-4.5438,-4.5513,-4.5566,-4.562,-4.5632,-4.5356,-4.4843,-4.4843,-4.4589,-4.3969,-4.3993,-4.4064,-4.4083,-4.4156,-4.4175,-4.4196,-4.4195,-4.4236,-4.4274,-4.4289,-4.4282,-4.4288,-4.4276,-4.4296,-4.4295,-4.4294,-4.3824,-4.2906,-4.2689,-4.2427,-4.1837,-4.1504,-4.1338,-4.1266,-4.1071,-4.0937,-4.0849,-4.0848,-4.0804,-4.0694,-4.0688,-4.0648,-4.0593,-4.0569,-4.0543,-4.046,-4.0394,-4.0362,-4.0326,-4.0308,-4.0308,-4.0308,-4.0308,-4.0309,-4.031,-4.0329,-4.031,-4.0329,-4.0329,-4.031,-4.031,-4.0329,-4.0329,-4.031,-4.031,-4.031,-4.0309,-4.0308,-4.0345,-4.0363,-4.0363,-4.04,-4.0363,-4.0345,-4.0326,-4.8032,-4.7423,-4.7385,-4.6947,-4.6386,-4.6335,-4.6342,-4.6329,-4.6307,-4.6289,-4.6288,-4.6293,-4.6245,-4.6206,-4.6209,-4.6177,-4.619,-4.6123,-4.608,-4.6091,-4.6085,-4.6085,-4.6066,-4.6016,-4.5983,-4.5949,-4.5905,-4.5867,-4.5847,-4.58,-4.5786,-4.5786,-4.5786,-4.5786,-4.5766,-4.5786,-4.5786,-4.5786,-4.5771,-4.5712,-4.5596,-4.5648,-4.5684,-4.568,-4.575,-4.5757,-4.5645,-4.575,-4.5757,-4.5742,-4.5705,-4.5755,-4.5821,-4.5901,-4.5942,-4.593,-4.5986,-4.6054,-4.6027,-4.6061,-4.5995,-4.6063,-4.5974,-4.5954,-4.5977,-4.6,-4.5347,-4.402,-4.3606,-4.347,-4.3325,-4.265,-4.2147,-4.1954,-4.1399,-4.0858,-4.0754,-4.0725,-4.07,-4.0635,-4.0612,-4.0588,-4.0539,-4.0511,-4.0466,-4.036,-4.0325,-4.0308,-4.031,-4.031,-4.031,-4.031,-4.031,-4.031,-4.0329,-4.0329,-4.0329,-4.0329,-4.0329,-4.0329,-4.0329,-4.0329,-4.0329,-4.0329,-4.0329,-4.031,-4.031,-4.031,-4.031,-4.0329,-4.0329,-4.0329,-4.031,-4.031,-4.031,-4.8524,-4.8221,-4.8207,-4.8061,-4.7722,-4.724,-4.7018,-4.6986,-4.651,-4.6303,-4.6289,-4.6297,-4.6296,-4.6269,-4.6245,-4.6255,-4.6206,-4.617,-4.6151,-4.6164,-4.6169,-4.6154,-4.6158,-4.613,-4.6113,-4.6076,-4.6037,-4.5997,-4.5972,-4.5929,-4.5929,-4.5929,-4.5929,-4.5929,-4.591,-4.591,-4.591,-4.5929,-4.5929,-4.5886,-4.5848,-4.5814,-4.5838,-4.5819,-4.5847,-4.5887,-4.5912,-4.5949,-4.5994,-4.6066,-4.6084,-4.6138,-4.6154,-4.617,-4.6228,-4.6254,-4.6279,-4.6296,-4.63,-4.6301,-4.6289,-4.6305,-4.6295,-4.6303,-4.6303,-4.627,-4.5903,-4.5286,-4.4721,-4.4208,-4.3695,-4.323,-4.281,-4.2287,-4.181,-4.1338,-4.0764,-4.0681,-4.0626,-4.0549,-4.0554,-4.0527,-4.0444,-4.0413,-4.0379,-4.0307,-4.0327,-4.031,-4.031,-4.0329,-4.0329,-4.0329,-4.0329,-4.0329,-4.0329,-4.0329,-4.0329,-4.0329,-4.0329,-4.0329,-4.0329,-4.0329,-4.0329,-4.0329,-4.0329,-4.0329,-4.0329,-4.0329,-4.0329,-4.0329,-4.0329,-4.0329,-4.0329,-4.0329,-4.031,-4.9216,-4.9012,-4.8816,-4.8733,-4.873,-4.8131,-4.786,-4.7795,-4.7233,-4.6973,-4.6987,-4.6991,-4.7004,-4.6963,-4.6546,-4.6397,-4.6577,-4.6572,-4.6723,-4.6889,-4.6916,-4.6911,-4.6918,-4.6898,-4.6885,-4.6843,-4.6886,-4.6686,-4.6416,-4.6377,-4.628,-4.6105,-4.6066,-4.6066,-4.6047,-4.6066,-4.6047,-4.6047,-4.6047,-4.6047,-4.6056,-4.6005,-4.596,-4.5925,-4.5929,-4.5983,-4.6025,-4.6017,-4.6066,-4.6113,-4.6181,-4.6203,-4.6209,-4.6215,-4.626,-4.63,-4.629,-4.6293,-4.629,-4.6289,-4.6307,-4.6306,-4.63,-4.627,-4.6254,-4.6222,-4.619,-4.6084,-4.5589,-4.492,-4.4398,-4.4015,-4.3558,-4.2945,-4.2594,-4.206,-4.1486,-4.1157,-4.0927,-4.0838,-4.0665,-4.0444,-4.0379,-4.0344,-4.0308,-4.0309,-4.031,-4.0329,-4.0329,-4.0329,-4.0329,-4.0329,-4.0329,-4.0329,-4.0329,-4.0329,-4.0329,-4.0329,-4.0329,-4.0329,-4.0329,-4.0329,-4.0329,-4.0329,-4.0329,-4.0329,-4.0329,-4.0329,-4.0329,-4.0329,-4.0348,-4.0368,-4.0329,-4.0329,-4.0444,-5.0542,-4.9776,-4.9031,-4.8803,-4.8729,-4.873,-4.8749,-4.8742,-4.863,-4.8623,-4.8568,-4.8669,-4.8753,-4.8588,-4.7128,-4.6783,-4.7474,-4.7533,-4.7884,-4.8466,-4.8567,-4.8655,-4.8669,-4.8674,-4.864,-4.844,-4.8418,-4.8087,-4.7357,-4.7338,-4.6936,-4.6293,-4.6266,-4.6227,-4.6247,-4.6208,-4.6196,-4.6169,-4.6189,-4.6189,-4.6169,-4.6189,-4.613,-4.6017,-4.6066,-4.6095,-4.6085,-4.6083,-4.6135,-4.6196,-4.6209,-4.6203,-4.6209,-4.627,-4.6303,-4.6287,-4.6289,-4.6288,-4.6306,-4.6305,-4.6284,-4.628,-4.626,-4.6215,-4.6203,-4.6196,-4.6154,-4.6122,-4.594,-4.5823,-4.5657,-4.5054,-4.4622,-4.4331,-4.3686,-4.3187,-4.293,-4.2124,-4.175,-4.1558,-4.1063,-4.0724,-4.046,-4.0328,-4.0444,-4.0425,-4.0368,-4.0348,-4.0329,-4.0329,-4.0329,-4.0329,-4.0329,-4.0329,-4.0329,-4.0329,-4.0329,-4.0329,-4.0329,-4.0329,-4.0329,-4.0329,-4.0329,-4.0329,-4.0329,-4.0329,-4.0329,-4.0329,-4.0368,-4.0406,-4.0501,-4.0501,-4.0903,-4.0501,-4.0711,-5.0933,-5.0658,-5.0362,-5.0257,-5.0246,-4.9773,-4.9562,-4.9529,-4.9015,-4.8796,-4.8796,-4.884,-4.8825,-4.8775,-4.8197,-4.8098,-4.8398,-4.8396,-4.8532,-4.8786,-4.8803,-4.8803,-4.8801,-4.8838,-4.8833,-4.8805,-4.879,-4.8635,-4.8359,-4.8301,-4.8145,-4.7813,-4.7306,-4.7033,-4.6936,-4.6488,-4.6209,-4.6209,-4.6209,-4.6209,-4.6215,-4.6209,-4.6157,-4.6137,-4.6154,-4.6154,-4.6162,-4.615,-4.6176,-4.6196,-4.6234,-4.6259,-4.6265,-4.6287,-4.6305,-4.6289,-4.63,-4.629,-4.63,-4.6277,-4.6245,-4.6234,-4.6222,-4.6183,-4.6146,-4.6113,-4.6066,-4.6047,-4.5975,-4.5929,-4.5835,-4.5589,-4.5196,-4.4659,-4.424,-4.3755,-4.3176,-4.2763,-4.2541,-4.2391,-4.2087,-4.1934,-4.182,-4.1877,-4.1686,-4.1189,-4.1074,-4.0864,-4.0444,-4.0329,-4.0425,-4.0348,-4.0329,-4.0329,-4.0329,-4.0329,-4.0329,-4.0329,-4.0329,-4.0329,-4.0329,-4.0329,-4.0329,-4.0329,-4.0329,-4.054,-4.0616,-4.0692,-4.0692,-4.1017,-4.1074,-4.1304,-4.182,-4.1533,-4.1781,-5.1095,-5.1088,-5.1093,-5.1128,-5.1093,-5.0616,-5.038,-5.033,-4.9834,-4.9595,-4.9601,-4.9594,-4.9625,-4.9625,-4.9639,-4.9655,-4.9648,-4.9402,-4.9365,-4.9641,-4.9623,-4.9625,-4.9645,-4.9687,-4.9687,-4.9645,-4.9619,-4.9511,-4.9228,-4.9228,-4.9072,-4.8743,-4.8197,-4.7923,-4.7787,-4.7081,-4.6651,-4.6612,-4.6378,-4.6222,-4.6241,-4.6241,-4.6241,-4.6238,-4.6225,-4.6211,-4.6215,-4.6222,-4.6215,-4.6245,-4.6277,-4.63,-4.6303,-4.6289,-4.6303,-4.6301,-4.6273,-4.627,-4.6264,-4.624,-4.6216,-4.6196,-4.6174,-4.6141,-4.6076,-4.6026,-4.5975,-4.5922,-4.5886,-4.5835,-4.5786,-4.5737,-4.5529,-4.5032,-4.4855,-4.4542,-4.3895,-4.3537,-4.3177,-4.2852,-4.2699,-4.2737,-4.2794,-4.2756,-4.2488,-4.1972,-4.1915,-4.1648,-4.1246,-4.1113,-4.1132,-4.1113,-4.1227,-4.1285,-4.1361,-4.1437,-4.0769,-4.0597,-4.054,-4.0482,-4.052,-4.0463,-4.0463,-4.0406,-4.054,-4.0788,-4.096,-4.1055,-4.138,-4.18,-4.1934,-4.2087,-4.2412,-4.2641,-4.2832,-5.1078,-5.1159,-5.1108,-5.1113,-5.1086,-5.1083,-5.1152,-5.1094,-5.1141,-5.1012,-5.095,-5.1167,-5.1037,-5.1232,-5.107,-5.1252,-5.1024,-5.038,-5.0464,-5.1093,-5.1171,-5.118,-5.1164,-5.1123,-5.1128,-5.1128,-5.1288,-5.0879,-5.0137,-5.0097,-4.9745,-4.9043,-4.8906,-4.8808,-4.8789,-4.8027,-4.7598,-4.7441,-4.6836,-4.6387,-4.6308,-4.6328,-4.6289,-4.6289,-4.6289,-4.6264,-4.6201,-4.6255,-4.6296,-4.6284,-4.6289,-4.6289,-4.6289,-4.6287,-4.6294,-4.6279,-4.624,-4.6215,-4.6206,-4.6196,-4.6196,-4.6181,-4.6143,-4.6074,-4.6019,-4.5999,-4.5937,-4.5854,-4.5814,-4.5771,-4.5696,-4.5703,-4.5671,-4.5673,-4.5486,-4.5376,-4.5187,-4.4614,-4.3809,-4.3196,-4.308,-4.2889,-4.287,-4.308,-4.3061,-4.2889,-4.2794,-4.2698,-4.245,-4.2374,-4.266,-4.2641,-4.2374,-4.2163,-4.2469,-4.266,-4.1705,-4.0941,-4.0864,-4.0826,-4.0998,-4.1017,-4.1094,-4.1094,-4.138,-4.1628,-4.1915,-4.2049,-4.2335,-4.2679,-4.2756,-4.2928,-4.3291,-4.3577,-4.3634,-5.1831,-5.1833,-5.128,-5.1056,-5.1082,-5.1125,-5.1128,-5.1159,-5.1201,-5.1249,-5.123,-5.1239,-5.1248,-5.1256,-5.1256,-5.1256,-5.1237,-5.0984,-5.1074,-5.1349,-5.1386,-5.1386,-5.1391,-5.1386,-5.139,-5.1386,-5.139,-5.1273,-5.1043,-5.0978,-5.0803,-5.0532,-4.9967,-4.9713,-4.9634,-4.8888,-4.8424,-4.8326,-4.7569,-4.7139,-4.7061,-4.6534,-4.6241,-4.6241,-4.6241,-4.6228,-4.6202,-4.6269,-4.6306,-4.6289,-4.6305,-4.6293,-4.63,-4.6255,-4.6234,-4.6234,-4.6216,-4.6183,-4.6156,-4.6137,-4.6122,-4.6075,-4.6037,-4.5991,-4.5932,-4.5893,-4.5841,-4.58,-4.5757,-4.5715,-4.5635,-4.562,-4.5622,-4.564,-4.5568,-4.5514,-4.5419,-4.5111,-4.484,-4.459,-4.4513,-4.4513,-4.4494,-4.4456,-4.4169,-4.373,-4.3634,-4.352,-4.3004,-4.2985,-4.2775,-4.2794,-4.2794,-4.3023,-4.3176,-4.3291,-4.2813,-4.2125,-4.1858,-4.1514,-4.159,-4.1667,-4.1724,-4.1953,-4.2221,-4.2526,-4.2794,-4.3042,-4.331,-4.3501,-4.3615,-4.394,-4.438,-4.4494,-4.4437,-5.2616,-5.2605,-5.1807,-5.1489,-5.1513,-5.1237,-5.1088,-5.1108,-5.1144,-5.1167,-5.1159,-5.1159,-5.1169,-5.1161,-5.1161,-5.118,-5.1161,-5.1161,-5.1211,-5.1292,-5.1362,-5.1362,-5.1369,-5.1362,-5.1382,-5.1356,-5.1356,-5.1356,-5.1375,-5.1366,-5.1347,-5.1219,-5.0805,-5.0533,-5.0452,-4.9712,-4.9244,-4.9133,-4.8418,-4.7975,-4.78,-4.7142,-4.6674,-4.6635,-4.6376,-4.622,-4.6201,-4.6241,-4.6256,-4.6276,-4.6261,-4.6264,-4.6265,-4.6228,-4.6196,-4.6164,-4.6169,-4.615,-4.6105,-4.6091,-4.6056,-4.6007,-4.5944,-4.5912,-4.5877,-4.5795,-4.5757,-4.5746,-4.57,-4.5654,-4.5586,-4.555,-4.5532,-4.5514,-4.5477,-4.5438,-4.5379,-4.5317,-4.5277,-4.5182,-4.522,-4.5277,-4.5277,-4.5258,-4.5105,-4.459,-4.4475,-4.4399,-4.3864,-4.3787,-4.3692,-4.3673,-4.3902,-4.3978,-4.3825,-4.3825,-4.3806,-4.3424,-4.3061,-4.2622,-4.2393,-4.2393,-4.245,-4.2889,-4.3214,-4.3596,-4.3883,-4.3978,-4.4169,-4.4322,-4.4418,-4.4666,-4.4934,-4.5029,-4.4991,-5.3415,-5.3372,-5.2594,-5.2221,-5.2113,-5.1499,-5.1164,-5.1067,-5.1101,-5.1108,-5.1095,-5.1108,-5.1108,-5.1093,-5.1093,-5.1113,-5.1093,-5.1081,-5.1081,-5.1136,-5.119,-5.1249,-5.1287,-5.1276,-5.1284,-5.1265,-5.1265,-5.1292,-5.1265,-5.1284,-5.1291,-5.1265,-5.1201,-5.124,-5.1023,-5.0435,-5.0065,-4.9968,-4.9262,-4.886,-4.8789,-4.8022,-4.756,-4.7501,-4.6787,-4.6372,-4.6391,-4.6268,-4.6196,-4.6209,-4.6201,-4.6195,-4.6203,-4.6203,-4.6162,-4.6099,-4.6102,-4.6093,-4.6084,-4.6047,-4.5994,-4.596,-4.5887,-4.581,-4.5789,-4.5738,-4.5684,-4.569,-4.562,-4.5568,-4.5495,-4.5457,-4.54,-4.5399,-4.5399,-4.5359,-4.5317,-4.5277,-4.5277,-4.5277,-4.5277,-4.5277,-4.5277,-4.5277,-4.5258,-4.5201,-4.5144,-4.5029,-4.501,-4.4857,-4.5144,-4.5067,-4.48,-4.4723,-4.4513,-4.4513,-4.4494,-4.4341,-4.4036,-4.373,-4.3386,-4.3367,-4.3424,-4.3845,-4.4074,-4.4494,-4.4743,-4.4723,-4.48,-4.4895,-4.5048,-4.5239,-4.5277,-4.5277,-4.5297,-5.4227,-5.4187,-5.3357,-5.268,-5.2177,-5.1899,-5.1486,-5.1014,-5.1005,-5.1034,-5.1081,-5.1095,-5.1075,-5.1089,-5.1042,-5.1029,-5.1009,-5.0981,-5.0947,-5.0947,-5.0976,-5.1056,-5.1147,-5.115,-5.115,-5.115,-5.115,-5.115,-5.115,-5.1142,-5.1162,-5.115,-5.1152,-5.1171,-5.1081,-5.0878,-5.085,-5.0753,-5.0043,-4.9644,-4.9545,-4.8833,-4.8405,-4.8288,-4.752,-4.7112,-4.7014,-4.6452,-4.6158,-4.6203,-4.6157,-4.613,-4.6142,-4.613,-4.6104,-4.6037,-4.6026,-4.6007,-4.5968,-4.5953,-4.5912,-4.5862,-4.58,-4.5785,-4.5742,-4.5673,-4.562,-4.5603,-4.5532,-4.5438,-4.5419,-4.54,-4.5379,-4.5338,-4.5317,-4.5317,-4.5317,-4.5277,-4.5277,-4.5277,-4.5277,-4.5277,-4.5277,-4.5297,-4.5297,-4.5277,-4.5277,-4.5277,-4.5256,-4.5256,-4.5256,-4.5277,-4.5144,-4.5201,-4.5201,-4.5201,-4.5182,-4.5086,-4.4934,-4.4838,-4.4628,-4.4609,-4.4704,-4.4934,-4.4723,-4.4972,-4.5086,-4.5125,-4.5258,-4.5277,-4.5277,-4.5277,-4.5277,-4.5277,-4.5297,-5.5035,-5.5017,-5.4169,-5.3533,-5.3069,-5.2412,-5.1829,-5.1382,-5.1029,-5.0945,-5.0979,-5.0979,-5.0979,-5.096,-5.0945,-5.0909,-5.0909,-5.0858,-5.0858,-5.0858,-5.0858,-5.0917,-5.099,-5.1017,-5.1017,-5.1017,-5.1037,-5.1017,-5.1011,-5.1004,-5.1023,-5.1017,-5.1024,-5.102,-5.1063,-5.1063,-5.1095,-5.1035,-5.0619,-5.0448,-5.0401,-4.9614,-4.9225,-4.8992,-4.8321,-4.7747,-4.7289,-4.6463,-4.6066,-4.6122,-4.6102,-4.6065,-4.6066,-4.6066,-4.6035,-4.5964,-4.596,-4.5929,-4.5883,-4.5848,-4.5838,-4.577,-4.5728,-4.5709,-4.5642,-4.5569,-4.5513,-4.5495,-4.5458,-4.5419,-4.5399,-4.5379,-4.5319,-4.5317,-4.5275,-4.5295,-4.5297,-4.5277,-4.5277,-4.5277,-4.5277,-4.5277,-4.5277,-4.5275,-4.5275,-4.5254,-4.5213,-4.5213,-4.5213,-4.5213,-4.5213,-4.5235,-4.5235,-4.5235,-4.5256,-4.5256,-4.5256,-4.5237,-4.5237,-4.5256,-4.5256,-4.5277,-4.5258,-4.522,-4.5258,-4.5277,-4.5297,-4.5297,-4.5277,-4.5277,-4.5277,-4.5277,-4.5256,-4.5256,-4.5254,-5.5724,-5.5708,-5.4918,-5.4592,-5.4265,-5.2993,-5.2261,-5.1894,-5.1296,-5.0891,-5.0812,-5.0793,-5.0793,-5.0793,-5.0793,-5.0794,-5.0775,-5.0757,-5.0738,-5.0738,-5.0757,-5.081,-5.0841,-5.089,-5.0906,-5.0906,-5.089,-5.089,-5.0902,-5.0889,-5.0874,-5.0906,-5.0902,-5.0919,-5.0941,-5.0971,-5.1005,-5.1067,-5.0984,-5.0914,-5.083,-5.028,-4.9943,-4.9776,-4.9065,-4.8205,-4.7437,-4.659,-4.6143,-4.6201,-4.6074,-4.5994,-4.5972,-4.598,-4.5937,-4.5893,-4.5874,-4.5854,-4.579,-4.5786,-4.5758,-4.5699,-4.5607,-4.5569,-4.5553,-4.5496,-4.5419,-4.5419,-4.538,-4.5379,-4.5338,-4.5317,-4.5275,-4.5254,-4.523,-4.523,-4.5273,-4.5275,-4.5275,-4.5256,-4.5256,-4.5256,-4.5275,-4.5254,-4.5211,-4.5211,-4.517,-4.5148,-4.5148,-4.5148,-4.5148,-4.5148,-4.517,-4.5173,-4.5213,-4.5235,-4.5235,-4.5235,-4.5235,-4.5213,-4.5235,-4.5235,-4.5275,-4.5297,-4.5256,-4.5235,-4.5254,-4.5254,-4.5256,-4.5235,-4.5213,-4.5213,-4.5213,-4.5192,-4.5192,-5.5551,-5.5531,-5.5359,-5.4921,-5.4364,-5.3942,-5.3061,-5.1932,-5.1702,-5.126,-5.0779,-5.0683,-5.0664,-5.0664,-5.0664,-5.0663,-5.0644,-5.0604,-5.0565,-5.0565,-5.0565,-5.0584,-5.0663,-5.0835,-5.0849,-5.0846,-5.0827,-5.0827,-5.0808,-5.0805,-5.0805,-5.081,-5.0797,-5.0816,-5.0846,-5.0844,-5.088,-5.0932,-5.0929,-5.0941,-5.0937,-5.0758,-5.0584,-5.0506,-4.9756,-4.8963,-4.8135,-4.7255,-4.681,-4.6665,-4.628,-4.5996,-4.5925,-4.5866,-4.5838,-4.5824,-4.5776,-4.5727,-4.5708,-4.5684,-4.5661,-4.5591,-4.5515,-4.5457,-4.5458,-4.5419,-4.5399,-4.5399,-4.5359,-4.5316,-4.5252,-4.5233,-4.5211,-4.5167,-4.5125,-4.5129,-4.5129,-4.5144,-4.5144,-4.5148,-4.5148,-4.5129,-4.5129,-4.5148,-4.5125,-4.5125,-4.5103,-4.5103,-4.5103,-4.508,-4.508,-4.5057,-4.5103,-4.5125,-4.5129,-4.517,-4.5192,-4.5192,-4.5192,-4.517,-4.5192,-4.5213,-4.5235,-4.5213,-4.5213,-4.5192,-4.5192,-4.517,-4.517,-4.5148,-4.5148,-4.5148,-4.5148,-4.5125,-4.5084,-5.5523,-5.5523,-5.5523,-5.5274,-5.4833,-5.4469,-5.3801,-5.2998,-5.25,-5.1888,-5.1237,-5.1121,-5.091,-5.0565,-5.0563,-5.0562,-5.054,-5.0478,-5.0416,-5.0511,-5.0719,-5.0987,-5.1124,-5.1365,-5.1449,-5.0856,-5.0664,-5.0664,-5.0645,-5.0682,-5.0644,-5.0664,-5.0682,-5.0682,-5.0702,-5.0683,-5.0701,-5.0757,-5.0757,-5.0756,-5.0754,-5.0754,-5.0754,-5.06,-4.9982,-4.9249,-4.8825,-4.8,-4.7598,-4.7326,-4.6761,-4.6132,-4.5849,-4.5761,-4.5731,-4.57,-4.5687,-4.5629,-4.561,-4.5545,-4.5515,-4.5495,-4.5438,-4.5419,-4.54,-4.536,-4.5338,-4.5317,-4.5275,-4.5233,-4.5186,-4.5167,-4.5144,-4.5122,-4.5061,-4.5042,-4.5057,-4.5095,-4.5095,-4.5122,-4.5103,-4.5103,-4.5103,-4.5061,-4.5038,-4.5057,-4.501,-4.4991,-4.4967,-4.4967,-4.4986,-4.501,-4.5033,-4.5057,-4.5061,-4.508,-4.5125,-4.5125,-4.5125,-4.5125,-4.5148,-4.5148,-4.517,-4.517,-4.5148,-4.5148,-4.5125,-4.5103,-4.5103,-4.5103,-4.5125,-4.5103,-4.508,-4.5057,-4.5014,-5.548,-5.5499,-5.548,-5.5499,-5.5384,-5.4748,-5.4341,-5.4077,-5.3483,-5.2613,-5.1947,-5.1832,-5.1484,-5.099,-5.0933,-5.0837,-5.0875,-5.0887,-5.099,-5.1023,-5.1419,-5.1648,-5.1844,-5.2136,-5.2045,-5.0875,-5.1034,-5.1015,-5.102,-5.0853,-5.118,-5.0922,-5.0687,-5.0823,-5.0771,-5.0581,-5.0544,-5.0566,-5.0566,-5.0567,-5.0567,-5.0567,-5.0567,-5.0471,-5.0087,-4.9702,-4.9413,-4.8779,-4.826,-4.8203,-4.7453,-4.6645,-4.6042,-4.5687,-4.5651,-4.5563,-4.5566,-4.5545,-4.5505,-4.5455,-4.5419,-4.5413,-4.5376,-4.5378,-4.5338,-4.5277,-4.5235,-4.5213,-4.517,-4.5148,-4.5103,-4.508,-4.508,-4.5057,-4.501,-4.501,-4.4967,-4.5029,-4.5029,-4.5057,-4.5033,-4.5033,-4.5014,-4.4991,-4.4991,-4.4967,-4.4919,-4.4895,-4.4895,-4.4895,-4.4919,-4.4938,-4.4967,-4.4967,-4.4991,-4.501,-4.5033,-4.5033,-4.5057,-4.5057,-4.5057,-4.5057,-4.508,-4.5103,-4.508,-4.508,-4.5038,-4.5014,-4.5014,-4.5061,-4.5038,-4.5033,-4.501,-4.4986,-4.4962,-5.5409,-5.5409,-5.5409,-5.5428,-5.5371,-5.5148,-5.4645,-5.4065,-5.3868,-5.3244,-5.2546,-5.2444,-5.2393,-5.2203,-5.2234,-5.2234,-5.205,-5.1967,-5.2018,-5.2011,-5.2296,-5.2391,-5.2467,-5.2734,-5.2544,-5.2341,-5.2285,-5.236,-5.2241,-5.2417,-5.2085,-5.216,-5.1643,-5.1362,-5.1142,-5.0769,-5.0558,-5.0524,-5.0505,-5.0508,-5.0416,-5.0418,-5.044,-5.0462,-5.0235,-5.0197,-5.008,-4.9482,-4.902,-4.8947,-4.8238,-4.7433,-4.6685,-4.6014,-4.563,-4.5457,-4.5438,-4.5419,-4.54,-4.54,-4.5417,-4.5375,-4.5295,-4.5254,-4.5233,-4.5192,-4.5148,-4.5125,-4.5103,-4.5103,-4.5033,-4.4991,-4.4967,-4.4943,-4.4919,-4.4914,-4.4865,-4.4865,-4.4889,-4.4919,-4.4919,-4.4919,-4.4919,-4.4919,-4.4895,-4.4895,-4.487,-4.4846,-4.4846,-4.487,-4.487,-4.4895,-4.4895,-4.4919,-4.4919,-4.4914,-4.4938,-4.4938,-4.4938,-4.4919,-4.4919,-4.4938,-4.4962,-4.4962,-4.501,-4.501,-4.4967,-4.4943,-4.4943,-4.4943,-4.4962,-4.4938,-4.4914,-4.4889,-4.4978,-5.5241,-5.5241,-5.5241,-5.5241,-5.5222,-5.5195,-5.4939,-5.4615,-5.4504,-5.4047,-5.3476,-5.3267,-5.2992,-5.2707,-5.262,-5.2566,-5.255,-5.2456,-5.2447,-5.2456,-5.2769,-5.3025,-5.312,-5.3423,-5.364,-5.3678,-5.3746,-5.3261,-5.2677,-5.252,-5.2654,-5.2479,-5.2134,-5.1954,-5.192,-5.1668,-5.1161,-5.0913,-5.0811,-5.0645,-5.0307,-5.0274,-5.0298,-5.0302,-5.0287,-5.0287,-5.0225,-4.9996,-4.9686,-4.9515,-4.8884,-4.8312,-4.7704,-4.7016,-4.6199,-4.5609,-4.5418,-4.5359,-4.5298,-4.5275,-4.5233,-4.5227,-4.5167,-4.5148,-4.5148,-4.5106,-4.5061,-4.5038,-4.501,-4.4967,-4.4895,-4.4895,-4.487,-4.4796,-4.4796,-4.4789,-4.4764,-4.4745,-4.4745,-4.477,-4.477,-4.477,-4.4796,-4.4796,-4.4815,-4.4815,-4.4796,-4.4796,-4.4815,-4.484,-4.4821,-4.4821,-4.4821,-4.4821,-4.4821,-4.484,-4.484,-4.484,-4.484,-4.4821,-4.4796,-4.484,-4.484,-4.484,-4.4865,-4.4895,-4.4919,-4.4895,-4.4889,-4.4865,-4.484,-4.4815,-4.4815,-4.4827,-4.5009,-5.5075,-5.5075,-5.5075,-5.5075,-5.5094,-5.5066,-5.5038,-5.5038,-5.499,-5.462,-5.4135,-5.4012,-5.367,-5.3195,-5.3081,-5.3006,-5.2853,-5.2908,-5.2915,-5.2987,-5.3402,-5.3685,-5.3862,-5.422,-5.4503,-5.432,-5.4363,-5.4006,-5.3289,-5.311,-5.2949,-5.2967,-5.2818,-5.2592,-5.2559,-5.2305,-5.1992,-5.1697,-5.1478,-5.1106,-5.0487,-5.0304,-5.019,-5.0101,-5.007,-5.0095,-5.0114,-5.0057,-5.0038,-4.9885,-4.9504,-4.9042,-4.8814,-4.8243,-4.7228,-4.6099,-4.5679,-4.55,-4.5437,-4.5144,-4.5144,-4.5137,-4.5099,-4.508,-4.508,-4.5038,-4.4991,-4.4943,-4.4895,-4.4846,-4.4802,-4.4796,-4.4745,-4.4738,-4.4712,-4.4712,-4.4685,-4.4659,-4.4632,-4.4632,-4.4632,-4.4678,-4.4742,-4.4738,-4.4764,-4.4764,-4.4764,-4.4764,-4.4764,-4.4738,-4.4738,-4.4738,-4.4738,-4.4738,-4.4738,-4.4738,-4.4764,-4.4764,-4.4764,-4.4764,-4.4738,-4.4738,-4.4757,-4.4775,-4.4789,-4.4821,-4.484,-4.4859,-4.4815,-4.4745,-4.4738,-4.4863,-4.5153,-4.5289,-4.5423,-5.5075,-5.5075,-5.5075,-5.5075,-5.5066,-5.499,-5.4931,-5.4901,-5.481,-5.4698,-5.4503,-5.4579,-5.4484,-5.4333,-5.4333,-5.4358,-5.4327,-5.4163,-5.4056,-5.4024,-5.4213,-5.4339,-5.4433,-5.4476,-5.4491,-5.4424,-5.4356,-5.4382,-5.4094,-5.4101,-5.4283,-5.4094,-5.3532,-5.3292,-5.3189,-5.2836,-5.2194,-5.21,-5.2092,-5.1687,-5.1074,-5.095,-5.0673,-5.0225,-5.0088,-5.0076,-5.005,-5.005,-5.005,-5.0063,-4.9987,-4.9594,-4.9061,-4.8833,-4.8262,-4.7429,-4.6744,-4.6268,-4.6168,-4.5745,-4.5361,-4.539,-4.5238,-4.5048,-4.5252,-4.5198,-4.5105,-4.4745,-4.4832,-4.4971,-4.5047,-4.487,-4.4761,-4.4847,-4.499,-4.4915,-4.4812,-4.52,-4.5097,-4.4974,-4.5143,-4.4889,-4.4802,-4.4734,-4.4712,-4.4712,-4.4712,-4.4685,-4.4659,-4.4632,-4.4632,-4.4605,-4.4605,-4.4605,-4.4578,-4.4605,-4.467,-4.4697,-4.4697,-4.4678,-4.4632,-4.4624,-4.4753,-4.4753,-4.4806,-4.4995,-4.5195,-4.5138,-4.4844,-4.4817,-4.4934,-4.5319,-4.5787,-4.5856,-4.5914,-5.4871,-5.4871,-5.4871,-5.4871,-5.4871,-5.4829,-5.4799,-5.4767,-5.4755,-5.4705,-5.4705,-5.4705,-5.4705,-5.4692,-5.4641,-5.4538,-5.4543,-5.4495,-5.4443,-5.439,-5.4371,-5.4371,-5.4318,-5.4284,-5.4233,-5.4233,-5.4198,-5.4198,-5.4337,-5.4382,-5.4364,-5.43,-5.4024,-5.3767,-5.3752,-5.3503,-5.309,-5.2709,-5.2303,-5.1982,-5.1741,-5.1649,-5.1338,-5.0553,-5.0496,-5.0277,-5.0003,-4.9872,-4.9853,-4.989,-4.9871,-4.9738,-4.9454,-4.9359,-4.9132,-4.8848,-4.7996,-4.7422,-4.7004,-4.6581,-4.6309,-4.6309,-4.6259,-4.6315,-4.6233,-4.615,-4.6078,-4.6145,-4.6127,-4.6043,-4.5978,-4.6017,-4.5942,-4.5876,-4.5622,-4.5669,-4.564,-4.5779,-4.5889,-4.5746,-4.5585,-4.5375,-4.5115,-4.4871,-4.4759,-4.4524,-4.4515,-4.4515,-4.4468,-4.444,-4.4458,-4.4458,-4.4458,-4.4458,-4.4411,-4.4411,-4.4552,-4.4571,-4.4571,-4.4552,-4.4477,-4.4524,-4.4853,-4.5097,-4.5237,-4.5406,-4.5575,-4.535,-4.4983,-4.5077,-4.5237,-4.5745,-4.6271,-4.6457,-4.6618,-5.4641,-5.4608,-5.4673,-5.4705,-5.4673,-5.4673,-5.4641,-5.4641,-5.4608,-5.4608,-5.4627,-5.4595,-5.4595,-5.4543,-5.4439,-5.4371,-5.4321,-5.4289,-5.42,-5.4146,-5.4091,-5.4127,-5.4127,-5.4091,-5.411,-5.4055,-5.4018,-5.4018,-5.4017,-5.4033,-5.4088,-5.4091,-5.4073,-5.4072,-5.4089,-5.3975,-5.3765,-5.3334,-5.2896,-5.2602,-5.2384,-5.2347,-5.1889,-5.1318,-5.0889,-5.0571,-5.0059,-4.9738,-4.973,-4.9711,-4.9721,-4.9712,-4.9627,-4.9637,-4.9618,-4.941,-4.89,-4.8512,-4.8026,-4.7572,-4.7363,-4.7261,-4.7246,-4.6967,-4.7023,-4.7165,-4.7099,-4.6864,-4.6873,-4.6901,-4.6985,-4.6851,-4.6649,-4.6562,-4.6539,-4.6657,-4.6682,-4.6551,-4.6421,-4.6234,-4.6091,-4.6059,-4.5718,-4.5233,-4.4822,-4.4416,-4.4333,-4.4341,-4.4397,-4.4453,-4.4427,-4.4493,-4.4456,-4.4549,-4.4793,-4.4707,-4.4659,-4.4703,-4.4703,-4.4864,-4.5081,-4.5241,-4.5514,-4.566,-4.5749,-4.5941,-4.6199,-4.5667,-4.5198,-4.5611,-4.5993,-4.6345,-4.6725,-4.6943,-4.7271,-5.4472,-5.4424,-5.4608,-5.4673,-5.4673,-5.4538,-5.4505,-5.4524,-5.4458,-5.4443,-5.439,-5.4359,-5.4271,-5.4217,-5.4198,-5.4163,-5.4127,-5.4127,-5.4091,-5.4091,-5.4091,-5.4055,-5.4055,-5.4,-5.3982,-5.3982,-5.3888,-5.3832,-5.3832,-5.3814,-5.3944,-5.4073,-5.4056,-5.4093,-5.4074,-5.4036,-5.4054,-5.3811,-5.3676,-5.3377,-5.304,-5.285,-5.2514,-5.1794,-5.1147,-5.0685,-5.0685,-5.0131,-4.9803,-4.9803,-4.969,-4.9634,-4.9604,-4.9604,-4.9604,-4.9529,-4.9453,-4.9211,-4.8938,-4.8182,-4.7443,-4.7284,-4.7325,-4.7475,-4.7502,-4.7191,-4.7049,-4.7177,-4.7353,-4.7161,-4.6999,-4.6769,-4.713,-4.7191,-4.729,-4.7234,-4.7183,-4.7001,-4.6852,-4.6648,-4.6666,-4.6768,-4.6531,-4.6085,-4.5518,-4.5115,-4.4861,-4.4917,-4.478,-4.4761,-4.4636,-4.461,-4.4535,-4.4759,-4.5338,-4.5401,-4.5363,-4.5549,-4.5661,-4.5898,-4.6203,-4.6277,-4.5972,-4.6376,-4.6512,-4.6632,-4.6775,-4.6613,-4.6538,-4.6582,-4.6757,-4.6978,-4.7429,-4.7824,-4.8057,-5.434,-5.4324,-5.4321,-5.4356,-5.4461,-5.4409,-5.4321,-5.4268,-5.4233,-5.4217,-5.4217,-5.4181,-5.4146,-5.4091,-5.4091,-5.4055,-5.4037,-5.4037,-5.4,-5.3944,-5.3907,-5.3907,-5.3888,-5.3869,-5.383,-5.3811,-5.3697,-5.36,-5.36,-5.3643,-5.3662,-5.3756,-5.3867,-5.3887,-5.3869,-5.3907,-5.3963,-5.4,-5.4037,-5.3813,-5.3773,-5.3587,-5.3286,-5.2482,-5.2311,-5.1728,-5.1274,-5.0539,-5.0252,-5.004,-4.9721,-4.9553,-4.949,-4.944,-4.9402,-4.9421,-4.9434,-4.9434,-4.9464,-4.8878,-4.8673,-4.8506,-4.8471,-4.8365,-4.8234,-4.8315,-4.8322,-4.8277,-4.8114,-4.7988,-4.8207,-4.8231,-4.8278,-4.8155,-4.7992,-4.7828,-4.772,-4.7575,-4.754,-4.7466,-4.758,-4.7677,-4.7381,-4.7011,-4.6394,-4.5811,-4.5611,-4.5426,-4.5291,-4.5249,-4.5157,-4.5151,-4.5133,-4.5305,-4.5881,-4.6015,-4.6094,-4.6368,-4.6609,-4.6754,-4.6847,-4.6357,-4.6231,-4.6743,-4.724,-4.7352,-4.7537,-4.7763,-4.7705,-4.7415,-4.7382,-4.7451,-4.8007,-4.8544,-4.8641,-5.4235,-5.4235,-5.4146,-5.4146,-5.4235,-5.4254,-5.42,-5.4091,-5.4091,-5.4091,-5.4073,-5.4055,-5.4037,-5.4018,-5.4018,-5.3981,-5.3926,-5.3944,-5.3869,-5.3831,-5.3793,-5.3754,-5.3697,-5.3676,-5.3656,-5.3616,-5.3558,-5.3481,-5.3521,-5.351,-5.3508,-5.3521,-5.3635,-5.3672,-5.3676,-5.3716,-5.3774,-5.3831,-5.3869,-5.3907,-5.3926,-5.3907,-5.3814,-5.3105,-5.2862,-5.2487,-5.1852,-5.1233,-5.0856,-5.0538,-5.0164,-4.9697,-4.9529,-4.9365,-4.9216,-4.9197,-4.9197,-4.9211,-4.9257,-4.9315,-4.9396,-4.9089,-4.9071,-4.909,-4.9197,-4.9197,-4.894,-4.8996,-4.9038,-4.9131,-4.9098,-4.881,-4.8667,-4.8431,-4.8431,-4.8322,-4.8361,-4.8288,-4.8327,-4.8309,-4.8365,-4.8254,-4.8088,-4.7664,-4.6979,-4.6363,-4.5956,-4.583,-4.5848,-4.583,-4.5904,-4.5904,-4.5922,-4.6202,-4.65,-4.6609,-4.6826,-4.7363,-4.7511,-4.7328,-4.7219,-4.6816,-4.6871,-4.7531,-4.7955,-4.8106,-4.818,-4.8216,-4.814,-4.8044,-4.8029,-4.8032,-4.8071,-4.8532,-4.8716,-5.411,-5.4091,-5.4091,-5.4091,-5.411,-5.411,-5.4091,-5.4055,-5.4055,-5.4037,-5.3982,-5.3982,-5.3926,-5.3851,-5.3851,-5.3813,-5.3831,-5.3831,-5.3736,-5.3676,-5.3676,-5.3637,-5.3539,-5.3539,-5.3499,-5.3499,-5.3459,-5.3459,-5.3459,-5.3462,-5.3381,-5.3355,-5.3447,-5.3525,-5.3499,-5.3499,-5.3539,-5.3539,-5.3539,-5.3619,-5.3716,-5.3734,-5.3643,-5.3515,-5.3126,-5.2754,-5.2493,-5.1877,-5.1521,-5.1353,-5.0735,-5.0362,-5.0322,-4.978,-4.95,-4.9332,-4.9276,-4.922,-4.9179,-4.9209,-4.9169,-4.9168,-4.9176,-4.9123,-4.915,-4.915,-4.9068,-4.8978,-4.8943,-4.8874,-4.8857,-4.8822,-4.8768,-4.8714,-4.8641,-4.8623,-4.8624,-4.855,-4.8532,-4.8476,-4.855,-4.8569,-4.8532,-4.8274,-4.7555,-4.6909,-4.6391,-4.6281,-4.643,-4.6614,-4.6744,-4.6781,-4.6837,-4.6947,-4.7205,-4.7314,-4.759,-4.8162,-4.8274,-4.796,-4.7923,-4.7868,-4.8034,-4.8458,-4.8384,-4.8292,-4.8403,-4.8532,-4.8643,-4.8753,-4.8606,-4.8569,-4.855,-4.8695,-4.9058,-5.4055,-5.4,-5.3907,-5.3907,-5.3926,-5.4019,-5.4,-5.3926,-5.3926,-5.3888,-5.3851,-5.3851,-5.3851,-5.3813,-5.3754,-5.3734,-5.3734,-5.3619,-5.3579,-5.3598,-5.3539,-5.3539,-5.3481,-5.34,-5.3359,-5.3378,-5.3355,-5.3314,-5.3272,-5.3387,-5.335,-5.3267,-5.334,-5.3369,-5.3477,-5.3499,-5.3499,-5.3499,-5.3499,-5.3521,-5.3539,-5.3558,-5.3579,-5.36,-5.3325,-5.3215,-5.3159,-5.2419,-5.2159,-5.2048,-5.1379,-5.1025,-5.1005,-5.0575,-5.0352,-5.0001,-4.9796,-4.941,-4.9022,-4.8797,-4.8925,-4.9073,-4.9055,-4.9002,-4.8909,-4.8927,-4.8839,-4.8785,-4.875,-4.8714,-4.8678,-4.8678,-4.8623,-4.8642,-4.8605,-4.855,-4.8532,-4.8438,-4.8382,-4.8382,-4.842,-4.842,-4.842,-4.8438,-4.7886,-4.7721,-4.7279,-4.7335,-4.7519,-4.7647,-4.7794,-4.7794,-4.7812,-4.7831,-4.7905,-4.7832,-4.7832,-4.82,-4.8346,-4.8235,-4.8309,-4.8586,-4.8604,-4.8696,-4.8549,-4.842,-4.8658,-4.8912,-4.9383,-4.953,-4.9444,-4.9244,-4.9129,-4.9435,-4.988,-5.3944,-5.3907,-5.3831,-5.3736,-5.3793,-5.3907,-5.3869,-5.3774,-5.3736,-5.3736,-5.3678,-5.3697,-5.3697,-5.3697,-5.3676,-5.3656,-5.3616,-5.3539,-5.344,-5.3459,-5.344,-5.34,-5.3378,-5.3355,-5.3295,-5.3272,-5.3248,-5.3206,-5.3243,-5.3506,-5.3634,-5.3634,-5.3371,-5.3309,-5.3355,-5.3396,-5.3396,-5.3396,-5.3396,-5.3378,-5.34,-5.344,-5.344,-5.3481,-5.3484,-5.3484,-5.3333,-5.3056,-5.2726,-5.2525,-5.2156,-5.1657,-5.1658,-5.138,-5.1084,-5.0639,-5.0398,-5.0065,-4.9732,-4.9621,-4.9824,-4.993,-4.9266,-4.8805,-4.8732,-4.8714,-4.8697,-4.8642,-4.8642,-4.8624,-4.868,-4.8661,-4.8679,-4.8698,-4.8661,-4.8604,-4.8548,-4.851,-4.8489,-4.8471,-4.8471,-4.8434,-4.8434,-4.8324,-4.8179,-4.8196,-4.8251,-4.8379,-4.8416,-4.8343,-4.8343,-4.8288,-4.8288,-4.8252,-4.8197,-4.8179,-4.8216,-4.8288,-4.8434,-4.8543,-4.8783,-4.9062,-4.8985,-4.9038,-4.9258,-4.9368,-4.9102,-4.9336,-4.9898,-5.0258,-5.0331,-5.0117,-4.9825,-5.007,-5.0532,-5.3794,-5.3774,-5.3734,-5.3695,-5.3695,-5.3736,-5.3754,-5.3714,-5.3714,-5.3598,-5.3499,-5.3539,-5.3539,-5.3539,-5.3499,-5.3499,-5.3499,-5.3459,-5.3418,-5.3318,-5.3318,-5.3254,-5.3285,-5.3316,-5.3487,-5.3371,-5.35,-5.383,-5.3463,-5.4057,-5.4412,-5.4301,-5.3965,-5.3799,-5.3708,-5.3726,-5.3561,-5.3395,-5.329,-5.3272,-5.3295,-5.3318,-5.3378,-5.3418,-5.3418,-5.3418,-5.3363,-5.3311,-5.3311,-5.313,-5.2724,-5.2465,-5.2114,-5.1597,-5.132,-5.1135,-5.1117,-5.0878,-5.0786,-5.0636,-5.0711,-5.0509,-4.9621,-4.8975,-4.8901,-4.9123,-4.9196,-4.9159,-4.9159,-4.8937,-4.8789,-4.8863,-4.888,-4.8823,-4.8767,-4.8728,-4.871,-4.871,-4.8728,-4.8746,-4.8783,-4.882,-4.8912,-4.882,-4.8967,-4.9058,-4.915,-4.9077,-4.8985,-4.8379,-4.8379,-4.8361,-4.8379,-4.8453,-4.8508,-4.8765,-4.9022,-4.926,-4.9001,-4.9074,-4.9313,-4.9588,-4.9618,-4.9815,-5.0273,-5.0341,-5.0094,-5.018,-5.0581,-5.0866,-5.1162,-5.0896,-5.0593,-5.0635,-5.1009,-5.3579,-5.3561,-5.3558,-5.3539,-5.3539,-5.3579,-5.3579,-5.3539,-5.3539,-5.3521,-5.3499,-5.3499,-5.344,-5.3499,-5.34,-5.3359,-5.3336,-5.3295,-5.3272,-5.3248,-5.3261,-5.3225,-5.3427,-5.3714,-5.3977,-5.4252,-5.4491,-5.4649,-5.4858,-5.522,-5.5195,-5.5188,-5.4778,-5.4748,-5.4748,-5.4858,-5.4118,-5.3549,-5.3366,-5.3261,-5.3248,-5.323,-5.3272,-5.3314,-5.3314,-5.3314,-5.3314,-5.3314,-5.3314,-5.3249,-5.312,-5.305,-5.3093,-5.289,-5.2668,-5.1796,-5.1369,-5.0945,-5.0925,-5.0904,-5.0974,-5.1084,-5.0438,-5.0374,-5.0247,-5.0155,-5.0096,-4.9912,-4.9837,-4.9763,-4.9724,-4.9743,-4.9703,-4.9685,-4.9646,-4.9627,-4.9627,-4.9627,-4.9627,-4.9627,-4.9646,-4.9627,-4.9682,-4.9811,-4.9958,-5.0031,-5.0013,-4.9884,-4.9664,-4.9077,-4.8802,-4.882,-4.8948,-4.9169,-4.9462,-4.9738,-4.9994,-5.016,-4.9805,-4.9691,-5.0094,-5.0291,-5.0318,-5.0514,-5.0879,-5.0994,-5.098,-5.1162,-5.1308,-5.1764,-5.2046,-5.1692,-5.1445,-5.1411,-5.1538,-5.3499,-5.3499,-5.344,-5.3359,-5.3277,-5.3235,-5.3235,-5.3254,-5.3336,-5.3378,-5.3277,-5.3235,-5.3235,-5.3193,-5.3109,-5.3109,-5.3066,-5.3042,-5.3017,-5.3072,-5.3371,-5.3511,-5.3785,-5.4287,-5.4609,-5.4946,-5.5111,-5.5194,-5.554,-5.5493,-5.5456,-5.5862,-5.567,-5.5468,-5.5322,-5.5176,-5.4846,-5.4269,-5.3818,-5.3494,-5.3353,-5.3243,-5.3225,-5.3206,-5.3206,-5.3206,-5.3206,-5.3206,-5.323,-5.3254,-5.3254,-5.3295,-5.3378,-5.3341,-5.3226,-5.2504,-5.2224,-5.1963,-5.1963,-5.1867,-5.1784,-5.1724,-5.1674,-5.1779,-5.1415,-5.1179,-5.0901,-5.0603,-5.0714,-5.0747,-5.0765,-5.0784,-5.0765,-5.0747,-5.0747,-5.0747,-5.0747,-5.0747,-5.0729,-5.071,-5.0692,-5.0674,-5.0729,-5.0839,-5.0784,-5.06,-5.0508,-5.0472,-5.0343,-5.0031,-4.9793,-4.9756,-4.9884,-5.005,-5.0343,-5.0486,-5.0574,-5.057,-5.0287,-5.03,-5.0775,-5.1025,-5.1092,-5.1231,-5.1362,-5.1518,-5.1647,-5.1792,-5.1991,-5.2335,-5.2498,-5.2182,-5.1973,-5.2037,-5.22,-5.344,-5.344,-5.3318,-5.3151,-5.298,-5.2893,-5.285,-5.2806,-5.3023,-5.3085,-5.2999,-5.2868,-5.285,-5.2893,-5.2893,-5.285,-5.2893,-5.2868,-5.3032,-5.2933,-5.3598,-5.3926,-5.4364,-5.4884,-5.5295,-5.5322,-5.5504,-5.598,-5.5615,-5.5752,-5.6173,-5.6412,-5.5952,-5.5764,-5.5879,-5.5842,-5.5651,-5.5231,-5.4737,-5.4349,-5.3622,-5.3329,-5.328,-5.3206,-5.3206,-5.3206,-5.3206,-5.3206,-5.3206,-5.3206,-5.3206,-5.3206,-5.3206,-5.3248,-5.3151,-5.3115,-5.2876,-5.2839,-5.2784,-5.2784,-5.2894,-5.2962,-5.3188,-5.2913,-5.244,-5.2018,-5.1665,-5.1555,-5.1646,-5.1646,-5.1665,-5.1665,-5.1665,-5.1646,-5.1646,-5.1646,-5.1646,-5.1646,-5.1665,-5.1646,-5.1646,-5.1628,-5.161,-5.172,-5.1775,-5.1334,-5.1261,-5.1298,-5.1187,-5.1041,-5.0729,-5.0655,-5.0765,-5.0875,-5.0941,-5.1087,-5.1023,-5.0945,-5.0842,-5.1037,-5.1566,-5.1759,-5.1879,-5.1926,-5.1909,-5.2173,-5.2345,-5.2327,-5.2272,-5.2371,-5.2498,-5.2498,-5.2498,-5.2516,-5.2462,-5.3127,-5.3127,-5.298,-5.2893,-5.285,-5.2806,-5.2806,-5.2806,-5.2743,-5.2787,-5.2806,-5.2806,-5.2806,-5.2761,-5.2761,-5.2761,-5.2761,-5.2899,-5.3162,-5.3526,-5.3973,-5.4472,-5.4947,-5.5611,-5.6022,-5.6343,-5.6598,-5.6769,-5.6678,-5.6817,-5.701,-5.7225,-5.683,-5.6721,-5.6733,-5.6733,-5.6514,-5.6077,-5.5879,-5.5149,-5.4224,-5.4008,-5.3922,-5.35,-5.3219,-5.3219,-5.3201,-5.3164,-5.3164,-5.3206,-5.3206,-5.3206,-5.3206,-5.3206,-5.3206,-5.3206,-5.3206,-5.3206,-5.3206,-5.3206,-5.3206,-5.3206,-5.3206,-5.3206,-5.3041,-5.2784,-5.2601,-5.2564,-5.2527,-5.2491,-5.2491,-5.2491,-5.2491,-5.2491,-5.2491,-5.2491,-5.2491,-5.2491,-5.2509,-5.2527,-5.2527,-5.2509,-5.2472,-5.2527,-5.2637,-5.2656,-5.2692,-5.2674,-5.2546,-5.2344,-5.155,-5.1463,-5.1555,-5.1623,-5.171,-5.1736,-5.1706,-5.1821,-5.1887,-5.2079,-5.2272,-5.2227,-5.22,-5.2336,-5.2408,-5.2498,-5.2498,-5.2462,-5.2462,-5.2498,-5.2679,-5.277,-5.2752,-5.277,-5.2607,-5.2583,-5.2893,-5.2761,-5.2672,-5.2645,-5.2599,-5.2554,-5.249,-5.2397,-5.2444,-5.249,-5.2599,-5.2645,-5.2645,-5.2599,-5.2599,-5.2626,-5.2925,-5.3186,-5.3621,-5.4429,-5.4943,-5.5589,-5.6169,-5.641,-5.6767,-5.6967,-5.7116,-5.7289,-5.7216,-5.718,-5.7325,-5.7351,-5.7351,-5.7406,-5.7401,-5.7237,-5.677,-5.6764,-5.6132,-5.503,-5.4838,-5.4352,-5.3804,-5.3529,-5.3438,-5.3054,-5.3017,-5.306,-5.3121,-5.3164,-5.3206,-5.3206,-5.3206,-5.3206,-5.3206,-5.3206,-5.3206,-5.3206,-5.3164,-5.3164,-5.3146,-5.3206,-5.3164,-5.3206,-5.2968,-5.2968,-5.2931,-5.2931,-5.2913,-5.2913,-5.2913,-5.2913,-5.2913,-5.2913,-5.2913,-5.2913,-5.2913,-5.2913,-5.2913,-5.2931,-5.2931,-5.2894,-5.2894,-5.2968,-5.2968,-5.3151,-5.317,-5.3188,-5.3164,-5.2522,-5.2113,-5.215,-5.2315,-5.2401,-5.2419,-5.2397,-5.2607,-5.2627,-5.2509,-5.2372,-5.2435,-5.248,-5.2498,-5.2498,-5.2498,-5.2498,-5.2679,-5.2552,-5.2498,-5.2788,-5.3114,-5.3114,-5.3241,-5.344,-5.2051,-5.268,-5.2608,-5.249,-5.2434,-5.2311,-5.2198,-5.2132,-5.2084,-5.2084,-5.2198,-5.2358,-5.2452,-5.2405,-5.2358,-5.2311,-5.2462,-5.2931,-5.3261,-5.3896,-5.4903,-5.5491,-5.5944,-5.6433,-5.6665,-5.6755,-5.6863,-5.6899,-5.6899,-5.6915,-5.6933,-5.6951,-5.6987,-5.7057,-5.7123,-5.7156,-5.7047,-5.7011,-5.6953,-5.6853,-5.6279,-5.5665,-5.4994,-5.4465,-5.4055,-5.3772,-5.3334,-5.3024,-5.3087,-5.3065,-5.317,-5.306,-5.3103,-5.306,-5.3121,-5.3121,-5.306,-5.3085,-5.3109,-5.3085,-5.3109,-5.3109,-5.3127,-5.3146,-5.3121,-5.3121,-5.3121,-5.3164,-5.3164,-5.3164,-5.3164,-5.3206,-5.3206,-5.3206,-5.3206,-5.3206,-5.3206,-5.3206,-5.3206,-5.3206,-5.3206,-5.3206,-5.3206,-5.3206,-5.3206,-5.3206,-5.3206,-5.3206,-5.3164,-5.3103,-5.281,-5.256,-5.2535,-5.2736,-5.282,-5.2795,-5.2654,-5.2645,-5.2554,-5.2526,-5.2498,-5.2498,-5.2498,-5.2534,-5.2534,-5.2788,-5.2951,-5.315,-5.2933,-5.2896,-5.3349,-5.3856,-5.3911,-5.411,-5.4617,-5.1846,-5.2405,-5.2228,-5.218,-5.2198,-5.215,-5.2102,-5.2102,-5.2084,-5.2084,-5.2084,-5.215,-5.2198,-5.2198,-5.215,-5.2222,-5.2474,-5.3055,-5.372,-5.4331,-5.5251,-5.5897,-5.6346,-5.6527,-5.6758,-5.6742,-5.676,-5.6794,-5.6689,-5.6724,-5.6777,-5.6847,-5.6866,-5.6866,-5.6865,-5.6899,-5.6951,-5.6951,-5.6951,-5.6822,-5.6762,-5.6205,-5.5749,-5.5304,-5.4957,-5.4866,-5.4629,-5.4118,-5.39,-5.3626,-5.3269,-5.3058,-5.2912,-5.2912,-5.2912,-5.2955,-5.2912,-5.2944,-5.2926,-5.2962,-5.2962,-5.295,-5.2944,-5.293,-5.293,-5.2912,-5.2912,-5.2955,-5.3017,-5.3146,-5.3146,-5.3206,-5.3206,-5.3206,-5.3206,-5.3206,-5.3206,-5.3206,-5.3206,-5.3206,-5.3206,-5.3206,-5.3206,-5.3206,-5.3206,-5.3206,-5.3206,-5.3206,-5.3146,-5.3103,-5.3097,-5.293,-5.2824,-5.2743,-5.268,-5.268,-5.2627,-5.2554,-5.2617,-5.2733,-5.2733,-5.2516,-5.2552,-5.2987,-5.3241,-5.3494,-5.3621,-5.3748,-5.4019,-5.4092,-5.4381,-5.4689,-5.4744,-5.4979,-5.5468]}]]